[[[{"header":{"parameterUnit":"kt","parameterCategory":2,"dx":1,"dy":1,"la1":29.285339999999998,"la2":30.599998999999997,"lo1":-89.70041500000002,"lo2":-87.6738589999976,"nx":112,"ny":82,"refTime":"2022-09-27T12:00:00:Z","depth":0,"parameterNumber":1,"parameterNumberName":"U-component_of_WINDS"},"data":[19.5929,19.5535,19.4584,19.4154,19.4417,19.4417,19.2935,19.333,19.4285,19.5337,19.5171,19.5004,19.5565,19.5171,19.4149,19.2212,0.0,19.0765,0.0,19.1721,19.3102,19.2672,19.5333,19.7701,19.9019,19.9642,20.076,20.3291,20.3126,20.3522,20.5463,20.4706,20.4903,20.6416,20.5429,20.5462,20.6416,20.5429,20.5429,20.6416,20.5429,20.5429,20.6416,20.4903,20.5067,20.6416,20.589,20.6481,20.7994,21.1085,21.1874,21.171,21.3649,21.3254,21.1512,21.1512,21.0493,20.8947,20.8158,20.7796,20.7796,20.7796,20.7796,20.7796,20.7796,20.7796,20.8158,20.9704,20.898,20.8224,20.9704,20.898,20.7796,20.7796,20.7796,20.7796,20.7796,20.7796,20.7796,20.7796,20.7796,20.7796,20.7796,20.7796,20.7796,20.7796,20.7796,20.7796,20.7796,20.7796,20.7796,20.7796,20.7796,20.7796,20.7796,20.7796,20.7796,20.7796,20.7796,20.7796,20.7796,20.7796,20.7994,20.8586,20.7994,20.7994,20.8586,20.7994,20.7796,20.7796,20.7796,20.7796,19.5929,19.5535,19.4584,19.4154,19.4022,19.3759,19.2869,19.297,19.3628,19.4614,19.514,19.5333,19.425,19.5368,19.5368,0.0,0.0,19.1554,0.0,19.2116,19.3496,19.4053,19.632,19.849,19.984,20.0826,20.1779,20.2765,20.3323,20.3949,20.4903,20.4903,20.4903,20.4903,20.4903,20.4903,20.4903,20.3917,20.3917,20.4903,20.3917,20.4113,20.4903,20.3949,20.408,20.4903,20.5495,20.6218,20.7205,21.0328,21.1841,21.2433,21.3846,21.3846,21.286,21.2433,21.1282,20.9736,20.8355,20.7796,20.7796,20.7796,20.7796,20.7796,20.7796,20.7796,20.7796,20.7796,20.7796,20.7796,20.7796,20.7796,20.7796,20.7796,20.7796,20.7796,20.7796,20.7796,20.7796,20.7796,20.7796,20.7796,20.7796,20.7796,20.7796,20.7796,20.7796,20.7796,20.7796,20.7796,20.7796,20.7796,20.7796,20.7796,20.7796,20.7796,20.7796,20.7796,20.7796,20.7796,20.7796,20.7796,20.7796,20.7796,20.7796,20.7796,20.7796,20.7796,20.7796,20.7796,20.7796,20.7796,19.4584,19.4584,19.4285,19.2935,19.2606,19.2571,19.2606,19.1488,19.1261,19.4154,19.3628,19.2606,19.2606,19.3759,19.3825,0.0,19.0634,0.0,0.0,19.0604,19.2212,19.6548,19.8262,19.984,20.1155,20.1384,20.1384,20.1352,20.2731,20.352,20.3488,20.3488,20.3554,20.3488,20.3488,20.352,20.352,20.3357,20.3357,20.352,20.3357,20.3357,20.352,20.3357,20.3357,20.3488,20.4903,20.5463,20.589,20.8783,21.0722,21.2268,21.3846,21.4438,21.4241,21.2828,21.1282,20.9736,20.8421,20.7796,20.7796,20.7796,20.7796,20.7796,20.7796,20.7796,20.7796,20.7796,20.7796,20.7796,20.7796,20.7796,20.7796,20.7796,20.7796,20.7796,20.7796,20.7796,20.7796,20.7796,20.7796,20.7796,20.7796,20.7796,20.7796,20.7796,20.7796,20.7796,20.7796,20.7796,20.7796,20.7796,20.7796,20.7796,20.7796,20.7796,20.7796,20.7796,20.7796,20.7796,20.7796,20.7796,20.7796,20.7796,20.7796,20.7796,20.7796,20.7796,20.7796,20.7796,20.7796,20.7796,19.1064,19.1656,19.1787,19.2475,19.1883,19.1357,19.2409,19.0729,19.0042,19.3957,19.3628,0.0,0.0,0.0,19.4154,19.2343,0.0,19.3628,19.3628,19.3628,19.3628,19.3856,19.6122,19.8293,19.9611,19.984,20.0203,20.1384,20.1779,20.2339,20.352,20.4509,20.4672,20.3488,20.3488,20.293,20.1944,20.0989,20.0958,20.1976,20.0989,20.0958,20.1976,20.0795,20.0958,20.1944,20.2339,20.3128,20.4343,20.7205,20.9144,21.0887,21.3452,21.4438,21.4241,21.2828,21.2038,21.1315,20.875,20.7796,20.7796,20.7796,20.7796,20.7796,20.7796,20.7796,20.7796,20.7796,20.7796,20.7796,20.7796,20.7796,20.7796,20.7796,20.7796,20.7796,20.7796,20.7796,20.7796,20.7796,20.7796,20.7796,20.7796,20.7796,20.7796,20.7796,20.7796,20.7796,20.7796,20.7796,20.7796,20.7796,20.7796,20.7796,20.7796,20.7796,20.7796,20.7796,20.7796,20.7796,20.7796,20.7796,20.7796,20.7796,20.7796,20.7796,20.7796,20.7796,20.7796,20.7796,20.7796,20.7796,18.7543,18.8727,18.9516,18.9121,18.9318,18.9647,18.991,18.9151,18.9414,19.3132,0.0,0.0,0.0,0.0,0.0,0.0,19.4776,19.5368,19.4022,19.4417,19.4776,19.461,19.7109,19.9082,19.9248,19.984,20.04,20.1384,20.1352,20.1944,20.352,20.4343,20.4146,20.2731,20.316,20.2568,20.04,19.9611,19.9611,20.04,19.9642,19.9611,20.0432,19.9642,19.9611,20.0595,20.1187,20.1747,20.2733,20.5067,20.7205,20.9144,21.0953,21.286,21.4241,21.2828,21.2236,21.1907,20.9506,20.8355,20.7796,20.7796,20.7796,20.7796,20.7796,20.7796,20.7796,20.7796,20.7796,20.7796,20.7796,20.7796,20.7796,20.7796,20.7796,20.7796,20.7796,20.7796,20.7796,20.7796,20.7796,20.7796,20.7796,20.7796,20.7796,20.7796,20.7796,20.7796,20.7796,20.7796,20.7796,20.7796,20.7796,20.7796,20.7796,20.7796,20.7796,20.7796,20.7796,20.7796,20.7796,20.7796,20.7796,20.7796,20.7796,20.7796,20.7796,20.7796,20.7796,20.7796,20.7796,20.7796,18.4123,18.557,18.6915,18.4847,18.5965,18.7507,18.7046,0.0,18.9085,19.2409,0.0,19.4614,19.4746,0.0,0.0,19.5565,19.6355,19.632,19.3557,19.422,19.5565,19.6714,19.9279,20.0366,19.9019,20.0203,20.1187,20.1187,20.1384,20.1944,20.352,20.3686,20.316,20.1615,20.2928,20.2173,19.9217,19.9217,19.9217,19.9217,19.9217,19.9217,19.9217,19.9217,19.9217,19.9217,20.0629,20.1187,20.1221,20.2765,20.4903,20.7632,20.7632,21.0295,21.4044,21.2465,21.2104,21.2038,21.0361,20.875,20.7796,20.7796,20.7796,20.7796,20.7796,20.7796,20.7796,20.7796,20.7796,20.7796,20.7796,20.7796,20.7796,20.7796,20.7796,20.7796,20.7796,20.7796,20.7796,20.7796,20.7796,20.7796,20.7796,20.7796,20.7796,20.7796,20.7796,20.7796,20.7796,20.7796,20.7796,20.7796,20.7796,20.7796,20.7796,20.7796,20.7796,20.7796,20.7796,20.7796,20.7796,20.7796,20.7796,20.7796,20.7796,20.7796,20.7796,20.7796,20.7796,20.7796,20.7796,20.7796,18.1785,18.1822,18.1991,18.5044,18.4481,18.4613,0.0,0.0,0.0,19.4939,19.461,19.3395,19.4548,19.6289,19.7306,19.6683,19.7867,19.8293,19.6517,19.6517,19.632,19.5368,19.6912,19.7898,19.7504,19.8853,19.9611,19.9611,20.0792,20.1944,20.352,20.4672,20.4672,20.316,20.3357,20.2173,19.9217,19.9217,19.9217,19.9217,19.9217,19.9217,19.9217,19.9217,19.9217,19.9217,19.9642,19.9611,19.984,20.1155,20.3522,20.6054,20.6054,20.8783,21.2499,21.092,21.1117,21.1907,20.9177,20.7994,20.7796,20.7796,20.7796,20.7796,20.7796,20.7796,20.7796,20.7796,20.7796,20.7796,20.7796,20.7796,20.7796,20.7796,20.7796,20.7796,20.7796,20.7796,20.7796,20.7796,20.7796,20.7796,20.7796,20.7796,20.7796,20.7796,20.7796,20.7796,20.7796,20.7796,20.7796,20.7796,20.7796,20.7796,20.7796,20.7796,20.7796,20.7796,20.7796,20.7796,20.7796,20.7796,20.7796,20.7796,20.7796,20.7796,20.7796,20.7796,20.7796,20.7796,20.7796,20.7796,17.8403,17.9098,17.9952,18.1493,18.294,0.0,0.0,18.9384,19.0897,19.6153,19.5333,19.4351,19.649,19.6324,19.6517,19.7867,19.8064,19.7867,19.7271,19.767,19.7701,19.6157,19.7275,19.8293,19.8293,19.8853,19.9642,20.0203,20.1549,20.316,20.4509,20.5298,20.5265,20.4672,20.4672,20.3128,20.0366,20.0397,20.0037,19.9217,19.9217,19.9217,19.9217,19.9217,19.9217,19.9217,19.9217,19.9217,19.9217,20.0037,20.2372,20.5692,20.5692,20.8388,21.2236,21.2268,21.1643,21.092,21.0328,20.898,20.7796,20.7796,20.7796,20.7796,20.7796,20.7796,20.7796,20.7796,20.7796,20.7796,20.7796,20.7796,20.7796,20.7796,20.7796,20.7796,20.7796,20.7796,20.7796,20.7796,20.7796,20.7796,20.7796,20.7796,20.7796,20.7796,20.7796,20.7796,20.7796,20.7796,20.7796,20.7796,20.7796,20.7796,20.7796,20.7796,20.7796,20.7796,20.7796,20.7796,20.7796,20.7796,20.7796,20.7796,20.7796,20.7796,20.7796,20.7796,20.7796,20.7796,20.7796,20.7796,17.5575,17.6796,17.8309,17.8008,18.1427,0.0,18.6359,18.9348,19.2768,19.5894,19.5763,19.5535,19.7902,19.6915,19.6324,19.8459,19.8064,19.7504,19.7504,19.8459,19.8853,19.7701,19.8428,19.9445,19.9642,19.9611,20.0234,20.1779,20.2897,20.4146,20.5626,20.5857,20.5857,20.5692,20.5692,20.4311,20.1352,20.1352,20.0629,19.9217,19.9217,19.9217,19.9217,19.9217,19.9217,19.9217,19.9217,19.9217,19.9217,19.9217,20.1583,20.5232,20.5232,20.8027,21.1874,21.3024,21.2071,21.0131,21.1282,21.0131,20.7796,20.7796,20.7796,20.7796,20.7796,20.7796,20.7796,20.7796,20.7796,20.7796,20.7796,20.7796,20.7796,20.7796,20.7796,20.7796,20.7796,20.7796,20.7796,20.7796,20.7796,20.7796,20.7796,20.7796,20.7796,20.7796,20.7796,20.7796,20.7796,20.7796,20.7796,20.7796,20.7796,20.7796,20.7796,20.7796,20.7796,20.7796,20.7796,20.7796,20.7796,20.7796,20.7796,20.7796,20.7796,20.7796,20.7796,20.7796,20.7796,20.7796,20.7796,20.7796,17.5049,17.4654,17.4786,17.844,17.9887,0.0,18.6915,18.8493,19.0006,19.4154,19.4943,19.4943,19.5175,19.7082,19.8459,19.7504,19.8262,19.9051,19.9051,19.9085,19.9248,19.9051,19.9248,19.984,20.1023,20.1187,20.1779,20.316,20.352,20.4146,20.5626,20.681,20.7007,20.566,20.5692,20.4311,20.1352,20.1352,20.0629,19.9217,19.9217,19.9217,19.9217,19.9217,19.9217,19.9217,19.9217,19.9217,19.9217,19.9217,20.1023,20.3752,20.3752,20.6448,21.0131,21.0295,21.0098,20.9933,21.0131,20.9177,20.7796,20.7796,20.7796,20.7796,20.7796,20.7796,20.7796,20.7796,20.7796,20.7796,20.7796,20.7796,20.7796,20.7796,20.7796,20.7796,20.7796,20.7796,20.7796,20.7796,20.7796,20.7796,20.7796,20.7796,20.7796,20.7796,20.7796,20.7796,20.7796,20.7796,20.7796,20.7796,20.7796,20.7796,20.7796,20.7796,20.7796,20.7796,20.7796,20.7796,20.7796,20.7796,20.7796,20.7796,20.7796,20.7796,20.7796,20.7796,20.7796,20.7796,20.7796,20.7796,17.2682,17.3602,17.5246,17.8769,0.0,0.0,18.8464,19.0897,19.2869,19.5565,19.6157,19.6355,19.7275,19.6915,19.7078,19.8099,19.8853,19.9217,19.9217,19.9217,19.9217,19.9217,19.9217,19.984,20.1221,20.1352,20.1944,20.3357,20.4278,20.5067,20.5692,20.7007,20.7632,20.704,20.6778,20.589,20.3917,20.316,20.1976,20.04,19.9642,19.9217,19.9217,19.9217,19.9217,19.9217,19.9217,19.9217,19.9217,19.9217,20.1386,20.487,20.5626,20.8224,21.1479,21.3254,21.2103,21.0164,21.092,20.9704,20.7796,20.7796,20.7796,20.7796,20.7796,20.7796,20.7796,20.7796,20.7796,20.7796,20.7796,20.7796,20.7796,20.7796,20.7796,20.7796,20.7796,20.7796,20.7796,20.7796,20.7796,20.7796,20.7796,20.7796,20.7796,20.7796,20.7796,20.7796,20.7796,20.7796,20.7796,20.7796,20.7796,20.7796,20.7796,20.7796,20.7796,20.7796,20.7796,20.7796,20.7796,20.7796,20.7796,20.7796,20.7796,20.7796,20.7796,20.7796,20.7796,20.7796,20.7796,20.7796,17.2024,0.0,0.0,0.0,0.0,0.0,18.9121,19.2146,19.4548,19.6157,19.6517,19.6749,19.7867,19.6521,19.6157,19.8262,19.9051,19.9217,19.9217,19.9217,19.9217,19.9217,19.9217,20.0037,20.1747,20.1944,20.2765,20.4509,20.5626,20.6284,20.6284,20.7205,20.7796,20.7796,20.7796,20.6975,20.5692,20.4672,20.3325,20.1976,20.0989,20.0234,19.984,19.984,19.9642,19.9217,19.9217,19.9217,19.9217,19.9217,20.1352,20.4706,20.6481,20.8783,21.1447,21.4801,21.3452,21.0131,21.1676,21.0328,20.7796,20.7796,20.7796,20.7796,20.7796,20.7796,20.7796,20.7796,20.7796,20.7796,20.7796,20.7796,20.7796,20.7796,20.7796,20.7796,20.7796,20.7796,20.7796,20.7796,20.7796,20.7796,20.7796,20.7796,20.7796,20.7796,20.7796,20.7796,20.7796,20.7796,20.7796,20.7796,20.7796,20.7796,20.7796,20.7796,20.7796,20.7796,20.7796,20.7796,20.7796,20.7796,20.7796,20.7796,20.7796,20.7796,20.7796,20.7796,20.7796,20.7796,20.7796,20.8186,0.0,0.0,0.0,18.1127,18.4021,18.6586,18.8033,19.0664,19.3067,19.4548,19.4781,19.4781,19.4943,19.6092,19.7109,19.7109,19.8262,19.9217,19.9217,19.9217,19.9217,19.9217,19.9217,20.0366,20.316,20.352,20.4672,20.7402,20.7763,20.7829,20.7829,20.7829,20.7796,20.7796,20.7796,20.6975,20.5692,20.5692,20.4837,20.352,20.3357,20.2731,20.1384,20.1384,20.0563,19.9217,19.9217,19.9217,19.9217,19.9217,20.0169,20.1747,20.4706,20.6613,20.8388,21.286,21.2498,21.0131,21.1676,21.0328,20.7796,20.7796,20.7796,20.7796,20.7796,20.7796,20.7796,20.7796,20.7796,20.7796,20.7796,20.7796,20.7796,20.7796,20.7796,20.7796,20.7796,20.7796,20.7796,20.7796,20.7796,20.7796,20.7796,20.7796,20.7796,20.7796,20.7796,20.7796,20.7796,20.7796,20.7796,20.7796,20.7796,20.7796,20.7796,20.7796,20.7796,20.7796,20.7796,20.7796,20.7796,20.7796,20.7796,20.7796,20.7796,20.7796,20.7796,20.7796,20.7796,20.7796,20.7796,20.9307,17.4298,17.7059,17.9821,18.3795,18.6191,18.8033,18.945,19.2015,19.4154,19.4584,19.5535,19.6289,19.6289,19.596,19.596,19.6912,19.8262,19.9217,19.9217,19.9217,19.9217,19.9217,19.9217,20.0432,20.3323,20.3488,20.4278,20.6218,20.7205,20.7435,20.6416,20.7205,20.7796,20.7796,20.681,20.6218,20.5692,20.5692,20.5429,20.4903,20.3917,20.3323,20.2765,20.1747,20.1187,20.0629,19.9611,19.9217,19.9217,19.9217,20.0006,20.1615,20.4476,20.7205,20.9539,21.3024,21.3846,21.2826,21.2433,21.0887,20.9177,20.8158,20.7796,20.7796,20.7796,20.7796,20.7796,20.7796,20.8553,20.8947,20.7994,20.8618,20.8947,20.7994,20.7796,20.7796,20.7796,20.7796,20.7796,20.7796,20.7796,20.8158,20.8947,20.9144,20.9144,20.9144,20.9144,20.898,20.7961,20.7796,20.7796,20.7796,20.7796,20.7796,20.7796,20.7796,20.7796,20.7796,20.7796,20.7796,20.7796,20.7796,20.7796,20.7796,20.7796,20.7796,20.7796,20.7796,20.7796,20.7796,20.7796,20.8382,17.5416,17.8637,18.1493,18.5899,18.8099,18.9384,19.0305,19.2707,19.4811,19.4811,19.5535,19.6517,19.6881,19.5732,19.5171,19.6092,19.7902,19.9217,19.9217,19.9217,19.9217,19.9217,19.9217,20.0432,20.3323,20.3488,20.4278,20.6284,20.7205,20.7402,20.6481,20.7205,20.7796,20.7796,20.6416,20.5692,20.5692,20.5692,20.5692,20.5692,20.5264,20.4706,20.4278,20.3325,20.2339,20.1384,20.0432,20.0037,20.0037,19.9414,19.984,20.0989,20.3719,20.6613,20.9572,21.1906,21.3254,21.3452,21.1874,21.0493,20.8947,20.8158,20.7796,20.7796,20.7796,20.8191,20.8586,20.8586,20.9539,21.0525,20.9572,20.9704,20.9736,20.8783,20.8191,20.7796,20.7796,20.7796,20.8027,20.8356,20.8586,20.8947,21.0558,21.0722,21.0722,21.0722,21.0328,20.9539,20.8783,20.8158,20.7796,20.7796,20.7796,20.7796,20.7796,20.8734,20.8993,20.7796,20.8766,20.896,20.7796,20.7796,20.7796,20.7796,20.7796,20.7796,20.7796,20.7796,20.7796,20.7796,20.7796,20.7796,17.7811,18.0901,18.3166,18.7375,18.945,19.0472,19.0472,19.2642,19.4746,19.4746,19.4746,19.514,19.6683,19.5763,19.4746,19.4781,19.731,19.9248,19.9217,19.9217,19.9217,19.9217,19.9217,20.0432,20.3323,20.3488,20.4672,20.7632,20.7796,20.7796,20.7796,20.7796,20.7796,20.7796,20.6416,20.5692,20.5692,20.5626,20.5626,20.5692,20.7007,20.7007,20.5824,20.566,20.4082,20.1549,20.1549,20.1581,20.1221,19.9808,19.9217,19.9414,20.237,20.5035,20.7796,20.9342,21.092,21.2071,21.0756,20.9144,20.7994,20.7961,20.7961,20.7961,20.7961,20.898,21.0164,21.0164,21.1117,21.2268,21.2301,21.1282,21.0131,21.0131,20.898,20.7961,20.7961,20.8027,20.8388,20.9736,21.0164,21.0525,21.2071,21.2466,21.2466,21.2466,21.1084,21.0131,21.0164,20.8783,20.7961,20.7961,20.7796,20.7796,20.7992,21.0688,21.108,20.8413,21.0709,21.0926,20.8155,20.7829,20.7796,20.7796,20.7796,20.7796,20.7796,20.7796,20.7796,20.7796,20.7796,20.7796,17.9264,18.3203,18.5928,18.9121,19.0239,19.0472,19.0472,19.1883,19.3527,19.4548,19.3891,19.3987,19.6745,19.4974,19.3921,19.6092,19.7078,19.8095,19.9019,19.9217,19.9217,19.9217,19.9217,20.0432,20.3323,20.3488,20.4672,20.7632,20.7796,20.7796,20.7796,20.7796,20.7796,20.7796,20.6416,20.5692,20.5692,20.4672,20.4672,20.5692,20.6021,20.6613,20.7205,20.6218,20.5298,20.4476,20.4476,20.3325,20.1384,20.0958,20.0234,19.9445,20.1221,20.3719,20.6449,20.8947,21.1676,21.3846,21.3452,21.2268,21.092,20.9736,20.9342,20.9342,20.9342,21.0493,21.171,21.171,21.2663,21.3649,21.2465,21.2828,21.3057,21.1874,21.0493,20.9342,20.9342,21.0295,21.1249,21.1644,21.171,21.2071,21.3649,21.3846,21.3846,21.3846,21.3418,21.2826,21.1907,21.0361,20.9342,20.9342,20.8388,20.8802,21.0864,21.1846,21.2855,21.4373,21.3063,21.187,21.1111,20.8958,20.7796,20.7796,20.7796,20.7796,20.7796,20.7796,20.7796,20.7796,20.7796,20.7796,17.6515,18.1653,18.5965,18.8858,19.0042,19.0472,19.0472,19.162,19.3067,19.4386,19.3628,19.3132,19.4776,19.425,19.4119,19.5732,19.6714,19.7732,19.9051,19.9217,19.9217,19.9217,19.9217,20.0432,20.3323,20.3488,20.4672,20.7632,20.7796,20.7796,20.7796,20.7796,20.7796,20.7796,20.6416,20.5692,20.5692,20.3522,20.3357,20.4706,20.5265,20.6054,20.681,20.6613,20.6613,20.6645,20.5857,20.4674,20.3128,20.1976,20.0989,20.0234,20.0432,20.2504,20.5824,20.681,20.9769,21.342,21.2629,21.2235,21.2104,21.1282,21.0953,21.0953,21.0953,21.2071,21.3222,21.3222,21.4175,21.5161,21.4406,21.4241,21.4241,21.342,21.2071,21.1117,21.1709,21.2071,21.2236,21.2236,21.2828,21.3649,21.5195,21.5359,21.5359,21.5359,21.4833,21.4175,21.3254,21.1874,21.0756,20.99,20.9736,21.0545,21.2095,21.399,21.5533,21.6732,21.6345,21.5005,21.2451,21.0719,20.915,20.7763,20.7796,20.7796,20.7796,20.7796,20.7796,20.7796,20.7796,20.7796,17.3958,17.952,18.5044,18.7967,18.9581,19.0472,19.0472,19.1423,19.2738,19.4154,19.3395,19.2409,19.2606,19.3496,19.4285,19.4386,19.5763,19.7306,19.8691,19.9019,19.9217,19.9217,19.9217,20.0432,20.3323,20.3488,20.4672,20.7632,20.7796,20.7796,20.7796,20.7796,20.7796,20.7796,20.6613,20.589,20.5692,20.293,20.2141,20.3323,20.4509,20.5265,20.566,20.704,20.7599,20.7829,20.6481,20.589,20.5495,20.293,20.1779,20.1221,20.0037,20.1944,20.5232,20.4114,20.7435,21.2104,21.092,21.1479,21.2465,21.2465,21.2465,21.2465,21.2465,21.3617,21.4602,21.4602,21.5556,21.6542,21.6542,21.5556,21.4602,21.4602,21.3814,21.3222,21.4438,21.3649,21.2828,21.2828,21.3846,21.4996,21.6345,21.6542,21.6542,21.6542,21.559,21.4602,21.4602,21.3452,21.2104,21.0722,21.1479,21.2628,21.3403,21.6737,21.8702,21.8305,22.0028,21.8683,21.3615,21.2646,21.1122,20.8775,20.8776,20.8549,20.7994,20.7994,20.7994,20.7796,20.7796,20.7796,18.1822,18.4913,18.6557,18.9384,19.0305,19.0472,19.0472,19.0699,19.1291,19.2738,19.1883,19.1225,19.2409,19.1883,19.162,19.2804,19.425,19.5763,19.7306,19.8459,19.9217,19.9217,19.9217,20.0432,20.3323,20.3488,20.4672,20.7632,20.7796,20.7796,20.7796,20.7796,20.7796,20.7796,20.7632,20.681,20.5692,20.3917,20.2731,20.1779,20.1944,20.3325,20.5692,20.5857,20.6613,20.7796,20.7632,20.6843,20.5692,20.5068,20.3522,20.1384,20.1187,20.2141,20.3917,20.4903,20.8191,21.2433,21.3221,21.3846,21.4044,21.4044,21.4044,21.4044,21.4044,21.503,21.6148,21.6148,21.6345,21.6542,21.6542,21.6345,21.6148,21.6148,21.5951,21.5985,21.6182,21.5951,21.5753,21.5753,21.5951,21.6379,21.6576,21.6542,21.6542,21.6542,21.6345,21.6148,21.6148,21.4964,21.3978,21.3615,21.2828,21.4193,21.928,21.9259,22.0826,22.5636,22.2783,22.0645,21.9465,21.4823,21.2663,21.3223,21.3223,21.2082,20.9539,20.9539,20.898,20.7796,20.7796,20.7796,18.1566,18.4163,18.5892,18.6044,18.7674,18.9962,19.2102,19.1558,19.0897,19.2343,19.208,19.1817,19.2475,19.208,19.208,19.3527,19.4351,19.5368,19.6912,19.8262,19.9217,19.9217,19.9217,20.0006,20.2141,20.3094,20.4507,20.6449,20.7435,20.7796,20.7796,20.7796,20.7796,20.7796,20.7796,20.7402,20.6843,20.5298,20.3917,20.2568,20.1779,20.2173,20.3522,20.4278,20.5298,20.6646,20.7402,20.7402,20.6646,20.6021,20.4903,20.3522,20.1944,20.237,20.3522,20.4278,20.6843,21.0328,21.2465,21.3846,21.457,21.5193,21.5556,21.5556,21.5556,21.5951,21.6542,21.6542,21.6542,21.6542,21.6542,21.6542,21.6542,21.6542,21.6542,21.6542,21.6542,21.6542,21.6542,21.6542,21.6542,21.6542,21.6542,21.6542,21.6542,21.6542,21.6542,21.6542,21.6542,21.5951,21.5227,21.4404,21.4438,21.635,22.0847,22.1191,22.3129,22.7651,22.5705,22.3526,22.1192,21.8287,21.749,21.9033,21.7718,21.5753,21.3453,21.5174,21.3406,20.898,21.2254,21.2462,18.102,18.3592,18.5822,18.423,18.606,18.934,19.3296,19.2276,19.1011,19.2717,19.2826,19.2541,19.2212,19.2409,19.2869,19.3694,19.4088,19.4746,19.6355,19.7867,19.8822,19.9248,19.9217,19.984,20.1221,20.2731,20.408,20.5463,20.7007,20.7796,20.7796,20.7796,20.7796,20.7796,20.7796,20.7796,20.7796,20.6416,20.51,20.3917,20.2568,20.1779,20.1418,20.3128,20.4475,20.5298,20.6613,20.7632,20.7829,20.6613,20.5857,20.5495,20.3128,20.293,20.3949,20.3718,20.5429,20.8586,21.0887,21.286,21.4602,21.6182,21.6542,21.6542,21.6542,21.6542,21.6542,21.6542,21.6542,21.6542,21.6542,21.6542,21.6542,21.6542,21.6542,21.6542,21.6542,21.6542,21.6542,21.6542,21.6542,21.6542,21.6542,21.6542,21.6542,21.6542,21.6542,21.6542,21.6542,21.6542,21.6182,21.4964,21.6529,21.8657,22.2002,22.3531,22.5673,22.8601,22.8232,22.6245,22.2547,22.2756,22.3565,22.449,22.2221,22.0068,21.8265,22.0606,21.868,21.2471,21.7319,21.7724,18.6139,18.7787,18.8387,18.9444,18.9055,18.9174,19.2143,19.1633,19.1241,19.3872,19.3439,19.2212,19.0962,19.1751,19.2212,19.1094,19.2015,19.333,19.4746,19.6355,19.767,19.9019,19.9217,19.984,20.1221,20.2731,20.408,20.5463,20.7007,20.7796,20.7796,20.7796,20.7796,20.7796,20.7796,20.7796,20.7796,20.6416,20.5626,20.5495,20.408,20.2536,20.1418,20.4343,20.487,20.3719,20.5232,20.6613,20.7796,20.7599,20.681,20.5692,20.5429,20.5265,20.5298,20.3917,20.6251,20.9736,21.0164,21.2071,21.4602,21.6182,21.6542,21.6542,21.6542,21.6542,21.6542,21.6542,21.6542,21.6542,21.6542,21.6542,21.6542,21.6542,21.6542,21.6542,21.6542,21.6542,21.6542,21.6542,21.6542,21.6542,21.6542,21.6542,21.6542,21.6542,21.6542,21.6542,21.6542,21.6542,21.6576,21.6345,21.8848,22.1774,22.5117,22.6677,22.8812,23.1875,22.9374,22.762,22.7201,22.8578,22.878,22.7622,22.7409,22.5864,22.2929,22.3117,22.2384,22.0458,22.1025,22.1,18.425,18.5911,18.6643,18.6348,18.6663,18.7375,18.8529,18.9647,19.1059,19.2992,19.232,19.1686,19.2839,19.2146,19.1751,19.2905,19.2804,19.3132,19.4548,19.6157,19.7701,19.9019,19.9217,19.9414,20.0037,20.2173,20.3752,20.4343,20.6416,20.7796,20.7796,20.7796,20.7796,20.7796,20.7796,20.7796,20.7796,20.7205,20.6449,20.5692,20.51,20.4509,20.3885,20.5068,20.5265,20.487,20.5429,20.6481,20.7796,20.7796,20.7402,20.681,20.6021,20.5692,20.5626,20.5067,20.589,20.7796,21.0328,21.2071,21.3452,21.5753,21.6542,21.6542,21.6542,21.6542,21.6542,21.6542,21.6542,21.6542,21.6542,21.6542,21.6542,21.6542,21.6542,21.6542,21.6542,21.6542,21.6542,21.6542,21.6542,21.6542,21.6542,21.6542,21.6542,21.6542,21.6542,21.6542,21.6542,21.6542,21.6542,21.6542,21.9274,22.2346,22.549,22.8034,23.0357,23.2326,23.1323,23.0538,23.0538,23.0324,23.0362,23.0718,23.0764,22.9768,22.7616,22.9569,22.7841,22.2752,22.6485,22.664,18.2711,18.3928,18.5105,18.5733,18.5445,18.5306,18.6463,18.7727,18.9121,19.0962,19.1225,19.1721,19.3759,19.2541,19.1817,19.3825,19.2935,19.2475,19.3957,19.5337,19.6946,19.8459,19.9051,19.9217,19.9217,20.1747,20.3488,20.3488,20.6251,20.7796,20.7796,20.7796,20.7796,20.7796,20.7796,20.7796,20.7796,20.7796,20.7205,20.6252,20.6252,20.6252,20.6252,20.6252,20.6087,20.566,20.6054,20.6613,20.7205,20.7599,20.7796,20.7599,20.6613,20.6252,20.6218,20.5824,20.5857,20.681,21.0295,21.1907,21.2696,21.5556,21.6542,21.6542,21.6542,21.6542,21.6542,21.6542,21.6542,21.6542,21.6542,21.6542,21.6542,21.6542,21.6542,21.6542,21.6542,21.6542,21.6542,21.6542,21.6542,21.6542,21.6542,21.6542,21.6542,21.6542,21.6542,21.6542,21.6542,21.6542,21.6542,21.6542,22.0042,22.334,22.5508,22.9396,23.2096,23.3228,23.2679,23.2702,23.3273,23.2108,23.2108,23.3273,23.3273,23.2666,23.1722,23.3874,23.2314,22.7027,23.1328,23.1481,18.2932,18.331,18.4634,19.0196,18.6742,18.3043,18.7052,18.5993,18.4978,18.7836,19.0664,19.2606,19.2672,19.2606,19.2606,19.2672,19.1423,19.1028,19.2475,19.3891,19.5337,19.6912,19.849,19.9217,19.9217,20.1747,20.3488,20.3488,20.6251,20.7796,20.7796,20.7796,20.7796,20.7796,20.7796,20.7796,20.7796,20.7796,20.7796,20.7829,20.7829,20.7829,20.7829,20.7829,20.7007,20.566,20.7237,20.7007,20.5824,20.7205,20.7796,20.7796,20.7796,20.7829,20.7599,20.6218,20.6645,20.7994,20.9572,21.092,21.2696,21.5556,21.6542,21.6542,21.6542,21.6542,21.6542,21.6542,21.6542,21.6542,21.6542,21.6542,21.6542,21.6542,21.6542,21.6542,21.6542,21.6542,21.6542,21.6542,21.6542,21.6542,21.6542,21.6542,21.6542,21.6542,21.6542,21.6542,21.6542,21.6542,21.6542,21.6542,22.1946,22.5651,22.568,23.1303,23.501,23.5034,23.3487,23.3273,23.4986,23.5034,23.5034,23.5034,23.5034,23.5034,23.501,23.5034,23.501,23.4821,23.501,23.5034,18.1695,18.1244,18.1211,18.9277,18.6583,18.2977,18.7012,18.5954,18.4913,18.777,18.8296,18.8858,19.0831,19.116,19.1817,19.3759,19.205,19.1327,19.3759,19.4579,19.5337,19.6912,19.849,19.9217,19.9217,20.0958,20.2534,20.352,20.5232,20.6843,20.7829,20.7796,20.7796,20.7796,20.7796,20.7796,20.7796,20.7796,20.7796,20.7796,20.7796,20.7796,20.7796,20.7796,20.7632,20.7237,20.7632,20.7632,20.7237,20.7599,20.7796,20.7796,20.7796,20.7796,20.7829,20.7205,20.7402,20.7994,20.9309,21.0953,21.2664,21.4438,21.5753,21.6542,21.6542,21.6542,21.6542,21.6542,21.6542,21.6542,21.6542,21.6542,21.6542,21.6542,21.6542,21.6542,21.6542,21.6542,21.6542,21.6542,21.6542,21.6542,21.6542,21.6542,21.6542,21.6542,21.6542,21.6542,21.6542,21.6542,21.6542,21.6542,22.1977,22.568,22.568,23.1328,23.5034,23.5034,23.4463,23.4391,23.5034,23.5034,23.5034,23.5034,23.5034,23.5034,23.5034,23.5034,23.5034,23.5034,23.5034,23.5034,18.0213,18.0935,18.1863,18.8032,18.5202,18.1929,18.5968,18.4865,18.3802,18.6749,18.7354,18.82,19.0752,19.2143,19.3258,19.46,19.3299,19.2379,19.3036,19.4088,19.514,19.6092,19.7472,19.8656,19.9248,20.0595,20.1944,20.3357,20.487,20.6252,20.7829,20.7796,20.7796,20.7796,20.7796,20.7796,20.7796,20.7796,20.7796,20.7796,20.7796,20.7796,20.7796,20.7796,20.7796,20.7796,20.7796,20.7796,20.7796,20.7796,20.7796,20.7796,20.7796,20.7796,20.7796,20.7796,20.7796,20.7994,20.9309,21.0953,21.2499,21.3978,21.5359,21.6542,21.6542,21.6542,21.6542,21.6542,21.6542,21.6542,21.6542,21.6542,21.6542,21.6542,21.6542,21.6542,21.6542,21.6542,21.6542,21.6542,21.6542,21.6542,21.6542,21.6542,21.6542,21.6542,21.6542,21.6542,21.6542,21.6542,21.6542,21.6542,22.099,22.487,22.7246,23.2074,23.5034,23.5034,23.5034,23.5034,23.5034,23.5034,23.5034,23.5034,23.5034,23.5034,23.5034,23.5034,23.5034,23.5034,23.5034,23.5034,17.8634,18.181,18.5071,18.6705,18.3559,18.1014,18.4415,18.3111,18.2083,18.527,18.7516,18.9699,19.2237,19.4757,19.6132,19.5001,19.4811,19.3891,19.1327,19.3365,19.514,19.514,19.6517,19.7898,19.9019,20.0432,20.1747,20.3323,20.4706,20.6054,20.7632,20.7829,20.7796,20.7796,20.7796,20.7796,20.7796,20.7796,20.7796,20.7796,20.7796,20.7796,20.7796,20.7796,20.7796,20.7796,20.7961,20.7796,20.7796,20.7961,20.7796,20.7796,20.7796,20.7796,20.7796,20.7796,20.7796,20.7994,20.9375,21.0722,21.2268,21.3846,21.5227,21.6345,21.6576,21.6542,21.6542,21.6542,21.6542,21.6542,21.6542,21.6542,21.6542,21.6542,21.6542,21.6542,21.6542,21.6542,21.6542,21.6542,21.6542,21.6542,21.6542,21.6542,21.6542,21.6542,21.6542,21.6542,21.6542,21.6542,21.6542,21.6542,21.9274,22.3558,22.9545,23.2859,23.4846,23.5034,23.5034,23.5034,23.5034,23.5034,23.5034,23.5034,23.5034,23.5034,23.5034,23.5034,23.5034,23.5034,23.5034,23.5034,17.8784,17.9562,18.0102,18.5403,18.842,18.9462,18.7191,18.3834,18.2557,18.7455,18.6556,18.705,19.4111,19.4274,19.3664,19.4576,19.4811,19.4943,19.553,19.7078,19.8262,19.8262,19.9445,20.0037,19.9217,19.9642,20.0366,20.1779,20.3128,20.4672,20.6054,20.7205,20.7796,20.7796,20.7796,20.7796,20.7796,20.7796,20.7796,20.7796,20.7796,20.7796,20.7796,20.7796,20.7796,20.7796,20.898,20.875,20.7796,20.8947,20.8783,20.7796,20.7796,20.7796,20.7796,20.7796,20.7796,20.7796,20.8191,20.9342,21.0722,21.2268,21.3814,21.5161,21.6148,21.6542,21.6542,21.6542,21.6542,21.6542,21.6542,21.6542,21.6542,21.6542,21.6542,21.6542,21.6542,21.6542,21.6542,21.6542,21.6542,21.6542,21.6542,21.6542,21.6542,21.6542,21.6542,21.6542,21.6542,21.6542,21.6542,21.6542,21.9274,22.2553,22.6489,22.9608,23.2514,23.4845,23.5034,23.5034,23.5034,23.5034,23.5034,23.5034,23.5034,23.5034,23.5034,23.5034,23.5034,23.5034,23.5034,23.5034,17.5068,17.8438,18.1278,18.3316,18.5188,18.6083,18.4503,18.2797,18.212,18.4187,18.5301,18.7607,19.3332,19.3213,19.3389,19.6891,19.5956,19.5171,19.596,19.6749,19.7704,19.9019,19.9411,19.9674,20.0234,19.9642,19.984,20.1221,20.2765,20.4146,20.5626,20.7007,20.7796,20.7796,20.7796,20.7796,20.7796,20.7796,20.8224,20.8783,20.8158,20.8224,20.8783,20.8158,20.7796,20.7796,20.9375,20.9177,20.7961,20.9342,20.9177,20.7796,20.7796,20.7796,20.7796,20.7796,20.7796,20.7796,20.7796,20.8783,21.0131,21.0887,21.2663,21.457,21.5359,21.5951,21.6542,21.6542,21.6542,21.6542,21.6542,21.6542,21.6542,21.6542,21.6542,21.6542,21.6542,21.6542,21.6542,21.6542,21.6542,21.6542,21.6542,21.6542,21.6542,21.6542,21.6542,21.6542,21.6542,21.6542,21.7155,21.8524,22.1429,22.45,22.762,23.0758,23.327,23.4797,23.5034,23.5034,23.5034,23.5034,23.5034,23.5034,23.5034,23.5034,23.5034,23.5034,23.5034,23.5034,23.5034,23.5034,17.131,17.823,18.4218,18.1585,18.0414,18.0181,18.1284,18.1649,18.1371,17.9911,18.3717,18.8272,19.1429,19.1999,19.3711,19.9217,19.7117,19.4781,19.5171,19.514,19.6126,19.8822,19.8064,19.849,20.0826,20.0037,19.984,20.0958,20.2568,20.408,20.5298,20.681,20.7796,20.7796,20.7796,20.7796,20.7796,20.7796,20.8388,20.9539,20.8388,20.8388,20.9539,20.8388,20.7796,20.7796,20.9375,20.9177,20.7961,20.9342,20.9177,20.7796,20.7796,20.7796,20.7796,20.7796,20.7796,20.7796,20.7796,20.8586,20.9506,20.9933,21.1643,21.3813,21.4207,21.5193,21.6148,21.6148,21.6345,21.6542,21.6542,21.6542,21.6542,21.6542,21.6542,21.6542,21.6542,21.6542,21.6542,21.6542,21.6542,21.6542,21.6542,21.6542,21.6542,21.6542,21.6542,21.6542,21.6542,21.692,21.8293,22.0833,22.4323,22.7467,23.0168,23.327,23.5034,23.5034,23.5034,23.5034,23.5034,23.5034,23.5034,23.5034,23.5034,23.5034,23.5034,23.5034,23.5034,23.5034,23.5034,23.5034,17.4349,17.8937,18.2106,18.2448,18.4905,18.6889,18.5904,18.3112,18.108,18.213,18.1463,18.3005,19.0498,19.1089,19.194,19.6492,19.5926,19.5206,19.6486,19.6683,19.7275,19.9019,19.9019,19.9019,19.9414,19.9445,19.9282,19.9642,20.1944,20.3522,20.3915,20.6448,20.7796,20.7796,20.7796,20.7796,20.7796,20.7796,20.7961,20.8224,20.7961,20.7961,20.8158,20.7961,20.7796,20.7796,20.9375,20.9177,20.7961,20.9342,20.9177,20.7796,20.7796,20.7796,20.7796,20.7796,20.7796,20.7796,20.7796,20.8027,20.8421,20.9539,21.0328,21.1117,21.3615,21.457,21.4767,21.4767,21.5556,21.6542,21.6542,21.6542,21.6542,21.6542,21.6542,21.6542,21.6542,21.6542,21.6542,21.6542,21.6542,21.6542,21.6542,21.6542,21.6542,21.6542,21.6542,21.6542,21.6542,21.8719,22.045,22.0986,22.6303,22.9766,23.0351,23.327,23.5034,23.5034,23.5034,23.5034,23.5034,23.5034,23.5034,23.5034,23.5034,23.5034,23.5034,23.5034,23.5034,23.5034,23.5034,23.5034,17.2697,17.7026,18.0824,18.2677,18.328,18.3456,18.3617,18.1995,18.0426,18.0017,17.95,18.103,18.7458,18.7631,18.88,19.4544,19.5167,19.5009,19.5763,19.5894,19.6749,19.9051,19.8493,19.8656,20.0234,19.9611,19.9217,19.9217,20.1155,20.2765,20.352,20.5429,20.7007,20.7829,20.7796,20.7796,20.7796,20.8586,20.898,20.898,20.8191,20.8191,20.898,20.8191,20.7796,20.7796,20.9375,20.9539,20.8947,20.9769,20.9539,20.898,20.8158,20.7796,20.7796,20.7796,20.7796,20.7796,20.7796,20.7796,20.7961,20.8586,20.9375,21.0131,21.1478,21.2071,21.2103,21.3057,21.4241,21.5359,21.5359,21.5359,21.5556,21.6345,21.5951,21.5556,21.6345,21.6542,21.6542,21.6542,21.6542,21.6542,21.6542,21.6542,21.6542,21.6542,21.6542,21.6542,21.6542,21.9275,22.1766,22.3332,22.7605,23.1137,23.2641,23.4231,23.5034,23.5034,23.5034,23.5034,23.5034,23.5034,23.4629,23.363,23.363,23.4035,23.5034,23.5034,23.5034,23.5034,23.4035,23.363,17.2484,0.0,18.0657,18.276,18.1576,18.0096,0.0,18.0831,17.996,17.7912,17.838,18.0431,18.4678,18.4958,18.6552,19.2617,19.4296,19.4584,19.4351,19.4974,19.6355,19.8888,19.8262,19.8622,20.1187,20.0006,19.9217,19.9217,20.0563,20.1944,20.352,20.4903,20.6252,20.7829,20.8224,20.8355,20.8355,20.9342,20.9933,20.9933,20.8553,20.8388,20.9342,20.8355,20.7994,20.8388,20.9177,20.9736,21.0493,20.9736,20.9506,20.9736,20.8388,20.7796,20.7796,20.7796,20.7796,20.7796,20.7796,20.7796,20.7796,20.7796,20.8586,20.9539,20.9769,20.9933,21.0131,21.1282,21.3263,21.4816,21.4048,21.4384,21.5213,21.5791,21.5161,21.4833,21.6148,21.6542,21.6542,21.6542,21.6542,21.6542,21.6542,21.6542,21.6542,21.6542,21.6542,21.6717,21.7527,22.0266,22.334,22.6489,22.9555,23.2464,23.4799,23.5034,23.5034,23.5034,23.5034,23.482,23.4391,23.4391,23.363,23.1894,23.1894,23.2465,23.3821,23.3821,23.3821,23.3821,23.2465,23.1894,0.0,18.0375,18.2005,18.3028,18.3175,18.2678,18.1426,18.1176,0.0,17.7989,17.8609,18.0527,18.3651,18.5255,18.7105,19.0274,19.3057,19.4285,19.2935,19.5171,19.7504,19.9019,19.9248,19.9611,20.1221,20.0006,19.9217,19.9217,20.0563,20.1944,20.352,20.4903,20.6252,20.7829,20.9177,20.9736,20.9736,20.9933,20.9933,20.9933,20.8553,20.7796,20.8027,20.7796,20.8586,20.9736,20.8553,20.9539,21.1907,20.9145,20.8783,20.9736,20.8388,20.7796,20.7796,20.7796,20.7796,20.7796,20.7796,20.7796,20.7796,20.7796,20.7796,20.8191,20.9539,20.9933,20.9933,21.0164,21.3008,21.5723,21.3066,21.44,21.6129,21.4781,21.4404,21.4833,21.6148,21.6542,21.6542,21.6542,21.6542,21.6542,21.6542,21.6542,21.6542,21.6542,21.6542,21.7495,22.0425,22.3362,22.6671,22.98,23.2881,23.4846,23.5034,23.5034,23.5034,23.5034,23.5034,23.4249,23.2679,23.2702,23.1894,23.0324,23.0324,23.0324,23.0538,23.0538,23.0538,23.0538,23.0324,23.0324,18.0901,18.2808,18.4479,18.3947,18.31,18.2332,18.1734,18.2147,18.2157,18.0601,18.0469,18.1379,18.3651,18.4518,18.6162,18.988,19.2905,19.4943,19.5399,19.632,19.6881,19.6521,19.7275,19.8064,19.8687,19.984,20.0234,19.9217,19.984,20.0629,20.2173,20.3522,20.5067,20.6416,20.7764,20.8586,20.8586,20.9572,20.9572,20.8586,20.7994,20.7796,20.7796,20.7796,20.8158,20.8586,20.7994,20.9539,0.0,20.898,20.9177,21.1084,20.875,20.7796,20.7796,20.7796,20.7796,20.7796,20.7796,20.7796,20.7796,20.7796,20.7796,20.7961,20.8388,20.8586,20.8586,20.8586,21.1867,21.4987,21.3846,21.4405,21.5359,21.5588,21.3623,21.2235,21.4602,21.5227,21.559,21.6345,21.6542,21.6542,21.6542,21.6542,21.6542,21.6542,21.6542,21.7695,22.0608,22.3721,22.6814,22.9993,23.3079,23.5034,23.5034,23.5034,23.4629,23.3464,23.3487,23.2679,23.1109,23.1132,23.0324,22.8803,22.9588,22.9754,22.8826,22.9754,23.0182,23.0182,22.9183,22.8826,18.1362,18.3006,18.4584,18.3663,18.2282,18.1324,18.1851,18.2105,18.2289,18.2579,18.2398,18.2901,18.5026,18.5439,18.6557,18.9976,19.2905,19.4943,19.5565,19.6517,19.6714,19.5535,19.6517,19.7109,19.7109,19.9248,20.04,20.0037,19.9808,20.0563,20.1944,20.2568,20.3357,20.4311,20.6645,20.7796,20.7796,20.9144,20.9309,20.8356,20.7994,20.7796,20.7796,20.7796,20.7994,20.8388,20.7994,20.9539,21.2038,20.898,20.9342,21.1282,20.8783,20.7796,20.7796,20.7796,20.7796,20.7796,20.7796,20.7796,20.7796,20.7796,20.7796,20.7796,20.7796,20.7796,20.7796,20.7796,21.1289,21.5006,21.3987,21.4401,21.5149,21.5777,21.2833,21.0756,21.3254,21.3814,21.4044,21.4964,21.5556,21.5985,21.5985,21.6148,21.6542,21.6542,21.6542,21.7695,22.0608,22.3721,22.6814,22.9993,23.3079,23.482,23.4249,23.4249,23.3464,23.1917,23.168,23.1132,22.954,22.9374,22.8589,22.702,22.8184,22.8184,22.702,22.8184,22.8612,22.8612,22.7613,22.702,17.9229,18.077,18.1982,18.1916,18.077,18.0084,18.1588,18.0798,18.0507,18.3466,18.4123,18.5007,18.7836,18.8296,18.8822,19.0239,19.2839,19.422,19.2869,19.5171,19.7109,19.7109,19.7109,19.7109,19.7109,19.823,19.984,20.1221,20.1384,20.1944,20.3357,20.2173,20.1352,20.1352,20.5429,20.7829,20.7829,20.9144,20.9933,20.9933,20.8356,20.7796,20.7796,20.7796,20.8586,20.9769,20.8388,20.9539,21.2038,20.898,20.8553,20.9736,20.8388,20.7796,20.7796,20.7796,20.7829,20.7796,20.7796,20.7796,20.7796,20.7829,20.7796,20.7829,20.7796,20.7796,20.7796,20.7829,21.2082,21.5927,21.3033,21.4614,21.6395,21.4799,21.2098,21.0295,21.1907,21.2236,21.2236,21.2236,21.3452,21.4438,21.4438,21.5556,21.6576,21.6576,21.6576,21.7695,22.0639,22.3751,22.6842,23.0116,23.3079,23.4249,23.2702,23.2488,23.1917,23.0182,23.0182,22.9374,22.7804,22.7804,22.702,22.5472,22.5495,22.5495,22.5495,22.5495,22.5495,22.5495,22.5495,22.5495,17.8534,18.1427,18.4481,18.2442,18.2348,18.2582,18.2048,18.2956,18.3904,18.4029,18.5545,18.6821,18.6835,18.6849,18.7674,19.0108,19.1195,19.2313,19.3891,19.5925,19.632,19.4215,19.4746,19.5565,19.5565,19.596,19.7113,19.9611,19.9808,20.0006,20.04,20.0006,20.0366,20.1384,20.2536,20.3719,20.4706,20.6218,20.7007,20.7007,20.7632,20.7796,20.7796,20.7796,20.7994,20.8388,20.7994,20.8947,21.0493,20.8586,20.8553,20.9736,20.8388,20.7796,20.7796,20.7796,20.915,21.0864,21.0864,21.0864,21.1265,21.3448,21.1301,20.8187,21.0314,21.0864,21.0532,20.8348,20.9185,21.1301,21.4614,21.7509,21.9059,21.6519,21.3866,21.151,21.0724,21.069,21.0953,21.2104,21.263,21.286,21.286,21.3222,21.3846,21.4799,21.4996,21.7329,22.3533,22.5103,22.7812,23.3077,23.4445,23.4249,23.2702,23.2488,23.1323,22.8589,22.8612,22.7804,22.6257,22.6257,22.5901,22.5495,22.5495,22.5495,22.5495,22.5495,22.5495,22.5495,22.5495,22.5495,17.7942,18.0901,18.4087,18.2377,18.2085,18.2254,18.1982,18.2668,18.3415,18.3972,18.5291,18.6392,18.6249,18.6717,18.7638,18.9384,19.0568,19.1751,19.2905,19.4382,19.4579,19.2834,19.2905,19.3299,19.3825,19.4386,19.5732,19.8293,19.9445,19.984,19.9217,19.9217,19.9642,20.04,20.0992,20.1747,20.2731,20.4146,20.51,20.5692,20.6449,20.7205,20.7796,20.7796,20.7796,20.7796,20.8956,20.9391,20.9145,20.9319,21.0159,21.0725,20.996,21.0345,21.129,21.129,21.2466,21.4024,21.4024,21.4024,21.4412,21.6191,21.4218,21.19,21.4783,21.4209,21.1839,21.0161,20.8736,20.896,21.3674,21.7144,21.905,21.8472,21.5182,21.2053,21.1103,20.9928,20.9375,21.0328,21.0887,21.1282,21.1282,21.1907,21.2664,21.3452,21.3617,21.5571,22.1382,22.3694,22.6634,23.1742,23.2642,23.2465,23.0752,23.0538,22.954,22.702,22.6806,22.6471,22.5472,22.5495,22.5495,22.5495,22.5495,22.5495,22.5495,22.5495,22.5495,22.5495,22.5495,22.5495,17.75,17.9746,18.2114,18.1982,18.0967,18.0413,18.1851,18.0967,18.0676,18.3634,18.4292,18.462,18.5833,18.7309,18.8362,18.8362,19.0532,19.1883,19.0831,19.1817,19.2606,19.2606,19.162,19.1357,19.2541,19.4022,19.5565,19.6486,19.9445,20.0563,19.9019,19.9248,19.9217,19.9217,20.04,20.1155,20.1155,20.2568,20.3917,20.5298,20.5429,20.6054,20.7435,20.7435,20.7598,20.8216,21.0916,21.0736,20.8798,21.1474,21.2683,21.2683,21.2683,21.4412,21.6774,21.6774,21.6939,21.7089,21.7089,21.7089,21.7144,21.7485,21.7524,21.7721,21.9877,21.692,21.2674,21.2046,21.0332,20.9145,21.1863,21.4988,21.7917,22.0796,21.7102,21.2817,21.2451,21.0126,20.8188,20.7796,20.875,20.9736,20.9736,21.0887,21.1907,21.2038,21.2038,21.3261,21.6511,22.0622,22.4489,22.7622,22.9395,22.954,22.8018,22.7804,22.7256,22.5709,22.5495,22.5495,22.5495,22.5495,22.5495,22.5495,22.5258,22.5281,22.5281,22.5281,22.5281,22.5281,22.5495,22.5495,17.7962,18.0507,18.3334,18.2245,18.2545,18.3174,18.3597,18.248,18.2311,18.5176,18.5767,18.5504,18.4715,18.6622,18.8362,18.8362,18.8888,18.994,19.1883,19.2409,19.2606,19.2606,19.3365,19.3496,19.2738,19.4974,19.5728,19.3755,19.731,19.9051,19.7701,19.8656,19.9217,19.9217,19.9642,19.9611,19.9611,20.1187,20.1944,20.237,20.3488,20.4146,20.4475,20.4475,20.627,20.9742,21.0339,21.2285,21.4823,21.5545,21.5731,21.5731,21.5731,21.6123,21.6774,21.6774,21.8074,22.0023,22.0023,22.0023,22.0449,22.2752,22.2755,22.1199,21.8306,21.653,21.4818,21.1338,21.1686,21.3447,21.5384,21.7929,22.0802,22.3745,22.1761,21.7929,21.327,21.1687,21.0492,20.8186,20.7994,20.8191,20.8191,20.8553,20.9145,21.0295,21.0493,21.2875,21.949,22.1029,22.3326,22.7456,22.9196,22.954,22.8018,22.7804,22.7256,22.5709,22.5495,22.5495,22.5495,22.5495,22.5495,22.5495,22.4331,22.376,22.376,22.376,22.376,22.376,22.4902,22.5495,17.7956,17.9652,18.1925,18.1916,18.2508,18.3071,18.3071,18.1888,18.1493,18.3692,18.4152,18.3955,18.3203,18.5994,18.8099,18.7441,18.8493,18.991,19.1423,19.162,19.1883,19.2541,19.2738,19.297,19.3593,19.4382,19.4579,19.3724,19.5732,19.6718,19.5929,19.7504,19.8428,19.9248,19.9217,19.9217,19.9217,20.0037,20.0597,20.1352,20.2173,20.2928,20.3488,20.3488,20.5453,20.9119,21.0533,21.2448,21.4599,21.5995,21.6894,21.7684,21.7684,21.9099,22.1037,22.1037,22.1834,22.3133,22.3133,22.3133,22.3133,22.3144,22.2783,22.1612,21.9281,21.7499,21.5986,21.3596,21.3211,21.3431,21.4187,21.7112,22.0221,22.1812,22.2779,22.2003,21.7497,21.4189,21.129,20.8414,20.7796,20.7796,20.7796,20.7796,20.7994,20.875,20.898,21.1303,21.8093,21.9114,22.1039,22.6069,22.7399,22.7613,22.6828,22.6663,22.6235,22.5472,22.4688,22.4331,22.4331,22.3711,22.3118,22.3118,22.2404,22.1976,22.1976,22.1976,22.1976,22.1976,22.2926,22.3118,17.7341,17.791,17.9229,18.0798,18.139,18.1653,18.2179,18.1099,18.0413,18.2048,18.2311,18.2245,18.1982,18.5271,18.7704,18.6754,18.8595,19.0305,19.0831,19.0634,19.1028,19.2475,19.162,19.1787,19.4154,19.3527,19.3395,19.4351,19.4154,19.4154,19.4351,19.5565,19.6946,19.8459,19.8691,19.9051,19.9217,19.9217,19.984,20.1023,20.1023,20.1549,20.2765,20.2765,20.4705,20.8388,21.0688,21.2493,21.384,21.6122,21.7891,21.9087,21.9087,22.1387,22.471,22.471,22.471,22.471,22.471,22.471,22.4117,22.1427,22.0428,22.045,22.0072,21.8287,21.6364,21.5975,21.463,21.3015,21.2886,21.5929,21.9087,21.9087,22.1998,22.4099,22.1755,21.6716,21.1692,20.8379,20.7796,20.7796,20.7796,20.7796,20.7796,20.7796,20.7796,20.9937,21.5927,21.6774,21.8892,22.4095,22.5083,22.5495,22.5495,22.5281,22.5116,22.5116,22.3546,22.2761,22.2761,22.157,22.0785,22.0785,22.0664,22.0428,22.0428,22.0428,22.0428,22.0428,22.0642,22.0785,17.5594,17.5404,17.627,17.7679,17.8994,18.061,18.3203,18.2677,18.2048,18.3532,18.3766,18.34,18.2179,18.4481,18.682,18.7901,18.8427,18.9546,19.1949,19.1291,19.1028,19.2475,19.2475,19.2475,19.2869,19.3921,19.4022,19.3001,19.1751,19.162,19.2869,19.3163,19.3856,19.5337,19.6683,19.8095,19.9217,19.9217,19.9282,19.9414,19.9414,19.9642,19.984,19.984,20.3314,20.9725,21.0102,21.3844,21.9638,22.0046,22.0464,22.0606,22.0606,22.0855,22.1427,22.1427,22.1427,22.1427,22.1427,22.1427,22.1213,21.9429,21.8858,21.848,21.7103,21.653,21.5992,21.4606,21.5949,21.732,21.6136,21.8137,22.0606,22.0606,22.0993,22.1767,22.2552,21.8308,21.2865,20.8566,20.7796,20.7796,20.7796,20.7796,20.7796,20.7796,20.7796,20.9937,21.5927,21.6774,21.7886,22.1246,22.3932,22.5495,22.5495,22.4331,22.3546,22.3546,22.1976,22.1213,22.1213,22.1021,22.0785,22.0785,21.9501,21.8858,21.8858,21.8858,21.8858,21.8858,22.0214,22.0785,17.5151,17.4738,17.4938,17.5065,17.6167,17.7783,17.9915,17.9849,18.0075,18.2442,18.2188,18.1859,18.294,18.4189,18.5504,18.6915,18.7836,18.8822,19.0072,19.0371,19.0735,19.1357,19.1423,19.1751,19.2541,19.2475,19.2444,19.2606,19.1291,19.116,19.2541,19.2606,19.2935,19.3527,19.4943,19.6552,19.8095,19.8853,19.9217,19.9217,19.9217,19.9217,19.9217,19.9217,20.2779,20.8585,20.8585,21.2288,21.8288,21.8288,21.8694,21.9479,21.9479,22.0072,22.0785,22.0785,22.0785,22.0785,22.0785,21.9643,21.8123,21.7317,21.7103,21.7124,21.6318,21.6175,21.596,21.5377,21.6151,21.71,21.637,21.7902,21.9479,21.9479,22.0214,22.0999,22.1784,21.8461,21.4804,21.2065,20.9561,20.7796,20.7796,20.7796,20.7796,20.7796,20.7796,20.9769,21.4802,21.4778,21.5938,22.0469,22.1993,22.2948,22.2948,22.219,22.1762,22.1762,22.0428,21.9479,21.9479,21.8694,21.7695,21.6932,21.6147,21.534,21.4627,21.4627,21.4984,21.5933,21.6575,21.736,17.3736,17.2883,17.2384,17.2843,17.3592,17.4589,17.6035,17.6392,17.731,18.054,18.0027,17.9915,18.2825,18.3428,18.3992,18.5439,18.6557,18.7507,18.823,18.9253,18.9976,18.9976,19.0305,19.0962,19.2015,19.116,19.0962,19.2015,19.1094,19.0962,19.2015,19.208,19.208,19.208,19.3431,19.4746,19.5925,19.731,19.8099,19.8099,19.8428,19.8656,19.8656,19.9856,20.2948,20.7579,20.838,21.1264,21.5555,21.5555,21.6197,21.736,21.736,21.8073,21.9072,21.9429,21.9429,21.9094,21.8502,21.6932,21.4984,21.4984,21.4984,21.4984,21.4984,21.4984,21.4984,21.4984,21.5176,21.5555,21.5555,21.6767,21.7909,21.7909,21.8858,21.9643,22.0072,21.7922,21.5541,21.4983,21.1081,20.7804,20.7804,20.7427,20.7205,20.7205,20.7205,20.8758,21.2679,21.3048,21.462,21.9277,22.0433,22.0785,22.0785,22.0428,22.0214,22.0214,21.8266,21.736,21.736,21.5769,21.4413,21.3221,21.3221,21.265,21.1487,21.1487,21.2058,21.3221,21.3221,21.3842,17.01,16.8236,16.692,17.1362,17.1839,17.1629,17.3103,17.3432,17.4548,17.8387,17.8342,17.8314,18.0883,18.1689,18.2508,18.3992,18.4226,18.5241,18.7967,18.8427,18.8493,18.8493,18.9647,19.0538,19.0604,19.0538,19.0538,19.0604,19.0538,19.0538,19.0604,19.0634,19.0634,19.0634,19.2015,19.2804,19.2869,19.4285,19.4978,19.4978,19.6517,19.7337,19.7268,20.142,20.468,20.7779,21.0546,21.2467,21.4006,21.4006,21.4006,21.4006,21.4006,21.4006,21.4434,21.5747,21.5412,21.4006,21.2486,21.1844,21.1701,21.1701,21.1701,21.1701,21.1701,21.1701,21.1701,21.1701,21.2864,21.4006,21.4006,21.5219,21.6339,21.6339,21.6318,21.6746,21.8266,21.6178,21.4587,21.5961,21.1689,20.7829,20.7829,20.6636,20.5824,20.5824,20.5824,20.6811,20.9741,21.2696,21.4751,21.6315,21.9042,22.0785,22.0785,21.9501,21.8716,21.8716,21.579,21.4006,21.4006,21.265,21.1701,21.1701,21.1701,21.1487,21.1487,21.1487,21.1487,21.1701,21.1701,21.1701,16.6694,16.6454,16.5966,16.7621,16.8541,16.929,17.0254,17.2354,17.4725,17.7051,17.8389,17.9585,18.0846,18.0472,18.0511,18.24,18.2677,18.34,18.5373,18.6359,18.7309,18.823,18.8822,18.945,19.0406,19.0472,19.0472,19.0472,19.0472,19.0472,19.0472,18.9581,18.9151,18.9151,18.9611,19.0335,19.1225,19.2672,19.3825,19.4811,19.5337,19.5535,19.5759,19.7086,20.0374,20.4878,20.5811,20.8583,21.2436,21.3435,21.3221,21.2436,21.3435,21.3221,21.2436,21.3057,21.2843,21.2272,21.1701,21.1487,21.1487,21.1487,21.1487,21.1487,21.1487,21.1487,21.1487,21.1487,21.1844,21.2272,21.2272,21.2629,21.32,21.32,21.32,21.3628,21.5219,21.4599,21.3981,21.481,21.1699,20.8752,20.8016,20.583,20.4672,20.5463,20.5692,20.7042,21.0902,21.1305,21.2678,21.5961,21.7101,21.7909,21.7909,21.6339,21.5576,21.5576,21.3414,21.2272,21.2272,21.1865,21.0489,20.8583,20.8583,20.742,20.5443,20.5443,20.5851,20.6829,20.7991,20.8939,16.1677,16.2307,16.285,16.4435,16.524,16.5918,16.685,16.9476,17.2255,17.4521,17.7036,17.9152,18.0267,17.9614,17.914,18.0025,18.0337,18.0901,18.2385,18.4591,18.6236,18.6835,18.8518,18.9676,18.9767,19.0566,19.0742,18.9868,19.0239,19.0472,19.0472,18.9581,18.8888,18.8362,18.8362,18.8625,18.9055,18.9976,19.0962,19.1919,19.2379,19.2839,19.3426,19.6341,19.9659,20.3346,20.5092,20.7759,21.0703,21.1886,21.1844,21.1701,21.265,21.2629,21.2272,21.2272,21.0917,20.8969,20.8419,20.8369,20.8369,20.8369,20.8562,20.9133,20.9133,20.9561,20.9918,20.9918,21.0295,21.0723,21.0723,21.1131,21.1487,21.1487,21.1487,21.1701,21.2864,21.3078,21.3015,21.3215,21.131,20.9119,20.7179,20.5443,20.4458,20.4899,20.5265,20.6797,21.0155,21.0493,21.2274,21.6531,21.5983,21.5412,21.5412,21.4006,21.3078,21.3078,21.1487,21.0509,20.9918,20.9347,20.7777,20.53,20.53,20.4087,20.1946,20.1946,20.2568,20.3547,20.4709,20.5657,15.5007,15.5537,15.7169,16.1899,16.1974,16.1306,16.2901,16.4499,16.6752,17.0608,17.3802,17.658,17.8977,17.9084,17.8297,17.6866,17.7092,17.7923,17.9408,18.3025,18.5226,18.4305,18.8901,19.113,18.8541,19.0647,19.1069,18.8467,18.9581,19.0436,19.0436,19.0436,18.9779,18.8362,18.8296,18.7638,18.6228,18.6228,18.6228,18.6228,18.7638,18.9019,19.0646,19.8846,20.2744,20.3112,20.8556,21.0149,20.896,20.896,20.9939,21.1273,21.1273,21.2272,21.3649,21.3649,20.9704,20.4118,20.2568,20.1926,20.1946,20.1946,20.2905,20.4261,20.4261,20.5494,20.6656,20.6656,20.7798,20.896,20.896,21.0153,21.1273,21.1273,21.1273,21.1273,21.1508,21.1508,21.1487,21.1487,21.0357,20.861,20.5645,20.5467,20.5071,20.3735,20.4706,20.6021,20.7631,21.0309,21.3638,21.7906,21.5576,21.3792,21.3792,21.2272,21.1508,21.1273,20.9939,20.8389,20.6799,20.5045,20.3547,20.1946,20.1946,20.1784,20.1804,20.1784,20.1784,20.1804,20.1784,20.1946,15.278,15.1884,15.1557,15.6911,15.7093,15.6194,15.7196,15.9918,16.2912,16.5129,17.0276,17.4377,17.4376,17.6207,17.7129,17.545,17.6123,17.7466,17.8949,18.1077,18.3804,18.7424,18.9208,18.914,18.6605,18.9,18.9653,18.6989,18.8164,18.8954,18.8954,18.8954,18.8756,18.8362,18.7375,18.6652,18.6228,18.6228,18.6228,18.6228,18.6652,18.7017,18.747,18.9774,19.3035,19.6685,19.825,20.0827,20.4087,20.5045,20.583,20.6401,20.7634,20.8369,20.8939,20.9939,20.8583,20.5851,20.4281,20.2925,20.1946,20.1946,20.2374,20.2568,20.2568,20.2925,20.3302,20.3302,20.3496,20.3944,20.3944,20.4301,20.4852,20.6044,20.6258,20.6992,20.9368,20.9724,21.0153,21.1273,20.9579,20.7003,20.4137,20.2951,20.2169,20.1989,20.3128,20.5074,20.7379,20.9331,21.1718,21.4773,21.3271,21.2058,21.2058,21.0723,20.9368,20.8226,20.6635,20.4903,20.3353,20.2945,20.1946,20.0194,20.0194,19.9215,19.6932,19.8093,19.8093,19.6932,19.9215,20.0194,14.2989,14.249,14.3359,14.8565,14.9447,14.9716,15.2213,15.5037,15.759,15.9115,16.4979,16.9942,17.0017,17.2908,17.493,17.3844,17.4327,17.581,17.8246,17.9984,18.234,18.602,18.7265,18.7558,18.7019,18.7564,18.7392,18.6053,18.6333,18.6849,18.7441,18.8033,18.8099,18.7507,18.7244,18.6491,18.5373,18.5307,18.5044,18.4416,18.5044,18.5307,18.5373,18.5965,18.8561,19.2694,19.475,19.8056,20.1998,20.2925,20.369,20.4475,20.6228,20.7227,20.7584,20.6605,20.5066,20.371,20.3496,20.1946,20.0234,20.0785,20.0999,20.0999,20.0999,20.1355,20.1946,20.1946,20.1946,20.1946,20.1946,20.1946,20.214,20.3139,20.3333,20.3924,20.5657,20.6248,20.6656,20.8205,20.7819,20.6585,20.5056,20.4091,20.3337,20.237,20.2001,20.3141,20.718,20.894,21.0918,21.361,21.3597,21.2486,20.9704,20.7991,20.6421,20.4872,20.3924,20.2548,20.0999,20.0999,20.0,19.7717,19.7074,19.5576,19.3026,19.3312,19.2936,19.208,19.52,19.5913,12.929,13.0503,13.42,13.8566,14.0118,14.1766,0.0,14.8561,15.0332,15.2051,15.7839,16.3253,16.5339,16.8887,17.1699,17.2096,17.2488,17.3914,17.7481,17.9516,18.0985,18.1975,18.4012,18.5918,18.7311,18.5623,18.4552,18.4585,18.3948,18.4178,18.5665,18.6915,18.7244,18.6228,18.7441,18.6915,18.4387,18.416,18.3466,18.2179,18.3466,18.4095,18.4095,18.557,18.7526,19.0148,19.5189,19.8898,20.1186,20.1603,20.2568,20.3904,20.5423,20.7013,20.7798,20.371,20.1213,19.998,20.1213,19.9663,19.7308,19.8644,19.9052,19.9052,19.9052,20.0214,20.1355,20.1355,20.1355,20.1355,20.1355,20.1355,20.159,20.1569,20.1804,20.1804,20.1946,20.1946,20.2354,20.369,20.528,20.6406,20.6663,20.6643,20.5827,20.3924,20.1397,20.1745,20.7002,20.9153,21.1093,21.3424,21.4832,21.3057,20.6992,20.5066,20.3333,20.1784,20.1804,20.0999,19.9215,19.8838,19.7502,19.4596,19.2703,19.1081,18.953,18.8155,18.737,18.7299,19.042,19.0277,0.0,0.0,0.0,0.0,0.0,0.0,0.0,13.5392,13.8235,14.1021,14.6736,15.2836,15.8259,16.2927,16.7065,17.02,17.2769,17.5191,17.7262,17.8862,17.9687,17.9295,18.1882,18.2632,17.9608,18.1161,18.1187,17.8457,17.9233,18.0715,18.2689,18.3034,18.4152,18.6162,18.6491,18.6359,18.5833,18.465,18.3926,18.3663,18.3963,18.4095,18.4095,18.557,18.6513,18.724,19.1321,19.405,19.5967,19.8886,20.0194,20.0622,20.0999,20.1998,20.3353,20.369,20.2925,20.1355,20.0428,19.8073,19.5524,19.5719,19.5952,19.5952,19.5952,19.6932,19.8255,19.8255,19.8255,19.8255,19.8255,19.8255,19.845,19.9857,20.0051,20.0428,20.1804,20.1946,20.1998,20.2354,20.2731,20.3156,20.3546,20.2714,20.2527,20.4712,20.4492,20.4876,20.7373,20.9947,21.1674,21.1876,21.1071,20.8939,20.5045,20.3353,20.1784,20.0214,20.0051,19.8858,19.5933,19.4558,19.315,19.1242,18.8422,18.621,18.4677,18.4392,18.3517,18.2429,18.5568,18.5996,0.0,0.0,0.0,0.0,0.0,0.0,0.0,0.0,0.0,0.0,0.0,14.3346,14.7327,0.0,16.1859,16.4607,16.9313,17.3547,17.6436,17.7805,17.8537,17.8434,17.9165,17.9198,17.7983,17.7358,17.6995,17.6772,17.5998,17.634,17.805,17.9855,18.1427,18.2845,18.5044,18.5833,18.5176,18.3729,18.2611,18.1859,18.1859,18.2254,18.3129,18.5886,18.7586,18.8522,19.3011,19.539,19.632,19.8636,19.9215,19.845,19.7665,19.7717,19.8644,20.1213,20.0999,19.9806,20.059,19.8644,19.6166,19.6166,19.5576,19.4791,19.4006,19.4953,19.6166,19.6166,19.6737,19.7308,19.7308,19.7308,19.7522,19.8287,19.843,19.8644,19.9449,19.9663,19.9806,20.0642,20.0785,20.1563,20.4291,20.2345,20.1032,20.2744,20.3732,20.4515,20.5281,20.7782,21.0335,21.2467,21.1294,20.9368,20.7013,20.4495,20.214,19.9857,19.8054,19.6504,19.5005,19.2008,18.9564,18.8013,18.407,18.1306,17.9736,17.8933,17.8505,17.8576,17.9361,17.9718,0.0,0.0,0.0,0.0,0.0,0.0,0.0,0.0,0.0,0.0,0.0,0.0,0.0,0.0,0.0,15.8417,16.4943,17.0998,17.5067,17.6042,17.6407,17.6634,17.5811,17.5526,17.6274,17.3875,17.3207,17.558,17.3315,17.2338,17.3453,17.6255,17.7955,17.8403,18.2348,18.4255,18.3663,18.2508,18.1296,18.0084,18.0084,0.0,18.2097,18.6229,18.8894,19.0538,19.5524,19.7709,19.8049,19.8828,19.845,19.7094,19.5148,19.481,19.5362,19.8482,19.8644,19.7684,19.9806,19.8287,19.5524,19.5524,19.4382,19.2936,19.1633,19.2579,0.0,19.4078,19.5148,19.6289,19.6289,19.6289,19.6289,19.6289,19.6289,19.6523,19.6737,19.6523,19.6932,19.8858,19.8838,20.0214,20.5086,20.2739,20.043,20.1383,20.3119,20.4307,20.4709,20.663,20.9355,21.2674,21.1487,20.9704,20.7961,20.5066,20.2192,19.9429,19.6504,19.481,19.4078,18.9297,18.6157,18.5211,17.9878,17.6739,17.6079,17.4207,17.4136,17.558,17.207,17.1839,0.0,0.0,0.0,0.0,0.0,0.0,0.0,0.0,0.0,0.0,0.0,0.0,0.0,0.0,0.0,0.0,16.2164,16.8797,17.3405,17.2982,17.1647,17.0338,17.1228,17.0959,16.8408,17.0185,17.1354,17.0932,17.0634,17.0483,17.0554,17.0915,0.0,0.0,0.0,17.968,18.2179,18.2048,18.1851,18.1653,18.1653,18.1785,18.2097,18.612,18.876,19.0336,19.4156,19.6756,19.8101,19.7671,19.747,19.6951,19.4078,19.3721,19.5362,19.8482,19.8644,19.7094,19.6147,0.0,0.0,18.9012,18.796,18.6675,18.6496,18.8512,19.0814,19.0814,19.1937,19.3131,19.3131,19.3131,19.3131,19.3131,19.3131,19.3559,19.4953,19.4149,19.4006,19.6932,19.6523,19.6932,20.1804,20.1012,20.081,20.3908,20.6649,20.8966,21.0709,21.092,21.0714,20.9704,20.8389,0.0,20.3159,20.1213,19.9429,19.7665,19.5952,19.3721,19.0957,18.5016,18.2304,18.3536,17.6097,17.3528,17.6079,17.3171,17.2512,17.3814,16.3402,16.1904,0.0,0.0,0.0,0.0,0.0,0.0,0.0,0.0,0.0,0.0,0.0,0.0,0.0,0.0,0.0,0.0,15.3621,16.0344,16.147,16.4165,16.6091,16.6376,16.6947,16.6536,16.4324,16.5235,16.6596,16.804,16.7783,16.7924,16.8779,16.8816,16.9224,17.0117,17.25,17.4325,17.5603,17.5603,17.5603,17.5603,17.5603,17.6496,17.8308,18.3865,18.7603,19.0013,19.4604,19.6874,19.7473,19.6344,19.5362,19.4006,0.0,0.0,0.0,0.0,19.0867,19.1794,19.1152,18.9012,18.6496,18.5587,18.416,18.2751,18.1805,18.375,18.6247,18.6247,18.8013,18.992,18.992,18.992,18.992,18.992,18.992,19.0367,19.1937,19.1723,19.1937,19.4149,19.4078,0.0,19.4953,19.5362,19.6514,19.9033,20.2541,20.5255,20.6429,20.7778,20.8939,20.9174,20.8603,20.7227,20.5086,20.2517,0.0,0.0,0.0,19.1671,19.0386,18.6015,0.0,0.0,0.0,16.7106,16.6607,16.3188,0.0,0.0,15.7675,15.7068,0.0,0.0,0.0,0.0,0.0,0.0,0.0,0.0,0.0,0.0,0.0,0.0,0.0,0.0,0.0,0.0,14.3988,15.0853,14.9697,15.4533,15.8814,16.0383,16.1739,16.1525,15.9083,16.0082,16.1953,16.4697,16.4748,16.5299,16.6655,16.713,16.714,16.6712,16.8998,17.0135,16.9881,17.0248,17.0248,16.9881,17.0505,17.1906,17.4117,18.1141,18.5679,18.8286,19.3269,19.5381,19.5167,19.3221,19.1509,18.944,18.2875,18.0307,18.0449,18.209,18.4659,18.737,18.737,18.5996,18.407,18.2447,18.0877,17.9379,17.7809,17.9165,18.1306,18.1306,18.3232,18.5444,18.5943,18.6015,18.6157,18.6586,18.6657,18.7085,18.8655,18.8673,18.8959,19.0938,19.0277,18.9226,18.8531,19.0367,19.3086,19.6104,19.9657,20.2711,20.4892,20.6059,20.7227,20.8369,20.8603,20.7584,20.5657,20.2945,20.0214,19.784,19.2651,18.9102,18.7817,18.5568,18.1858,17.6596,16.8962,16.3325,0.0,0.0,0.0,0.0,0.0,0.0,0.0,0.0,0.0,0.0,0.0,0.0,0.0,0.0,0.0,0.0,0.0,0.0,0.0,0.0,0.0,0.0,0.0,0.0,14.1263,14.5415,14.8968,15.0523,15.4803,15.5817,15.1094,15.4819,15.8259,15.9916,16.1405,16.2661,16.3578,16.4963,16.5076,16.3644,16.6459,16.7657,16.6882,16.8276,16.8276,16.6947,16.9076,17.0146,17.0518,17.8423,18.2838,18.4492,18.8714,19.0529,19.0315,18.7209,18.4997,18.325,17.9825,17.8523,17.8737,18.0449,18.3,18.5711,18.5711,18.3713,18.0806,17.9165,17.7524,17.6008,17.4421,17.5081,17.6365,17.6365,17.7524,17.9094,18.0717,18.1163,18.1591,18.3089,18.3464,18.3874,18.5426,18.4588,18.4445,18.7513,18.4445,18.1805,18.325,18.7318,19.2436,19.8688,20.0959,0.0,21.0313,20.8592,20.6799,20.685,20.685,20.5657,20.2354,20.0642,19.7697,19.3131,18.9868,18.6015,18.1448,18.1145,17.8166,17.1816,16.8408,16.4411,15.9773,0.0,0.0,0.0,0.0,0.0,0.0,0.0,0.0,0.0,0.0,0.0,0.0,0.0,0.0,0.0,0.0,0.0,0.0,0.0,0.0,0.0,0.0,0.0,0.0,13.6568,14.0764,14.2319,14.5758,14.6628,14.289,14.59,14.9554,15.3178,15.5976,15.8505,16.0942,16.1116,16.1866,16.3386,16.2521,16.2366,16.3189,16.5618,16.6062,16.4592,16.7885,16.9388,16.9501,17.4885,17.8124,17.9798,18.3924,18.5087,18.4017,18.3,17.8523,17.2118,17.0032,16.9176,16.939,17.0976,17.2886,17.5009,17.7061,17.7061,17.5937,17.4313,17.2726,17.1371,17.0871,17.2495,17.4564,17.4564,17.5723,17.7024,17.7595,17.7007,17.6365,17.6864,17.7007,17.7435,17.9004,17.8933,17.9522,18.2733,17.8666,17.5169,17.6721,18.0021,18.4606,19.0938,19.5952,20.1161,20.7584,20.8369,20.8369,20.8369,20.6421,20.4689,20.3547,19.8268,19.4772,19.422,18.63,18.1448,18.102,17.7934,17.4724,17.153,17.0389,16.4466,15.3448,0.0,0.0,0.0,0.0,0.0,0.0,0.0,0.0,0.0,0.0,0.0,0.0,0.0,0.0,0.0,0.0,0.0,0.0,0.0,0.0,0.0,0.0,0.0,0.0,0.0,0.0,13.7482,13.8566,0.0,13.5555,13.7067,13.9993,14.4102,14.7913,15.1709,15.5333,15.5697,15.7138,16.0083,15.9338,15.9011,15.9274,16.2234,16.298,16.1488,16.5299,16.7075,16.7165,17.2229,17.537,17.7051,18.019,18.0663,17.9076,17.681,17.0691,16.2556,16.1541,16.0399,15.967,16.1842,16.3967,16.6234,16.9373,17.114,17.1853,17.0317,16.7606,16.4878,16.4324,16.5395,16.7115,16.8453,16.9828,17.1468,17.388,17.3297,17.2424,17.3494,17.3779,17.4064,17.5081,17.4866,17.4866,17.6436,17.344,17.0942,17.1924,17.4724,17.8737,18.4588,19.0814,19.7308,20.4301,20.7013,20.8175,20.742,20.5473,20.371,20.1998,19.6127,19.2132,19.0867,18.3018,17.8166,17.7595,17.4082,17.0871,16.8177,16.5893,15.9456,0.0,0.0,0.0,0.0,0.0,0.0,0.0,0.0,0.0,0.0,0.0,0.0,0.0,0.0,0.0,0.0,0.0,0.0,0.0,0.0,0.0,0.0,0.0,0.0,0.0,0.0,0.0,13.494,13.2657,0.0,0.0,0.0,0.0,13.2987,13.7482,14.2133,14.6771,14.854,15.0739,15.3508,15.6383,15.7024,15.5201,15.8247,15.9113,15.7729,16.1664,16.3563,16.3759,17.0432,17.435,17.5937,17.7453,17.7167,17.5152,16.8748,16.1557,15.4651,15.435,15.2408,15.0095,15.3193,15.6348,15.9416,16.2825,16.5877,16.8089,16.6607,16.204,15.6689,15.4992,15.4229,0.0,0.0,16.0108,16.2541,16.9212,16.978,16.9427,17.2638,17.3351,17.328,17.328,17.2155,17.0603,16.8874,16.8445,16.8319,16.8172,0.0,17.4527,17.945,18.5713,19.2741,20.0805,20.4709,20.6207,20.4689,20.4332,20.2354,19.7898,19.422,18.9654,18.3678,18.0039,17.6025,17.153,16.9587,16.6376,16.158,15.5461,0.0,0.0,0.0,0.0,0.0,0.0,0.0,0.0,0.0,0.0,0.0,0.0,0.0,0.0,0.0,0.0,0.0,0.0,0.0,0.0,0.0,0.0,0.0,0.0,0.0,0.0,11.458,11.7434,12.1727,12.0502,11.8718,0.0,0.0,0.0,0.0,0.0,0.0,13.3856,13.6626,14.0553,14.5891,14.7449,14.9052,15.0864,15.5169,15.6619,15.5172,16.1306,16.4196,16.4284,16.7246,17.0032,17.2672,17.3029,17.1673,16.8534,15.99,15.305,14.7684,14.4188,14.2333,14.182,14.3846,14.5772,14.8427,15.5206,15.7275,15.7046,15.7846,15.4564,14.9839,14.7142,0.0,0.0,0.0,0.0,15.5629,16.2059,16.2967,16.3253,16.7535,16.7661,16.6804,16.6804,16.6536,16.5109,16.1168,15.9472,15.7784,15.4991,15.7532,0.0,16.885,17.756,18.7442,19.8858,20.4087,20.6992,20.7798,20.371,20.0428,19.9052,19.0795,18.5016,18.3393,17.6953,17.2172,16.9801,16.4823,15.9385,15.3376,0.0,0.0,0.0,0.0,0.0,0.0,0.0,0.0,0.0,0.0,0.0,0.0,0.0,0.0,0.0,0.0,0.0,0.0,0.0,0.0,0.0,0.0,0.0,0.0,0.0,0.0,0.0,10.6732,11.1155,11.5853,11.2571,11.0157,0.0,0.0,0.0,0.0,0.0,0.0,0.0,0.0,0.0,13.5926,13.8611,14.1128,14.3589,14.8987,15.1262,15.0447,15.5688,15.86,15.94,16.0986,16.3753,16.7304,16.6678,16.254,15.5991,14.934,14.2975,13.704,0.0,0.0,0.0,0.0,13.4784,13.7077,14.402,14.6795,14.7107,14.6234,0.0,0.0,0.0,0.0,0.0,0.0,0.0,14.9381,15.5381,15.7207,15.8286,16.1844,16.147,16.0542,16.1256,15.7376,15.3165,15.1157,14.9857,14.8205,14.5346,14.7469,0.0,0.0,0.0,18.1091,19.3007,20.0979,20.5494,20.5086,20.2354,19.9215,19.5771,18.9297,18.3874,18.0378,17.5312,17.0229,16.5251,16.0328,15.3407,0.0,0.0,0.0,0.0,0.0,0.0,0.0,0.0,0.0,0.0,0.0,0.0,0.0,0.0,0.0,0.0,0.0,0.0,0.0,0.0,0.0,0.0,0.0,0.0,0.0,0.0,0.0,0.0,0.0,10.767,11.2357,0.0,0.0,0.0,0.0,0.0,0.0,0.0,0.0,0.0,0.0,0.0,0.0,0.0,13.2416,13.4369,13.9979,14.3047,14.346,14.6385,14.8754,15.0695,15.2209,15.5476,15.9725,15.6546,0.0,14.1719,13.7767,0.0,0.0,0.0,0.0,0.0,0.0,0.0,0.0,0.0,0.0,0.0,0.0,0.0,0.0,0.0,0.0,0.0,0.0,0.0,0.0,0.0,0.0,15.2883,15.4705,15.4441,15.3784,15.3483,14.5394,13.8631,14.0005,14.0016,13.9143,0.0,0.0,0.0,0.0,0.0,0.0,18.5587,19.6555,20.2548,20.0214,20.0785,19.845,19.1242,18.8583,18.416,17.6579,17.3708,16.8231,15.9274,15.5634,0.0,0.0,0.0,0.0,0.0,0.0,0.0,0.0,0.0,0.0,0.0,0.0,0.0,0.0,0.0,0.0,0.0,0.0,0.0,0.0,0.0,0.0,0.0,0.0,0.0,0.0,0.0,0.0,0.0,0.0,0.0,0.0,0.0,0.0,0.0,0.0,0.0,0.0,0.0,0.0,0.0,0.0,0.0,0.0,0.0,0.0,0.0,0.0,0.0,0.0,13.3941,13.6367,13.9222,14.0764,14.4045,14.7827,13.5926,13.2585,13.4927,12.6507,0.0,0.0,0.0,0.0,0.0,0.0,0.0,0.0,0.0,0.0,0.0,0.0,0.0,0.0,0.0,0.0,0.0,0.0,0.0,0.0,0.0,0.0,14.2514,14.2771,14.5108,14.454,13.4456,0.0,0.0,0.0,0.0,0.0,0.0,0.0,0.0,0.0,0.0,0.0,18.0431,19.1723,19.9235,20.1375,19.9429,19.6523,19.2579,18.7228,18.1805,17.6436,16.8571,16.1097,0.0,0.0,0.0,0.0,0.0,0.0,0.0,0.0,0.0,0.0,0.0,0.0,0.0,0.0,0.0,0.0,0.0,0.0,0.0,0.0,0.0,0.0,0.0,0.0,0.0,0.0,0.0,0.0,0.0,0.0,0.0,0.0,0.0,0.0,0.0,0.0,0.0,0.0,0.0,0.0,0.0,0.0,0.0,0.0,0.0,0.0,0.0,0.0,0.0,0.0,0.0,0.0,0.0,0.0,0.0,0.0,0.0,0.0,12.3582,11.8159,0.0,0.0,0.0,0.0,0.0,0.0,0.0,0.0,0.0,0.0,0.0,0.0,0.0,0.0,0.0,0.0,0.0,0.0,0.0,0.0,0.0,0.0,0.0,0.0,0.0,0.0,0.0,0.0,0.0,0.0,0.0,0.0,0.0,0.0,0.0,0.0,0.0,0.0,0.0,0.0,17.3297,18.796,19.7308,19.7146,19.7308,19.5381,19.0653,18.5943,17.9896,17.1744,16.3951,0.0,0.0,0.0,0.0,0.0,0.0,0.0,0.0,0.0,0.0,0.0,0.0,0.0,0.0,0.0,0.0,0.0,0.0,0.0,0.0,0.0,0.0,0.0,0.0,0.0,0.0,0.0,0.0,0.0,0.0,0.0,0.0,0.0,0.0,0.0,0.0,0.0,0.0,0.0,0.0,0.0,0.0,0.0,0.0,0.0,0.0,0.0,0.0,0.0,0.0,0.0,0.0,0.0,0.0,0.0,0.0,0.0,0.0,0.0,11.2808,10.6325,0.0,0.0,0.0,0.0,0.0,0.0,0.0,0.0,0.0,0.0,0.0,0.0,0.0,0.0,0.0,0.0,0.0,0.0,0.0,0.0,0.0,0.0,0.0,0.0,0.0,0.0,0.0,0.0,0.0,0.0,0.0,0.0,0.0,0.0,0.0,0.0,0.0,0.0,0.0,0.0,16.698,18.4302,19.4953,19.2845,19.4791,19.4025,18.8441,18.5087,17.8469,16.698,15.9472,0.0,0.0,0.0,0.0,0.0,0.0,0.0,0.0,0.0,0.0,0.0,0.0,0.0,0.0,0.0,0.0,0.0,0.0,0.0,0.0,0.0,0.0,0.0,0.0,0.0,0.0,0.0,0.0,0.0,0.0,0.0,0.0,0.0,0.0,0.0,0.0,0.0,0.0,0.0,0.0,0.0,0.0,0.0,0.0,0.0,0.0,0.0,0.0,0.0,0.0,0.0,0.0,0.0,0.0,0.0,0.0,0.0,0.0,0.0,0.0,0.0,0.0,0.0,0.0,0.0,0.0,0.0,0.0,0.0,0.0,0.0,0.0,0.0,0.0,0.0,0.0,0.0,0.0,0.0,0.0,0.0,0.0,0.0,0.0,0.0,0.0,0.0,0.0,0.0,0.0,0.0,0.0,0.0,0.0,0.0,0.0,0.0,0.0,0.0,0.0,0.0,16.3954,18.011,19.1385,19.2489,19.2917,19.1704,18.8298,18.5087,17.797,16.5465,0.0,0.0,0.0,0.0,0.0,0.0,0.0,0.0,0.0,0.0,0.0,0.0,0.0,0.0,0.0,0.0,0.0,0.0,0.0,0.0,0.0,0.0,0.0,0.0,0.0,0.0,0.0,0.0,0.0,0.0,0.0,0.0,0.0,0.0,0.0,0.0,0.0,0.0,0.0,0.0,0.0,0.0,0.0,0.0,0.0,0.0,0.0,0.0,0.0,0.0,0.0,0.0,0.0,0.0,0.0,0.0,0.0,0.0,0.0,0.0,0.0,0.0,0.0,0.0,0.0,0.0,0.0,0.0,0.0,0.0,0.0,0.0,0.0,0.0,0.0,0.0,0.0,0.0,0.0,0.0,0.0,0.0,0.0,0.0,0.0,0.0,0.0,0.0,0.0,0.0,0.0,0.0,0.0,0.0,0.0,0.0,0.0,0.0,0.0,0.0,0.0,0.0,15.9614,17.8666,19.1223,19.001,19.149,19.1347,18.8227,18.3303,17.4598,16.1097,0.0,0.0,0.0,0.0,0.0,0.0,0.0,0.0,0.0,0.0,0.0,0.0,0.0,0.0,0.0,0.0,0.0,0.0,0.0,0.0,0.0,0.0,0.0,0.0,0.0,0.0,0.0,0.0,0.0,0.0,0.0,0.0,0.0,0.0,0.0,0.0,0.0,0.0,0.0,0.0,0.0,0.0,0.0,0.0,0.0,0.0,0.0,0.0,0.0,0.0,0.0,0.0,0.0,0.0,0.0,0.0,0.0,0.0,0.0,0.0,0.0,0.0,0.0,0.0,0.0,0.0,0.0,0.0,0.0,0.0,0.0,0.0,0.0,0.0,0.0,0.0,0.0,0.0,0.0,0.0,0.0,0.0,0.0,0.0,0.0,0.0,0.0,0.0,0.0,0.0,0.0,0.0,0.0,0.0,0.0,0.0,0.0,0.0,0.0,0.0,0.0,0.0,15.7879,17.768,19.0776,18.9511,19.0938,19.0867,18.8227,18.1662,17.153,15.6959,0.0,0.0,0.0,0.0,0.0,0.0,0.0,0.0,0.0,0.0,0.0,0.0,0.0,0.0,0.0,0.0,0.0,0.0,0.0,0.0,0.0,0.0,0.0,0.0,0.0,0.0,0.0,0.0,0.0,0.0,0.0,0.0,0.0,0.0,0.0,0.0,0.0,0.0,0.0,0.0,0.0,0.0,0.0,0.0,0.0,0.0,0.0,0.0,0.0,0.0,0.0,0.0,0.0,0.0,0.0,0.0,0.0,0.0,0.0,0.0,0.0,0.0,0.0,0.0,0.0,0.0,0.0,0.0,0.0,0.0,0.0,0.0,0.0,0.0,0.0,0.0,0.0,0.0,0.0,0.0,0.0,0.0,0.0,0.0,0.0,0.0,0.0,0.0,0.0,0.0,0.0,0.0,0.0,0.0,0.0,0.0,0.0,0.0,0.0,0.0,0.0,0.0,16.0201,17.687,18.9226,19.2275,19.1223,18.9673,18.8084,18.0717,16.9444,0.0,0.0,0.0,0.0,0.0,0.0,0.0,0.0,0.0,0.0,0.0,0.0,0.0,0.0,0.0,0.0,0.0,0.0,0.0,0.0,0.0,0.0,0.0,0.0,0.0,0.0,0.0,0.0,0.0,0.0,0.0,0.0,0.0,0.0,0.0,0.0,0.0,0.0,0.0,0.0,0.0,0.0,0.0,0.0,0.0,0.0,0.0,0.0,0.0,0.0,0.0,0.0,0.0,0.0,0.0,0.0,0.0,0.0,0.0,0.0,0.0,0.0,0.0,0.0,0.0,0.0,0.0,0.0,0.0,0.0,0.0,0.0,0.0,0.0,0.0,0.0,0.0,0.0,0.0,0.0,0.0,0.0,0.0,0.0,0.0,0.0,0.0,0.0,0.0,0.0,0.0,0.0,0.0,0.0,0.0,0.0,0.0,0.0,0.0,0.0,0.0,0.0,0.0,15.5492,17.2912,18.6015,18.9154,18.9012,18.8084,18.6496,17.9076,16.7787,15.2021,0.0,0.0,0.0,0.0,0.0,0.0,0.0,0.0,0.0,0.0,0.0,0.0,0.0,0.0,0.0,0.0,0.0,0.0,0.0,0.0,0.0,0.0,0.0,0.0,0.0,0.0,0.0,0.0,0.0,0.0,0.0,0.0,0.0,0.0,0.0,0.0,0.0,0.0,0.0,0.0,0.0,0.0,0.0,0.0,0.0,0.0,0.0,0.0,0.0,0.0,0.0,0.0,0.0,0.0,0.0,0.0,0.0,0.0,0.0,0.0,0.0,0.0,0.0,0.0,0.0,0.0,0.0,0.0,0.0,0.0,0.0,0.0,0.0,0.0,0.0,0.0,0.0,0.0,0.0,0.0,0.0,0.0,0.0,0.0,0.0,0.0,0.0,0.0,0.0,0.0,0.0,0.0,0.0,0.0,0.0,0.0,0.0,0.0,0.0,0.0,0.0,0.0,0.0,16.9602,18.3179,18.7513,18.7941,18.7085,18.4926,17.6935,16.5076,14.8683,0.0,0.0,0.0,0.0,0.0,0.0,0.0,0.0,0.0,0.0,0.0,0.0,0.0,0.0,0.0,0.0,0.0,0.0,0.0,0.0,0.0,0.0,0.0,0.0,0.0,0.0,0.0,0.0,0.0,0.0,0.0,0.0,0.0,0.0,0.0,0.0,0.0,0.0,0.0,0.0,0.0,0.0,0.0,0.0,0.0,0.0,0.0,0.0,0.0,0.0,0.0,0.0,0.0,0.0,0.0,0.0,0.0,0.0,0.0,0.0,0.0,0.0,0.0,0.0,0.0,0.0,0.0,0.0,0.0,0.0,0.0,0.0,0.0,0.0,0.0,0.0,0.0,0.0,0.0,0.0,0.0,0.0,0.0,0.0,0.0,0.0,0.0,0.0,0.0,0.0,0.0,0.0,0.0,0.0,0.0,0.0,0.0,0.0,0.0,0.0,0.0,0.0,0.0,16.6656,18.0235,18.68,18.7299,18.6015,18.3179,17.4242,16.1454,14.4359,13.5222,0.0,0.0,0.0,0.0,0.0,0.0,0.0,0.0,0.0,0.0,0.0,0.0,0.0,0.0,0.0,0.0,0.0,0.0,0.0,0.0,0.0,0.0,0.0,0.0,0.0,0.0,0.0,0.0,0.0,0.0,0.0,0.0,0.0,0.0,0.0,0.0,0.0,0.0,0.0,0.0,0.0,0.0,0.0,0.0,0.0,0.0,0.0,0.0,0.0,0.0,0.0,0.0,0.0,0.0,0.0,0.0,0.0,0.0,0.0,0.0,0.0,0.0,0.0,0.0,0.0,0.0,0.0,0.0,0.0,0.0,0.0,0.0,0.0,0.0,0.0,0.0,0.0,0.0,0.0,0.0,0.0,0.0,0.0,0.0,0.0,0.0,0.0,0.0,0.0,0.0,0.0,0.0,0.0,0.0,0.0,0.0,0.0,0.0,0.0,0.0,0.0,0.0,16.3094,17.2572,18.1627,18.0378,17.9094,17.9522,17.0959,15.9186,14.4217,13.5222,0.0,0.0,0.0,0.0,0.0,0.0,0.0,0.0,0.0,0.0,0.0,0.0,0.0,0.0,0.0,0.0,0.0,0.0,0.0,0.0,0.0,0.0,0.0,0.0,0.0,0.0,0.0,0.0,0.0,0.0,0.0,0.0,0.0,0.0,0.0,0.0,0.0,0.0,0.0,0.0,0.0,0.0,0.0,0.0,0.0,0.0,0.0,0.0,0.0,0.0,0.0,0.0,0.0,0.0,0.0,0.0,0.0,0.0,0.0,0.0,0.0,0.0,0.0,0.0,0.0,0.0,0.0,0.0,0.0,0.0,0.0,0.0,0.0,0.0,0.0,0.0,0.0,0.0,0.0,0.0,0.0,0.0,0.0,0.0,0.0,0.0,0.0,0.0,0.0,0.0,0.0,0.0,0.0,0.0,0.0,0.0,0.0,0.0,0.0,0.0,0.0,0.0,14.735,15.8756,17.486,17.6293,17.5865,17.5312,16.7249,15.5619,13.9993,13.1904,0.0,0.0,0.0,0.0,0.0,0.0,0.0,0.0,0.0,0.0,0.0,0.0,0.0,0.0,0.0,0.0,0.0,0.0,0.0,0.0,0.0,0.0,0.0,0.0,0.0,0.0,0.0,0.0,0.0,0.0,0.0,0.0,0.0,0.0,0.0,0.0,0.0,0.0,0.0,0.0,0.0,0.0,0.0,0.0,0.0,0.0,0.0,0.0,0.0,0.0,0.0,0.0,0.0,0.0,0.0,0.0,0.0,0.0,0.0,0.0,0.0,0.0,0.0,0.0,0.0,0.0,0.0,0.0,0.0,0.0,0.0,0.0,0.0,0.0,0.0,0.0,0.0,0.0,0.0,0.0,0.0,0.0,0.0,0.0,0.0,0.0,0.0,0.0,0.0,0.0,0.0,0.0,0.0,0.0,0.0,0.0,0.0,0.0,0.0,0.0,0.0,0.0,0.0,14.525,16.5482,17.1608,17.3368,17.0959,16.3555,15.1912,13.5153,0.0,0.0,0.0,0.0,0.0,0.0,0.0,0.0,0.0,0.0,0.0,0.0,0.0,0.0,0.0,0.0,0.0,0.0,0.0,0.0,0.0,0.0,0.0,0.0,0.0,0.0,0.0,0.0,0.0,0.0,0.0,0.0,0.0,0.0,0.0,0.0,0.0,0.0,0.0,0.0,0.0,0.0,0.0,0.0,0.0,0.0,0.0,0.0,0.0,0.0,0.0,0.0,0.0,0.0,0.0,0.0,0.0,0.0,0.0,0.0,0.0,0.0,0.0,0.0,0.0,0.0,0.0,0.0,0.0,0.0,0.0,0.0,0.0,0.0,0.0,0.0,0.0,0.0,0.0,0.0,0.0,0.0,0.0,0.0,0.0,0.0,0.0,0.0,0.0,0.0,0.0,0.0,0.0,0.0,0.0,0.0,0.0,0.0,0.0,0.0,0.0,0.0,0.0,0.0,14.4196,14.9539,15.981,16.6607,16.7408,16.0344,14.9822,13.5831,0.0,0.0,0.0,0.0,0.0,0.0,0.0,0.0,0.0,0.0,0.0,0.0,0.0,0.0]}],[{"header":{"parameterUnit":"kt","parameterCategory":2,"dx":1,"dy":1,"la1":29.285339999999998,"la2":30.599998999999997,"lo1":-89.70041500000002,"lo2":-87.6738589999976,"nx":112,"ny":82,"refTime":"2022-09-27T12:00:00:Z","depth":0,"parameterNumber":2,"parameterNumberName":"V-component_of_WINDS"},"data":[11.3191,11.2963,11.2484,11.2165,11.2317,11.2317,11.1391,11.1619,11.2241,11.2849,11.2682,11.2515,11.291,11.2682,11.2022,11.0974,0.0,11.0138,0.0,11.076,11.1558,11.1239,11.2705,11.4071,11.4976,11.5264,11.5909,11.7296,11.7127,11.7504,11.8699,11.8187,11.8301,11.9174,11.8605,11.8549,11.9174,11.8605,11.8605,11.9174,11.8605,11.8605,11.9174,11.8301,11.8321,11.9174,11.887,11.9212,12.0085,12.1717,12.2325,12.2154,12.335,12.3123,12.204,12.204,12.1528,12.0712,12.0104,11.9971,11.9971,11.9971,11.9971,11.9971,11.9971,11.9971,12.0104,12.1072,12.0655,12.0142,12.1072,12.0655,11.9971,11.9971,11.9971,11.9971,11.9971,11.9971,11.9971,11.9971,11.9971,11.9971,11.9971,11.9971,11.9971,11.9971,11.9971,11.9971,11.9971,11.9971,11.9971,11.9971,11.9971,11.9971,11.9971,11.9971,11.9971,11.9971,11.9971,11.9971,11.9971,11.9971,12.0085,12.0427,12.0085,12.0085,12.0427,12.0085,11.9971,11.9971,11.9971,11.9971,11.3191,11.2963,11.2484,11.2165,11.2089,11.1938,11.1353,11.1482,11.1862,11.2431,11.2735,11.2705,11.215,11.2796,11.2796,0.0,0.0,11.0594,0.0,11.0988,11.1786,11.2037,11.3274,11.4526,11.5378,11.5947,11.6424,11.6993,11.7241,11.7676,11.8301,11.8301,11.8301,11.8301,11.8301,11.8301,11.8301,11.7731,11.7731,11.8301,11.7731,11.7696,11.8301,11.7676,11.7752,11.8301,11.8643,11.906,11.963,12.1357,12.223,12.2571,12.3464,12.3464,12.2895,12.2571,12.1984,12.1168,12.0218,11.9971,11.9971,11.9971,11.9971,11.9971,11.9971,11.9971,11.9971,11.9971,11.9971,11.9971,11.9971,11.9971,11.9971,11.9971,11.9971,11.9971,11.9971,11.9971,11.9971,11.9971,11.9971,11.9971,11.9971,11.9971,11.9971,11.9971,11.9971,11.9971,11.9971,11.9971,11.9971,11.9971,11.9971,11.9971,11.9971,11.9971,11.9971,11.9971,11.9971,11.9971,11.9971,11.9971,11.9971,11.9971,11.9971,11.9971,11.9971,11.9971,11.9971,11.9971,11.9971,11.9971,11.2484,11.2484,11.2241,11.1391,11.1201,11.1111,11.1201,11.0556,11.0494,11.2165,11.1862,11.1201,11.1201,11.1938,11.1976,0.0,11.0062,0.0,0.0,11.0114,11.0974,11.3334,11.4466,11.5378,11.6137,11.6196,11.6196,11.6251,11.6899,11.7355,11.741,11.741,11.7448,11.741,11.741,11.7355,11.7355,11.7334,11.7334,11.7355,11.7334,11.7334,11.7355,11.7334,11.7334,11.741,11.8301,11.8699,11.887,12.0541,12.1737,12.2553,12.3464,12.3806,12.3692,12.2799,12.1984,12.1168,12.0256,11.9971,11.9971,11.9971,11.9971,11.9971,11.9971,11.9971,11.9971,11.9971,11.9971,11.9971,11.9971,11.9971,11.9971,11.9971,11.9971,11.9971,11.9971,11.9971,11.9971,11.9971,11.9971,11.9971,11.9971,11.9971,11.9971,11.9971,11.9971,11.9971,11.9971,11.9971,11.9971,11.9971,11.9971,11.9971,11.9971,11.9971,11.9971,11.9971,11.9971,11.9971,11.9971,11.9971,11.9971,11.9971,11.9971,11.9971,11.9971,11.9971,11.9971,11.9971,11.9971,11.9971,11.038,11.0722,11.0798,11.1125,11.0784,11.048,11.1087,11.0048,10.9721,11.2051,11.1862,0.0,0.0,0.0,11.2165,11.1049,0.0,11.1862,11.1862,11.1862,11.1862,11.1923,11.316,11.4412,11.5318,11.5378,11.566,11.6196,11.6424,11.682,11.7355,11.8073,11.8093,11.741,11.741,11.7162,11.6592,11.5968,11.6023,11.6537,11.5968,11.6023,11.6537,11.6002,11.6023,11.6592,11.682,11.7276,11.7903,11.963,12.0826,12.1756,12.3236,12.3806,12.3692,12.2799,12.2343,12.1926,12.0446,11.9971,11.9971,11.9971,11.9971,11.9971,11.9971,11.9971,11.9971,11.9971,11.9971,11.9971,11.9971,11.9971,11.9971,11.9971,11.9971,11.9971,11.9971,11.9971,11.9971,11.9971,11.9971,11.9971,11.9971,11.9971,11.9971,11.9971,11.9971,11.9971,11.9971,11.9971,11.9971,11.9971,11.9971,11.9971,11.9971,11.9971,11.9971,11.9971,11.9971,11.9971,11.9971,11.9971,11.9971,11.9971,11.9971,11.9971,11.9971,11.9971,11.9971,11.9971,11.9971,11.9971,10.8278,10.8961,10.9417,10.9189,10.9303,10.9493,10.9645,10.9138,10.9289,11.1505,0.0,0.0,0.0,0.0,0.0,0.0,11.2454,11.2796,11.2089,11.2317,11.2454,11.2287,11.3729,11.4868,11.5036,11.5378,11.5774,11.6196,11.6251,11.6592,11.7355,11.7903,11.779,11.6899,11.722,11.6879,11.5774,11.5318,11.5318,11.5774,11.5264,11.5318,11.5719,11.5264,11.5318,11.574,11.6082,11.6479,11.7048,11.8321,11.963,12.0826,12.1794,12.2895,12.3692,12.2799,12.2457,12.2267,12.0958,12.0218,11.9971,11.9971,11.9971,11.9971,11.9971,11.9971,11.9971,11.9971,11.9971,11.9971,11.9971,11.9971,11.9971,11.9971,11.9971,11.9971,11.9971,11.9971,11.9971,11.9971,11.9971,11.9971,11.9971,11.9971,11.9971,11.9971,11.9971,11.9971,11.9971,11.9971,11.9971,11.9971,11.9971,11.9971,11.9971,11.9971,11.9971,11.9971,11.9971,11.9971,11.9971,11.9971,11.9971,11.9971,11.9971,11.9971,11.9971,11.9971,11.9971,11.9971,11.9971,11.9971,10.6304,10.7139,10.7847,10.6721,10.7367,10.8189,10.7923,0.0,10.91,11.1087,0.0,11.2431,11.2507,0.0,0.0,11.291,11.3365,11.3274,11.168,11.2203,11.291,11.3502,11.4981,11.5681,11.4976,11.566,11.6082,11.6082,11.6196,11.6592,11.7355,11.7524,11.722,11.6403,11.7013,11.6651,11.509,11.509,11.509,11.509,11.509,11.509,11.509,11.509,11.509,11.509,11.5833,11.6082,11.6175,11.6993,11.8301,11.9801,11.9801,12.1414,12.3578,12.2667,12.2381,12.2343,12.1452,12.0598,11.9971,11.9971,11.9971,11.9971,11.9971,11.9971,11.9971,11.9971,11.9971,11.9971,11.9971,11.9971,11.9971,11.9971,11.9971,11.9971,11.9971,11.9971,11.9971,11.9971,11.9971,11.9971,11.9971,11.9971,11.9971,11.9971,11.9971,11.9971,11.9971,11.9971,11.9971,11.9971,11.9971,11.9971,11.9971,11.9971,11.9971,11.9971,11.9971,11.9971,11.9971,11.9971,11.9971,11.9971,11.9971,11.9971,11.9971,11.9971,11.9971,11.9971,11.9971,11.9971,10.4887,10.4975,10.5138,10.6835,10.6443,10.6519,0.0,0.0,0.0,11.2477,11.2287,11.1657,11.2393,11.3327,11.3843,11.3555,11.4239,11.4412,11.3388,11.3388,11.3274,11.2796,11.3615,11.4185,11.3957,11.4808,11.5318,11.5318,11.5854,11.6592,11.7355,11.8093,11.8093,11.722,11.7334,11.6651,11.509,11.509,11.509,11.509,11.509,11.509,11.509,11.509,11.509,11.509,11.5264,11.5318,11.5378,11.6137,11.7504,11.904,11.904,12.0541,12.2609,12.1851,12.1965,12.2267,12.0769,12.0085,11.9971,11.9971,11.9971,11.9971,11.9971,11.9971,11.9971,11.9971,11.9971,11.9971,11.9971,11.9971,11.9971,11.9971,11.9971,11.9971,11.9971,11.9971,11.9971,11.9971,11.9971,11.9971,11.9971,11.9971,11.9971,11.9971,11.9971,11.9971,11.9971,11.9971,11.9971,11.9971,11.9971,11.9971,11.9971,11.9971,11.9971,11.9971,11.9971,11.9971,11.9971,11.9971,11.9971,11.9971,11.9971,11.9971,11.9971,11.9971,11.9971,11.9971,11.9971,11.9971,10.3001,10.3467,10.3961,10.4785,10.562,0.0,0.0,10.9341,11.0214,11.3107,11.2705,11.2279,11.3586,11.3419,11.3388,11.4239,11.4352,11.4239,11.3751,11.4125,11.4071,11.3251,11.3897,11.4412,11.4412,11.4808,11.5264,11.566,11.6365,11.722,11.8073,11.8529,11.8585,11.8093,11.8093,11.7276,11.5681,11.5627,11.5491,11.509,11.509,11.509,11.509,11.509,11.509,11.509,11.509,11.509,11.509,11.5491,11.6913,11.8756,11.8756,12.0313,12.2457,12.2553,12.2269,12.1851,12.1357,12.0655,11.9971,11.9971,11.9971,11.9971,11.9971,11.9971,11.9971,11.9971,11.9971,11.9971,11.9971,11.9971,11.9971,11.9971,11.9971,11.9971,11.9971,11.9971,11.9971,11.9971,11.9971,11.9971,11.9971,11.9971,11.9971,11.9971,11.9971,11.9971,11.9971,11.9971,11.9971,11.9971,11.9971,11.9971,11.9971,11.9971,11.9971,11.9971,11.9971,11.9971,11.9971,11.9971,11.9971,11.9971,11.9971,11.9971,11.9971,11.9971,11.9971,11.9971,11.9971,11.9971,10.1368,10.2138,10.3011,10.2773,10.4747,0.0,10.7595,10.9251,11.1225,11.31,11.3024,11.2963,11.4331,11.3761,11.3419,11.458,11.4352,11.3957,11.3957,11.458,11.4808,11.4071,11.4634,11.515,11.5264,11.5318,11.5605,11.6424,11.7069,11.779,11.8719,11.8927,11.8927,11.8756,11.8756,11.7959,11.6251,11.6251,11.5833,11.509,11.509,11.509,11.509,11.509,11.509,11.509,11.509,11.509,11.509,11.509,11.6458,11.8491,11.8491,12.0029,12.2325,12.3067,12.2439,12.1395,12.1984,12.1243,11.9971,11.9971,11.9971,11.9971,11.9971,11.9971,11.9971,11.9971,11.9971,11.9971,11.9971,11.9971,11.9971,11.9971,11.9971,11.9971,11.9971,11.9971,11.9971,11.9971,11.9971,11.9971,11.9971,11.9971,11.9971,11.9971,11.9971,11.9971,11.9971,11.9971,11.9971,11.9971,11.9971,11.9971,11.9971,11.9971,11.9971,11.9971,11.9971,11.9971,11.9971,11.9971,11.9971,11.9971,11.9971,11.9971,11.9971,11.9971,11.9971,11.9971,11.9971,11.9971,10.1064,10.0837,10.0913,10.3087,10.3923,0.0,10.7847,10.8758,10.9631,11.2165,11.2621,11.2621,11.2826,11.3928,11.458,11.3957,11.4466,11.4922,11.4922,11.5014,11.5036,11.4922,11.5036,11.5378,11.6061,11.6082,11.6424,11.722,11.7355,11.779,11.8719,11.9402,11.9516,11.8813,11.8756,11.7959,11.6251,11.6251,11.5833,11.509,11.509,11.509,11.509,11.509,11.509,11.509,11.509,11.509,11.509,11.509,11.6061,11.7562,11.7562,11.9118,12.1395,12.1567,12.1453,12.1281,12.1395,12.0769,11.9971,11.9971,11.9971,11.9971,11.9971,11.9971,11.9971,11.9971,11.9971,11.9971,11.9971,11.9971,11.9971,11.9971,11.9971,11.9971,11.9971,11.9971,11.9971,11.9971,11.9971,11.9971,11.9971,11.9971,11.9971,11.9971,11.9971,11.9971,11.9971,11.9971,11.9971,11.9971,11.9971,11.9971,11.9971,11.9971,11.9971,11.9971,11.9971,11.9971,11.9971,11.9971,11.9971,11.9971,11.9971,11.9971,11.9971,11.9971,11.9971,11.9971,11.9971,11.9971,9.9698,10.0229,10.1178,10.3277,0.0,0.0,10.8809,11.0214,11.1353,11.291,11.3251,11.3365,11.3897,11.3761,11.3783,11.4444,11.4808,11.509,11.509,11.509,11.509,11.509,11.509,11.5378,11.6175,11.6251,11.6592,11.7334,11.7866,11.8321,11.8756,11.9516,11.9801,11.9459,11.9458,11.887,11.7731,11.722,11.6537,11.5774,11.5264,11.509,11.509,11.509,11.509,11.509,11.509,11.509,11.509,11.509,11.6344,11.8207,11.8719,12.0142,12.2097,12.3123,12.2535,12.1338,12.1851,12.1072,11.9971,11.9971,11.9971,11.9971,11.9971,11.9971,11.9971,11.9971,11.9971,11.9971,11.9971,11.9971,11.9971,11.9971,11.9971,11.9971,11.9971,11.9971,11.9971,11.9971,11.9971,11.9971,11.9971,11.9971,11.9971,11.9971,11.9971,11.9971,11.9971,11.9971,11.9971,11.9971,11.9971,11.9971,11.9971,11.9971,11.9971,11.9971,11.9971,11.9971,11.9971,11.9971,11.9971,11.9971,11.9971,11.9971,11.9971,11.9971,11.9971,11.9971,11.9971,11.9971,9.9318,0.0,0.0,0.0,0.0,0.0,10.9189,11.0936,11.2393,11.3251,11.3388,11.3593,11.4239,11.3533,11.3251,11.4466,11.4922,11.509,11.509,11.509,11.509,11.509,11.509,11.5491,11.6479,11.6592,11.6993,11.8073,11.8719,11.9098,11.9098,11.963,11.9971,11.9971,11.9971,11.9572,11.8756,11.8093,11.739,11.6537,11.5968,11.5605,11.5378,11.5378,11.5264,11.509,11.509,11.509,11.509,11.509,11.6251,11.8187,11.9212,12.0541,12.2002,12.3937,12.3236,12.1395,12.2211,12.1357,11.9971,11.9971,11.9971,11.9971,11.9971,11.9971,11.9971,11.9971,11.9971,11.9971,11.9971,11.9971,11.9971,11.9971,11.9971,11.9971,11.9971,11.9971,11.9971,11.9971,11.9971,11.9971,11.9971,11.9971,11.9971,11.9971,11.9971,11.9971,11.9971,11.9971,11.9971,11.9971,11.9971,11.9971,11.9971,11.9971,11.9971,11.9971,11.9971,11.9971,11.9971,11.9971,11.9971,11.9971,11.9971,11.9971,11.9971,11.9971,11.9971,11.9971,11.9971,11.8988,0.0,0.0,0.0,10.4508,10.6178,10.7658,10.8492,11.001,11.1467,11.2393,11.2598,11.2598,11.2621,11.3213,11.3729,11.3729,11.4466,11.509,11.509,11.509,11.509,11.509,11.509,11.5681,11.722,11.7355,11.8093,11.9744,11.9877,11.9915,11.9915,11.9915,11.9971,11.9971,11.9971,11.9572,11.8756,11.8756,11.8263,11.7355,11.7334,11.6899,11.6196,11.6196,11.5795,11.509,11.509,11.509,11.509,11.509,11.5567,11.6479,11.8187,11.9288,12.0313,12.2895,12.2763,12.1395,12.2211,12.1357,11.9971,11.9971,11.9971,11.9971,11.9971,11.9971,11.9971,11.9971,11.9971,11.9971,11.9971,11.9971,11.9971,11.9971,11.9971,11.9971,11.9971,11.9971,11.9971,11.9971,11.9971,11.9971,11.9971,11.9971,11.9971,11.9971,11.9971,11.9971,11.9971,11.9971,11.9971,11.9971,11.9971,11.9971,11.9971,11.9971,11.9971,11.9971,11.9971,11.9971,11.9971,11.9971,11.9971,11.9971,11.9971,11.9971,11.9971,11.9971,11.9971,11.9971,11.9971,11.6693,10.0694,10.229,10.3885,10.6114,10.743,10.8492,10.9379,11.086,11.2165,11.2484,11.2963,11.3327,11.3327,11.3138,11.3138,11.3615,11.4466,11.509,11.509,11.509,11.509,11.509,11.509,11.5719,11.7241,11.741,11.7866,11.906,11.963,11.9687,11.9174,11.963,11.9971,11.9971,11.9402,11.906,11.8756,11.8756,11.8605,11.8301,11.7731,11.7241,11.6993,11.6479,11.6082,11.5833,11.5318,11.509,11.509,11.509,11.5546,11.6403,11.8129,11.963,12.1054,12.3067,12.3464,12.2953,12.2571,12.1756,12.0769,12.0104,11.9971,11.9971,11.9971,11.9971,11.9971,11.9971,12.0332,12.0712,12.0085,12.037,12.0712,12.0085,11.9971,11.9971,11.9971,11.9971,11.9971,11.9971,11.9971,12.0104,12.0712,12.0826,12.0826,12.0826,12.0826,12.0655,11.9991,11.9971,11.9971,11.9971,11.9971,11.9971,11.9971,11.9971,11.9971,11.9971,11.9971,11.9971,11.9971,11.9971,11.9971,11.9971,11.9971,11.9971,11.9971,11.9971,11.9971,11.9971,11.9971,11.8799,10.134,10.3201,10.4785,10.7329,10.853,10.9341,10.9873,11.133,11.2545,11.2545,11.2963,11.3388,11.3669,11.3077,11.2682,11.3213,11.4331,11.509,11.509,11.509,11.509,11.509,11.509,11.5719,11.7241,11.741,11.7866,11.9098,11.963,11.9744,11.9212,11.963,11.9971,11.9971,11.9174,11.8756,11.8756,11.8756,11.8756,11.8756,11.8435,11.8187,11.7866,11.739,11.682,11.6196,11.5719,11.5491,11.5491,11.5204,11.5378,11.5968,11.7618,11.9288,12.0996,12.2421,12.3123,12.3236,12.2325,12.1528,12.0712,12.0104,11.9971,11.9971,11.9971,12.0199,12.0427,12.0427,12.1054,12.1623,12.0996,12.1072,12.1168,12.0541,12.0199,11.9971,11.9971,11.9971,12.0029,12.037,12.0427,12.0712,12.1566,12.1737,12.1737,12.1737,12.1509,12.1054,12.0541,12.0104,11.9971,11.9971,11.9971,11.9971,11.9971,11.7871,11.7566,11.982,11.7814,11.7623,11.982,11.9971,11.9971,11.9971,11.9971,11.9971,11.9971,11.9971,11.9971,11.9971,11.9971,11.9971,10.2659,10.4443,10.5684,10.8113,10.9379,11.0038,11.0038,11.1292,11.2507,11.2507,11.2507,11.2735,11.3555,11.3024,11.2507,11.2598,11.3989,11.5036,11.509,11.509,11.509,11.509,11.509,11.5719,11.7241,11.741,11.8093,11.9801,11.9971,11.9971,11.9971,11.9971,11.9971,11.9971,11.9174,11.8756,11.8756,11.8719,11.8719,11.8756,11.9516,11.9516,11.8832,11.8813,11.7901,11.6365,11.6365,11.631,11.6175,11.5432,11.509,11.5204,11.6765,11.8377,11.9971,12.094,12.1851,12.2439,12.168,12.0826,12.0085,11.9991,11.9991,11.9991,11.9991,12.0655,12.1338,12.1338,12.1965,12.2553,12.2495,12.1984,12.1395,12.1395,12.0655,11.9991,11.9991,12.0029,12.0313,12.1168,12.1338,12.1623,12.2439,12.2513,12.2513,12.2513,12.187,12.1395,12.1338,12.0541,11.9991,11.9991,11.9971,11.982,11.948,11.4022,11.2973,11.8591,11.3663,11.3261,11.9196,11.9763,11.9971,11.9971,11.9971,11.9971,11.9971,11.9971,11.9971,11.9971,11.9971,11.9971,10.2263,10.5772,10.7278,10.9189,10.9835,11.0038,11.0038,11.0784,11.1733,11.2393,11.2014,11.1999,11.3448,11.2568,11.1961,11.3213,11.3783,11.4298,11.4976,11.509,11.509,11.509,11.509,11.5719,11.7241,11.741,11.8093,11.9801,11.9971,11.9971,11.9971,11.9971,11.9971,11.9971,11.9174,11.8756,11.8756,11.8093,11.8093,11.8756,11.8946,11.9288,11.963,11.906,11.8529,11.8129,11.8129,11.739,11.6196,11.6023,11.5605,11.515,11.6175,11.7618,11.9268,12.0712,12.2211,12.3464,12.3236,12.2553,12.1698,12.1168,12.094,12.094,12.094,12.1528,12.2154,12.2154,12.2781,12.335,12.2667,12.2799,12.3009,12.2325,12.1528,12.094,12.094,12.1414,12.1888,12.2116,12.2154,12.2439,12.335,12.3464,12.3464,12.3464,12.3295,12.2953,12.2267,12.1452,12.094,12.094,12.0313,11.8059,11.3376,11.1531,10.926,10.6081,10.8854,11.1322,11.2915,11.7472,11.9971,11.9971,11.9971,11.9971,11.9971,11.9971,11.9971,11.9971,11.9971,11.9971,10.0951,10.4812,10.7367,10.9037,10.9721,11.0038,11.0038,11.0632,11.1467,11.237,11.1862,11.1505,11.2454,11.215,11.2075,11.3077,11.3502,11.4017,11.4922,11.509,11.509,11.509,11.509,11.5719,11.7241,11.741,11.8093,11.9801,11.9971,11.9971,11.9971,11.9971,11.9971,11.9971,11.9174,11.8756,11.8756,11.7504,11.7334,11.8187,11.8585,11.904,11.9402,11.9288,11.9288,11.9232,11.8927,11.8243,11.7276,11.6537,11.5968,11.5605,11.5719,11.6989,11.8832,11.9402,12.111,12.314,12.2839,12.2611,12.2381,12.1984,12.1794,12.1794,12.1794,12.2439,12.3026,12.3026,12.3654,12.4224,12.3709,12.3692,12.3692,12.314,12.2439,12.1965,12.2307,12.2439,12.2457,12.2457,12.2799,12.335,12.4165,12.4337,12.4337,12.4337,12.4034,12.3654,12.3123,12.2325,12.168,12.1339,12.1168,11.8213,11.122,10.8372,10.5268,10.1352,10.1819,10.4792,11.0374,11.3965,11.713,11.9877,11.9971,11.9971,11.9971,11.9971,11.9971,11.9971,11.9971,11.9971,10.0372,10.3646,10.6835,10.8455,10.9455,11.0038,11.0038,11.0518,11.1277,11.2165,11.1657,11.1087,11.1201,11.1786,11.2241,11.237,11.3024,11.3843,11.4786,11.4976,11.509,11.509,11.509,11.5719,11.7241,11.741,11.8093,11.9801,11.9971,11.9971,11.9971,11.9971,11.9971,11.9971,11.9288,11.887,11.8756,11.7162,11.6706,11.7241,11.8073,11.8585,11.8813,11.9459,11.9857,11.9915,11.9212,11.887,11.8643,11.7162,11.6424,11.6175,11.5491,11.6592,11.8491,11.7845,11.9687,12.2381,12.1851,12.2097,12.2667,12.2667,12.2667,12.2667,12.2667,12.3254,12.3978,12.3978,12.4451,12.5021,12.5021,12.4451,12.3978,12.3978,12.3368,12.3026,12.3806,12.335,12.2799,12.2799,12.3464,12.4206,12.4907,12.5021,12.5021,12.5021,12.4393,12.3978,12.3978,12.3236,12.2381,12.1737,12.2097,11.9001,11.0352,10.5052,10.1257,9.8841,9.4176,9.6508,10.7598,10.9667,11.3217,11.8721,11.8873,11.9271,12.0085,12.0085,12.0085,11.9971,11.9971,11.9971,10.4975,10.6759,10.7708,10.9341,10.9873,11.0038,11.0038,11.01,11.0442,11.1277,11.0784,11.0404,11.1087,11.0784,11.0632,11.1315,11.215,11.3024,11.3843,11.458,11.509,11.509,11.509,11.5719,11.7241,11.741,11.8093,11.9801,11.9971,11.9971,11.9971,11.9971,11.9971,11.9971,11.9801,11.9402,11.8756,11.7731,11.6899,11.6424,11.6592,11.739,11.8756,11.8927,11.9288,11.9971,11.9801,11.9345,11.8756,11.8471,11.7504,11.6196,11.6082,11.6706,11.7731,11.8301,12.0199,12.2571,12.3181,12.3464,12.3578,12.3578,12.3578,12.3578,12.3578,12.4148,12.4793,12.4793,12.4907,12.5021,12.5021,12.4907,12.4793,12.4793,12.4679,12.462,12.4734,12.4679,12.4565,12.4565,12.4679,12.4848,12.4962,12.5021,12.5021,12.5021,12.4907,12.4793,12.4793,12.411,12.354,12.3409,12.2799,11.7586,10.5547,10.3117,9.7669,8.6825,8.9516,9.2524,9.4715,10.4994,11.1444,11.3149,11.3149,11.5751,12.1054,12.1054,12.0655,11.9971,11.9971,11.9971,9.9546,10.097,10.271,10.6467,10.8354,10.8641,10.6073,10.7827,11.0214,11.1049,11.0898,11.0746,11.1125,11.0898,11.0898,11.1733,11.2279,11.2796,11.3615,11.4466,11.509,11.509,11.509,11.5546,11.6706,11.7182,11.7924,11.9268,11.9687,11.9971,11.9971,11.9971,11.9971,11.9971,11.9971,11.9744,11.9345,11.8529,11.7731,11.6879,11.6424,11.6651,11.7504,11.7866,11.8529,11.9382,11.9744,11.9744,11.9382,11.8946,11.8301,11.7504,11.6592,11.6765,11.7504,11.7866,11.9345,12.1357,12.2667,12.3464,12.3882,12.432,12.4451,12.4451,12.4451,12.4679,12.5021,12.5021,12.5021,12.5021,12.5021,12.5021,12.5021,12.5021,12.5021,12.5021,12.5021,12.5021,12.5021,12.5021,12.5021,12.5021,12.5021,12.5021,12.5021,12.5021,12.5021,12.5021,12.5021,12.4679,12.4261,12.3864,12.3806,11.8233,10.4379,10.329,9.7526,8.3844,8.5582,8.8472,9.1409,9.7402,10.0984,10.1628,10.4941,10.9931,11.6726,11.3358,11.4742,12.0503,11.3676,11.2152,9.6567,9.7875,10.0303,10.4897,10.7354,10.7738,10.4201,10.6855,10.9864,10.9173,11.0209,11.1163,11.0974,11.1087,11.1353,11.19,11.2127,11.2507,11.3365,11.4239,11.4862,11.5036,11.509,11.5378,11.6175,11.6899,11.7752,11.8699,11.9516,11.9971,11.9971,11.9971,11.9971,11.9971,11.9971,11.9971,11.9971,11.9174,11.8415,11.7731,11.6879,11.6424,11.6289,11.7276,11.7979,11.8529,11.9288,11.9801,11.9915,11.9288,11.8927,11.8643,11.7276,11.7162,11.7676,11.7468,11.8605,12.0427,12.1756,12.2895,12.3978,12.4734,12.5021,12.5021,12.5021,12.5021,12.5021,12.5021,12.5021,12.5021,12.5021,12.5021,12.5021,12.5021,12.5021,12.5021,12.5021,12.5021,12.5021,12.5021,12.5021,12.5021,12.5021,12.5021,12.5021,12.5021,12.5021,12.5021,12.5021,12.5021,12.4734,12.411,12.3365,11.7642,10.4777,10.2754,9.6811,8.4123,8.314,8.5012,8.9492,8.9787,9.0823,9.2772,9.7707,10.3717,11.0687,10.5593,10.799,11.7094,10.6802,10.4579,10.6454,10.7397,10.7877,10.9238,10.9151,10.8945,11.0027,11.0152,10.8543,10.3287,10.6949,11.0974,11.0252,11.0708,11.0974,11.0328,11.086,11.1619,11.2507,11.3365,11.4125,11.4976,11.509,11.5378,11.6175,11.6899,11.7752,11.8699,11.9516,11.9971,11.9971,11.9971,11.9971,11.9971,11.9971,11.9971,11.9971,11.9174,11.8719,11.8643,11.7752,11.6934,11.6289,11.7903,11.8207,11.7618,11.8491,11.9288,11.9971,11.9857,11.9402,11.8756,11.8605,11.8585,11.8529,11.7731,11.9004,12.1168,12.1338,12.2439,12.3978,12.4734,12.5021,12.5021,12.5021,12.5021,12.5021,12.5021,12.5021,12.5021,12.5021,12.5021,12.5021,12.5021,12.5021,12.5021,12.5021,12.5021,12.5021,12.5021,12.5021,12.5021,12.5021,12.5021,12.5021,12.5021,12.5021,12.5021,12.5021,12.5021,12.4962,12.4907,11.9521,11.2999,10.5647,9.9077,9.2229,8.4897,8.3556,8.3269,8.3748,8.4185,8.7534,9.4139,9.485,9.8282,10.4769,10.4189,10.4143,10.449,10.3286,10.2981,9.515,9.7877,10.1339,10.1245,10.4603,10.8113,10.8847,10.9493,10.9476,10.7598,10.8948,11.067,11.1406,11.0936,11.0708,11.1444,11.1315,11.1505,11.2393,11.3251,11.4071,11.4976,11.509,11.5204,11.5491,11.6651,11.7562,11.7903,11.9174,11.9971,11.9971,11.9971,11.9971,11.9971,11.9971,11.9971,11.9971,11.963,11.9268,11.8756,11.8415,11.8073,11.7787,11.8471,11.8585,11.8207,11.8605,11.9212,11.9971,11.9971,11.9744,11.9402,11.8946,11.8756,11.8719,11.8321,11.887,11.9971,12.1509,12.2439,12.3236,12.4565,12.5021,12.5021,12.5021,12.5021,12.5021,12.5021,12.5021,12.5021,12.5021,12.5021,12.5021,12.5021,12.5021,12.5021,12.5021,12.5021,12.5021,12.5021,12.5021,12.5021,12.5021,12.5021,12.5021,12.5021,12.5021,12.5021,12.5021,12.5021,12.5021,12.5021,11.9056,11.2376,10.5747,9.9004,9.2049,8.4991,8.4195,8.3909,8.3909,8.3831,8.5271,8.842,8.851,9.1886,9.8823,9.4797,9.6566,10.3354,9.5482,9.3733,8.9423,9.2267,9.5975,9.4253,10.0361,10.6381,10.4959,10.6888,10.9189,11.0252,11.0404,11.076,11.1938,11.1163,11.0746,11.1976,11.1391,11.1125,11.2051,11.2849,11.3707,11.458,11.4922,11.509,11.509,11.6479,11.741,11.741,11.9004,11.9971,11.9971,11.9971,11.9971,11.9971,11.9971,11.9971,11.9971,11.9971,11.963,11.9154,11.9154,11.9154,11.9154,11.9154,11.8984,11.8813,11.904,11.9288,11.963,11.9857,11.9971,11.9857,11.9288,11.9154,11.906,11.8832,11.8927,11.9402,12.1414,12.2267,12.2723,12.4451,12.5021,12.5021,12.5021,12.5021,12.5021,12.5021,12.5021,12.5021,12.5021,12.5021,12.5021,12.5021,12.5021,12.5021,12.5021,12.5021,12.5021,12.5021,12.5021,12.5021,12.5021,12.5021,12.5021,12.5021,12.5021,12.5021,12.5021,12.5021,12.5021,12.5021,11.7307,11.0215,10.553,9.7373,9.033,8.5176,8.4688,8.4625,8.4832,8.448,8.448,8.4832,8.4832,8.7352,9.2521,8.7806,8.9978,9.8273,8.916,8.7051,9.5546,9.5807,9.4902,9.1037,9.76,10.3758,9.913,10.2369,10.6797,10.8379,11.001,11.1201,11.1239,11.1201,11.1201,11.1239,11.0518,11.029,11.1125,11.2014,11.2849,11.3615,11.4526,11.509,11.509,11.6479,11.741,11.741,11.9004,11.9971,11.9971,11.9971,11.9971,11.9971,11.9971,11.9971,11.9971,11.9971,11.9971,11.9915,11.9915,11.9915,11.9915,11.9915,11.9516,11.8813,11.9573,11.9516,11.8832,11.963,11.9971,11.9971,11.9971,11.9915,11.9857,11.906,11.9232,12.0085,12.0996,12.1851,12.2723,12.4451,12.5021,12.5021,12.5021,12.5021,12.5021,12.5021,12.5021,12.5021,12.5021,12.5021,12.5021,12.5021,12.5021,12.5021,12.5021,12.5021,12.5021,12.5021,12.5021,12.5021,12.5021,12.5021,12.5021,12.5021,12.5021,12.5021,12.5021,12.5021,12.5021,12.5021,11.3163,10.5223,10.5161,9.3159,8.5609,8.5545,8.491,8.4832,8.5455,8.5545,8.5545,8.5545,8.5545,8.5545,8.5609,8.5545,8.5609,8.5685,8.5609,8.5545,9.0281,9.435,9.7496,8.5636,9.3918,10.3721,9.9044,10.2282,10.6759,10.8341,10.8644,10.9037,11.0176,11.0366,11.0746,11.1938,11.095,11.0532,11.1938,11.234,11.2849,11.3615,11.4526,11.509,11.509,11.6023,11.6786,11.7355,11.8491,11.9345,11.9915,11.9971,11.9971,11.9971,11.9971,11.9971,11.9971,11.9971,11.9971,11.9971,11.9971,11.9971,11.9971,11.9971,11.9801,11.9573,11.9801,11.9801,11.9573,11.9857,11.9971,11.9971,11.9971,11.9971,11.9915,11.963,11.9744,12.0085,12.0997,12.1794,12.2627,12.3806,12.4565,12.5021,12.5021,12.5021,12.5021,12.5021,12.5021,12.5021,12.5021,12.5021,12.5021,12.5021,12.5021,12.5021,12.5021,12.5021,12.5021,12.5021,12.5021,12.5021,12.5021,12.5021,12.5021,12.5021,12.5021,12.5021,12.5021,12.5021,12.5021,12.5021,11.3103,10.5161,10.5161,9.3096,8.5545,8.5545,8.5337,8.5312,8.5545,8.5545,8.5545,8.5545,8.5545,8.5545,8.5545,8.5545,8.5545,8.5545,8.5545,8.5545,8.9851,9.2129,9.398,8.4702,9.1583,9.9358,9.4628,9.7907,10.2408,10.3983,10.2255,10.1653,10.5532,10.6781,10.8368,11.1999,11.1672,11.114,11.152,11.2127,11.2735,11.3213,11.4011,11.4694,11.5036,11.574,11.6592,11.7334,11.8207,11.9154,11.9915,11.9971,11.9971,11.9971,11.9971,11.9971,11.9971,11.9971,11.9971,11.9971,11.9971,11.9971,11.9971,11.9971,11.9971,11.9971,11.9971,11.9971,11.9971,11.9971,11.9971,11.9971,11.9971,11.9971,11.9971,11.9971,11.9971,12.0085,12.0997,12.1794,12.2609,12.354,12.4337,12.5021,12.5021,12.5021,12.5021,12.5021,12.5021,12.5021,12.5021,12.5021,12.5021,12.5021,12.5021,12.5021,12.5021,12.5021,12.5021,12.5021,12.5021,12.5021,12.5021,12.5021,12.5021,12.5021,12.5021,12.5021,12.5021,12.5021,12.5021,12.5021,11.5347,10.6882,10.192,9.1636,8.5545,8.5545,8.5545,8.5545,8.5545,8.5545,8.5545,8.5545,8.5545,8.5545,8.5545,8.5545,8.5545,8.5545,8.5545,8.5545,9.262,8.9535,8.6423,8.669,8.959,9.1301,8.7283,9.0673,9.5039,9.6317,9.2727,9.1372,9.8214,10.1114,10.4697,11.1453,11.2545,11.2014,11.0532,11.171,11.2735,11.2735,11.3388,11.4185,11.4976,11.5719,11.6479,11.7241,11.8187,11.904,11.9801,11.9915,11.9971,11.9971,11.9971,11.9971,11.9971,11.9971,11.9971,11.9971,11.9971,11.9971,11.9971,11.9971,11.9971,11.9971,11.9991,11.9971,11.9971,11.9991,11.9971,11.9971,11.9971,11.9971,11.9971,11.9971,11.9971,12.0085,12.0883,12.1737,12.2553,12.3464,12.4261,12.4907,12.4962,12.5021,12.5021,12.5021,12.5021,12.5021,12.5021,12.5021,12.5021,12.5021,12.5021,12.5021,12.5021,12.5021,12.5021,12.5021,12.5021,12.5021,12.5021,12.5021,12.5021,12.5021,12.5021,12.5021,12.5021,12.5021,12.5021,12.5021,11.9056,10.9944,9.7215,9.0043,8.6058,8.5545,8.5545,8.5545,8.5545,8.5545,8.5545,8.5545,8.5545,8.5545,8.5545,8.5545,8.5545,8.5545,8.5545,8.5545,8.8288,8.8428,8.8878,8.1459,8.1378,8.3921,8.6544,9.1094,9.396,9.1301,9.2442,9.3834,9.3759,9.7723,10.3516,11.128,11.2545,11.2621,11.2818,11.3783,11.4466,11.4466,11.515,11.5491,11.509,11.5264,11.5681,11.6424,11.7276,11.8093,11.904,11.963,11.9971,11.9971,11.9971,11.9971,11.9971,11.9971,11.9971,11.9971,11.9971,11.9971,11.9971,11.9971,11.9971,11.9971,12.0655,12.0598,11.9971,12.0712,12.0541,11.9971,11.9971,11.9971,11.9971,11.9971,11.9971,11.9971,12.0199,12.0787,12.1737,12.2553,12.3368,12.4224,12.4793,12.5021,12.5021,12.5021,12.5021,12.5021,12.5021,12.5021,12.5021,12.5021,12.5021,12.5021,12.5021,12.5021,12.5021,12.5021,12.5021,12.5021,12.5021,12.5021,12.5021,12.5021,12.5021,12.5021,12.5021,12.5021,12.5021,12.5021,11.9056,11.1796,10.359,9.6872,9.0931,8.584,8.5545,8.5545,8.5545,8.5545,8.5545,8.5545,8.5545,8.5545,8.5545,8.5545,8.5545,8.5545,8.5545,8.5545,9.223,9.0001,8.7682,8.1857,8.1003,8.2363,8.5301,8.5908,8.6806,9.0207,8.9129,8.8169,9.0088,9.5938,10.1276,10.3589,10.883,11.2682,11.3138,11.3593,11.4217,11.4976,11.5057,11.5209,11.5605,11.5264,11.5378,11.6175,11.6993,11.779,11.8719,11.9516,11.9971,11.9971,11.9971,11.9971,11.9971,11.9971,12.0142,12.0541,12.0104,12.0142,12.0541,12.0104,11.9971,11.9971,12.0883,12.0769,11.9991,12.094,12.0769,11.9971,11.9971,11.9971,11.9971,11.9971,11.9971,11.9971,11.9971,12.0541,12.1395,12.1756,12.2781,12.3882,12.4337,12.4679,12.5021,12.5021,12.5021,12.5021,12.5021,12.5021,12.5021,12.5021,12.5021,12.5021,12.5021,12.5021,12.5021,12.5021,12.5021,12.5021,12.5021,12.5021,12.5021,12.5021,12.5021,12.5021,12.5021,12.5021,12.38,12.0741,11.4502,10.7833,10.1268,9.47,8.9398,8.5749,8.5545,8.5545,8.5545,8.5545,8.5545,8.5545,8.5545,8.5545,8.5545,8.5545,8.5545,8.5545,8.5545,8.5545,9.7664,9.241,8.6453,8.4735,8.3471,8.2707,8.3034,7.9809,7.9687,8.9945,8.5913,8.2291,8.7871,9.5139,9.9167,9.5756,10.4947,11.2598,11.2682,11.2735,11.3305,11.4862,11.4352,11.4526,11.5947,11.5491,11.5378,11.6023,11.6879,11.7752,11.8529,11.9402,11.9971,11.9971,11.9971,11.9971,11.9971,11.9971,12.0313,12.1054,12.0313,12.0313,12.1054,12.0313,11.9971,11.9971,12.0883,12.0769,11.9991,12.094,12.0769,11.9971,11.9971,11.9971,11.9971,11.9971,11.9971,11.9971,11.9971,12.0427,12.1111,12.1281,12.2269,12.3523,12.375,12.432,12.4793,12.4793,12.4907,12.5021,12.5021,12.5021,12.5021,12.5021,12.5021,12.5021,12.5021,12.5021,12.5021,12.5021,12.5021,12.5021,12.5021,12.5021,12.5021,12.5021,12.5021,12.5021,12.5021,12.4059,12.1314,11.5648,10.8201,10.1424,9.5928,8.9398,8.5545,8.5545,8.5545,8.5545,8.5545,8.5545,8.5545,8.5545,8.5545,8.5545,8.5545,8.5545,8.5545,8.5545,8.5545,8.5545,9.3742,9.3025,9.1665,8.6291,8.2023,7.8969,7.8374,8.0631,8.3479,8.5898,8.8689,9.0372,8.9337,9.4753,9.9785,10.1065,10.7628,11.2773,11.3441,11.3555,11.3897,11.4976,11.4976,11.4976,11.5204,11.515,11.5128,11.5264,11.6592,11.7504,11.7582,11.9118,11.9971,11.9971,11.9971,11.9971,11.9971,11.9971,11.9991,12.0142,11.9991,11.9991,12.0104,11.9991,11.9971,11.9971,12.0883,12.0769,11.9991,12.094,12.0769,11.9971,11.9971,11.9971,11.9971,11.9971,11.9971,11.9971,11.9971,12.0029,12.0256,12.1054,12.1509,12.1965,12.3409,12.3882,12.3996,12.3996,12.4451,12.5021,12.5021,12.5021,12.5021,12.5021,12.5021,12.5021,12.5021,12.5021,12.5021,12.5021,12.5021,12.5021,12.5021,12.5021,12.5021,12.5021,12.5021,12.5021,12.5021,12.0071,11.6215,11.5191,10.4177,9.6496,9.5488,8.9398,8.5545,8.5545,8.5545,8.5545,8.5545,8.5545,8.5545,8.5545,8.5545,8.5545,8.5545,8.5545,8.5545,8.5545,8.5545,8.5545,9.5974,9.756,9.8052,9.2389,8.8774,8.6646,8.6661,8.5471,8.63,9.3088,9.3753,9.3111,9.3017,9.8521,10.2777,10.2016,10.7905,11.2659,11.3024,11.31,11.3593,11.4922,11.4672,11.4694,11.5605,11.5318,11.509,11.509,11.6137,11.6993,11.7355,11.8605,11.9516,11.9915,11.9971,11.9971,11.9971,12.0427,12.0655,12.0655,12.0199,12.0199,12.0655,12.0199,11.9971,11.9971,12.0883,12.1054,12.0712,12.111,12.1054,12.0655,12.0104,11.9971,11.9971,11.9971,11.9971,11.9971,11.9971,11.9971,11.9991,12.0427,12.0883,12.1395,12.2251,12.2439,12.2535,12.3009,12.3692,12.4337,12.4337,12.4337,12.4451,12.4907,12.4679,12.4451,12.4907,12.5021,12.5021,12.5021,12.5021,12.5021,12.5021,12.5021,12.5021,12.5021,12.5021,12.5021,12.5021,11.9212,11.3682,11.006,10.1113,9.3973,9.0396,8.7284,8.5545,8.5545,8.5545,8.5545,8.5545,8.5545,8.5325,8.4962,8.4962,8.5182,8.5545,8.5545,8.5545,8.5545,8.5182,8.4962,9.9584,0.0,10.2732,9.7175,9.5026,9.4252,0.0,9.0652,8.9847,10.0338,9.8878,9.6379,9.8259,10.2986,10.5882,10.37,10.8533,11.2484,11.2279,11.2568,11.3365,11.49,11.4466,11.4602,11.6082,11.5546,11.509,11.509,11.5795,11.6592,11.7355,11.8301,11.9154,11.9915,12.0142,12.0218,12.0218,12.094,12.1281,12.1281,12.0332,12.0313,12.094,12.0218,12.0085,12.0313,12.0769,12.1168,12.1528,12.1168,12.1111,12.1168,12.0313,11.9971,11.9971,11.9971,11.9971,11.9971,11.9971,11.9971,11.9971,11.9971,12.0427,12.1054,12.1263,12.1281,12.1395,12.1984,12.1735,12.1615,12.3114,12.2375,12.1839,12.4195,12.4224,12.4034,12.4793,12.5021,12.5021,12.5021,12.5021,12.5021,12.5021,12.5021,12.5021,12.5021,12.5021,12.4413,12.2836,11.6886,11.0215,10.359,9.6997,9.1058,8.5968,8.5545,8.5545,8.5545,8.5545,8.5467,8.5312,8.5312,8.4962,8.4403,8.4403,8.461,8.5104,8.5104,8.5104,8.5104,8.461,8.4403,0.0,10.414,10.3433,9.7318,9.5736,9.554,9.4822,9.4314,0.0,10.1279,10.2795,10.3572,10.5298,10.6621,10.7821,10.9164,11.1181,11.2241,11.1391,11.2682,11.3957,11.4976,11.5036,11.5318,11.6175,11.5546,11.509,11.509,11.5795,11.6592,11.7355,11.8301,11.9154,11.9915,12.0769,12.1168,12.1168,12.1281,12.1281,12.1281,12.0332,11.9971,12.0029,11.9971,12.0427,12.1168,12.0332,12.0901,12.2267,12.0674,12.0541,12.1168,12.0313,11.9971,11.9971,11.9971,11.9971,11.9971,11.9971,11.9971,11.9971,11.9971,11.9971,12.0199,12.1054,12.1281,12.1281,12.1338,11.7693,11.5079,12.1007,11.8157,11.5447,12.2292,12.3864,12.4034,12.4793,12.5021,12.5021,12.5021,12.5021,12.5021,12.5021,12.5021,12.5021,12.5021,12.5021,12.274,11.6586,10.9999,10.3375,9.6806,9.0197,8.6058,8.5545,8.5545,8.5545,8.5545,8.5545,8.526,8.4688,8.4625,8.4403,8.3831,8.3831,8.3831,8.3909,8.3909,8.3909,8.3909,8.3831,8.3831,10.4443,10.5544,10.5839,10.3081,10.1951,10.1458,10.1126,9.7999,9.6854,10.283,10.0745,9.9572,10.5298,10.6532,10.7481,10.9697,11.1444,11.2621,11.2743,11.3274,11.3669,11.3533,11.3897,11.4352,11.464,11.5378,11.5605,11.509,11.5378,11.5833,11.6651,11.7504,11.8321,11.9174,12.0028,12.0427,12.0427,12.0996,12.0996,12.0427,12.0085,11.9971,11.9971,11.9971,12.0104,12.0427,12.0085,12.0901,0.0,12.0655,12.0769,12.187,12.0446,11.9971,11.9971,11.9971,11.9971,11.9971,11.9971,11.9971,11.9971,11.9971,11.9971,11.9991,12.0313,12.0427,12.0427,12.0427,11.646,11.2736,11.5205,11.4001,11.3006,11.6295,11.9711,12.2611,12.3978,12.4261,12.4393,12.4907,12.5021,12.5021,12.5021,12.5021,12.5021,12.5021,12.5021,12.254,11.5914,10.9267,10.2693,9.6149,8.9471,8.5545,8.5545,8.5545,8.5325,8.4974,8.491,8.4688,8.4117,8.4054,8.3831,8.3348,8.3634,8.3623,8.3286,8.3623,8.3779,8.3779,8.3416,8.3286,10.4709,10.5658,10.657,10.6038,10.5241,10.4622,10.4925,10.1397,9.949,10.4419,10.1495,9.9954,10.5952,10.7063,10.7708,10.9683,11.1444,11.2621,11.291,11.3388,11.3502,11.2963,11.3388,11.3729,11.3729,11.5036,11.5774,11.5491,11.5432,11.5795,11.6592,11.6879,11.7334,11.7959,11.9232,11.9971,11.9971,12.0826,12.0997,12.037,12.0085,11.9971,11.9971,11.9971,12.0085,12.0313,12.0085,12.0901,12.2343,12.0655,12.0787,12.1984,12.0541,11.9971,11.9971,11.9971,11.9971,11.9971,11.9971,11.9971,11.9971,11.9971,11.9971,11.9971,11.9971,11.9971,11.9971,11.9971,11.4348,10.8887,11.0876,10.9906,10.9107,11.1878,11.7066,12.168,12.3123,12.3368,12.3578,12.411,12.4451,12.462,12.462,12.4793,12.5021,12.5021,12.5021,12.254,11.5914,10.9267,10.2693,9.6149,8.9471,8.5467,8.526,8.526,8.4974,8.4339,8.4325,8.4054,8.3546,8.3556,8.327,8.2699,8.3052,8.3052,8.2699,8.3052,8.3208,8.3208,8.2844,8.2699,10.3543,10.4368,10.5001,10.4963,10.4368,10.4037,10.4774,10.4318,10.4216,10.5924,10.6304,10.6747,10.8379,10.8644,10.8948,10.9835,11.1406,11.2203,11.1353,11.2682,11.3729,11.3729,11.3729,11.3729,11.3729,11.452,11.5378,11.6175,11.6196,11.6592,11.7334,11.6651,11.6251,11.6251,11.8605,11.9915,11.9915,12.0826,12.1281,12.1281,12.037,11.9971,11.9971,11.9971,12.0427,12.1263,12.0313,12.0901,12.2343,12.0655,12.0484,12.1168,12.0313,11.9971,11.9971,11.9971,11.9915,11.982,11.982,11.982,11.982,11.9763,11.982,11.9915,11.982,11.982,11.982,11.9915,11.0918,10.2703,10.8912,10.5763,10.2781,10.9962,11.6512,12.1414,12.2267,12.2457,12.2457,12.2457,12.3236,12.3806,12.3806,12.4451,12.4962,12.4962,12.4962,12.254,11.5854,10.9206,10.2632,9.6053,8.9471,8.526,8.4625,8.4547,8.4339,8.3779,8.3779,8.3556,8.2984,8.2984,8.2699,8.2065,8.2004,8.2004,8.2004,8.2004,8.2004,8.2004,8.2004,8.2004,10.3077,10.4747,10.6443,10.5267,10.5279,10.548,10.5039,10.1741,10.0177,10.5248,10.318,10.1964,10.692,10.7809,10.8354,10.9759,11.0456,11.1102,11.2014,11.3046,11.3274,11.206,11.2507,11.291,11.291,11.3138,11.3875,11.5318,11.5432,11.5546,11.5774,11.5546,11.5681,11.6196,11.6934,11.7618,11.8187,11.906,11.9516,11.9516,11.9801,11.9971,11.9971,11.9971,12.0085,12.0313,12.0085,12.056,12.1528,12.0427,12.0484,12.1168,12.0313,11.9971,11.9971,11.9971,11.713,11.3376,11.3376,11.3376,11.2627,10.8098,11.2721,11.9139,11.4711,11.3376,11.431,11.8704,11.7224,11.2721,10.5763,9.9125,9.6032,10.2695,10.9117,11.5214,12.0515,12.1642,12.1794,12.2381,12.2685,12.2895,12.2895,12.3026,12.3464,12.4092,12.4206,12.0235,10.9478,10.6391,10.0834,8.9689,8.6709,8.526,8.4625,8.4547,8.4195,8.327,8.3208,8.2984,8.2351,8.2351,8.2221,8.2004,8.2004,8.2004,8.2004,8.2004,8.2004,8.2004,8.2004,8.2004,10.2735,10.4443,10.6216,10.5229,10.5127,10.529,10.5001,10.2103,10.0755,10.5348,10.3635,10.2589,10.672,10.7733,10.8265,10.9341,11.0024,11.0708,11.1444,11.2226,11.234,11.1263,11.1444,11.1672,11.1976,11.237,11.3077,11.4412,11.515,11.5378,11.509,11.509,11.5264,11.5774,11.6116,11.6479,11.6899,11.779,11.8415,11.8756,11.9268,11.963,11.9971,11.9971,11.9971,11.982,11.7321,11.7941,12.0522,11.745,11.6568,11.6957,11.6457,11.4654,11.2419,11.2419,11.0014,10.6782,10.6782,10.6782,10.6173,10.2323,10.6222,11.1265,10.4902,10.6582,11.138,11.5149,11.8022,11.7623,10.7481,10.0105,9.5672,9.6985,10.4081,11.1788,11.6115,11.8998,12.0883,12.1357,12.1756,12.1984,12.1984,12.2267,12.2627,12.3236,12.3254,11.9647,10.9549,10.6173,10.0682,9.0192,8.6548,8.461,8.3987,8.3909,8.3546,8.2699,8.2621,8.2429,8.2065,8.2004,8.2004,8.2004,8.2004,8.2004,8.2004,8.2004,8.2004,8.2004,8.2004,8.2004,10.2286,10.3711,10.5077,10.5001,10.4481,10.4227,10.4925,10.4481,10.4379,10.6088,10.6468,10.6658,10.7291,10.8075,10.8682,10.8682,10.9934,11.0784,11.0176,11.0746,11.1201,11.1201,11.0632,11.048,11.1163,11.2089,11.291,11.3441,11.515,11.5795,11.4976,11.5036,11.509,11.509,11.5774,11.6137,11.6137,11.6879,11.7731,11.8529,11.8605,11.904,11.9687,11.9687,11.9404,11.8629,11.2959,11.3455,11.7757,11.2073,10.9759,10.9759,10.9759,10.6173,10.1083,10.1083,10.0728,10.0223,10.0223,10.0223,10.0105,9.9544,9.9275,9.8291,9.2979,9.95,10.8948,11.0164,11.4201,11.6828,11.1172,10.5002,9.8594,9.2163,10.0014,10.9168,11.0374,11.5055,11.9291,11.982,12.0598,12.1168,12.1168,12.1756,12.2267,12.2343,12.2343,11.9891,11.2934,10.7307,10.1199,9.4139,8.7626,8.3546,8.3062,8.2984,8.2715,8.2082,8.2004,8.2004,8.2004,8.2004,8.2004,8.2004,8.1987,8.1926,8.1926,8.1926,8.1926,8.1926,8.2004,8.2004,10.1327,10.4216,10.5848,10.5153,10.5393,10.5822,10.6,10.5355,10.5191,10.6911,10.7253,10.7101,10.6645,10.7746,10.8682,10.8682,10.8986,10.9593,11.0784,11.1087,11.1201,11.1201,11.171,11.1786,11.1277,11.2568,11.2932,11.1794,11.3989,11.4922,11.4071,11.4694,11.509,11.509,11.5264,11.5318,11.5318,11.6082,11.6592,11.6765,11.741,11.779,11.7979,11.7979,11.5591,11.1448,11.0153,10.7873,10.4994,10.3677,10.3115,10.3115,10.3115,10.2291,10.1083,10.1083,9.7878,9.3607,9.3607,9.3607,9.2796,8.7745,8.5856,8.6089,8.9242,9.212,9.6416,10.6885,10.7206,10.4177,10.3311,9.8384,9.1953,8.5608,9.002,9.8384,10.8447,11.1669,11.4065,11.8988,12.0085,12.0199,12.0199,12.0332,12.0674,12.1414,12.1528,11.7619,10.6682,10.417,9.8775,8.6743,8.4484,8.3546,8.3062,8.2984,8.2715,8.2082,8.2004,8.2004,8.2004,8.2004,8.2004,8.2004,8.165,8.1442,8.1442,8.1442,8.1442,8.1442,8.1858,8.2004,10.0875,10.3722,10.5101,10.4963,10.5305,10.5696,10.5696,10.5013,10.4785,10.5988,10.6254,10.614,10.5772,10.7316,10.853,10.8151,10.8758,10.9645,11.0518,11.0632,11.0784,11.1163,11.1277,11.1482,11.1771,11.2226,11.234,11.1847,11.3077,11.3647,11.3191,11.3957,11.4634,11.5036,11.509,11.509,11.509,11.5491,11.5888,11.6251,11.6651,11.7013,11.741,11.741,11.4251,10.8716,10.5614,10.2758,9.9998,9.6945,9.586,9.6138,9.6138,9.4415,9.1981,9.1981,8.9838,8.6982,8.6982,8.6982,8.6352,8.246,8.1018,8.1345,8.4311,8.7393,9.1264,9.8187,9.9918,9.9808,10.0162,9.5743,9.0375,8.7025,8.6634,8.9624,9.9334,10.6281,11.2419,11.8742,11.9971,11.9971,11.9971,11.9971,12.0085,12.0598,12.0655,11.6225,10.3806,10.2174,9.7187,8.3962,8.2766,8.2844,8.2559,8.2569,8.2413,8.2065,8.178,8.165,8.165,8.1355,8.1208,8.1208,8.0949,8.0793,8.0793,8.0793,8.0793,8.0793,8.107,8.1208,9.8871,10.1877,10.3543,10.4318,10.466,10.4812,10.5115,10.4557,10.4227,10.5039,10.5191,10.5153,10.5001,10.6899,10.8303,10.7822,10.8885,10.9873,11.0176,11.0062,11.029,11.1125,11.0632,11.0798,11.2165,11.1733,11.1657,11.2279,11.2165,11.2165,11.2279,11.291,11.3707,11.458,11.4786,11.4922,11.509,11.509,11.5378,11.6061,11.6061,11.6365,11.6993,11.6993,11.3251,10.6322,10.0987,9.7679,9.5627,9.0351,8.8449,8.8934,8.8934,8.6023,8.1718,8.1718,8.1718,8.1718,8.1718,8.1718,8.1572,8.0525,8.0161,8.0101,8.0032,8.3724,8.8173,8.9322,9.2698,9.6166,9.7368,9.3329,8.8934,8.8934,8.5286,8.3161,8.8611,9.9764,11.1008,11.8496,11.9971,11.9971,11.9971,11.9971,11.9971,11.9971,11.9971,11.5399,10.2703,10.1083,9.66,8.4902,8.2689,8.2004,8.2004,8.1926,8.1935,8.1935,8.1364,8.1078,8.1078,8.0576,8.0291,8.0291,8.0179,8.0161,8.0161,8.0161,8.0161,8.0161,8.0239,8.0291,9.1226,9.7041,10.1834,10.2583,10.3342,10.4341,10.5772,10.5469,10.5039,10.5962,10.6164,10.5886,10.5115,10.6443,10.786,10.8417,10.872,10.9365,11.0822,11.0442,11.029,11.1125,11.1125,11.1125,11.1353,11.1961,11.2089,11.1429,11.0708,11.0632,11.1353,11.1452,11.1923,11.2849,11.3555,11.4298,11.509,11.509,11.5128,11.5204,11.5204,11.5264,11.5378,11.5378,10.9459,9.9123,9.8321,9.222,8.2734,8.1862,8.1607,8.166,8.166,8.1204,8.0525,8.0525,8.0525,8.0525,8.0525,8.0525,8.0447,7.9798,7.959,7.952,7.9086,7.9547,8.1428,8.7456,8.5746,8.3489,8.9527,8.6408,8.166,8.166,8.105,8.0922,8.2311,9.2596,10.519,11.7551,11.9971,11.9971,11.9971,11.9971,11.9971,11.9971,11.9971,11.5399,10.2703,10.1083,9.8294,9.1078,8.533,8.2004,8.2004,8.165,8.1364,8.1364,8.0793,8.0447,8.0447,8.0309,8.0291,8.0291,7.9824,7.959,7.959,7.959,7.959,7.959,8.0083,8.0291,8.8763,9.3338,9.6471,10.0121,10.171,10.2708,10.3874,10.3836,10.3901,10.5267,10.5252,10.5063,10.562,10.6342,10.7101,10.7847,10.8379,10.8948,10.9669,10.991,11.019,11.048,11.0518,11.0708,11.1163,11.1125,11.1178,11.1201,11.0442,11.0366,11.1163,11.1201,11.1391,11.1733,11.2621,11.3479,11.4298,11.4808,11.509,11.509,11.509,11.509,11.509,11.509,10.853,9.7265,9.7265,9.0453,7.9383,7.9383,7.9598,7.9884,7.9884,8.0032,8.0291,8.0291,8.0291,8.0291,8.0291,7.9876,7.939,7.9164,7.9086,7.9027,7.88,7.8748,7.9337,8.2406,8.1219,7.9756,8.2786,8.1741,7.9884,7.9884,8.0083,8.0369,8.0654,8.7849,9.7185,10.6962,11.4821,11.9971,11.9971,11.9971,11.9971,11.9971,11.9971,11.5232,10.224,10.0153,9.6142,8.629,8.2724,8.1009,8.1009,8.0871,8.0715,8.0715,8.0161,7.9884,7.9884,7.9598,7.9235,7.889,7.8604,7.8378,7.8118,7.8118,7.8248,7.8526,7.876,7.9045,8.3567,8.8029,9.1297,9.6179,9.9027,10.0799,10.1634,10.1776,10.1855,10.2015,10.2764,10.3417,10.3372,10.4771,10.6228,10.7063,10.7708,10.8189,10.8606,10.9265,10.9683,10.9683,10.9873,11.0252,11.086,11.0366,11.0252,11.086,11.0328,11.0252,11.086,11.0898,11.0898,11.0898,11.1748,11.2507,11.3046,11.3989,11.4444,11.4444,11.4634,11.4694,11.4694,11.3361,10.6917,9.6727,9.517,8.8387,7.8455,7.8455,7.8689,7.9045,7.9045,7.9305,7.9668,7.9798,7.9798,7.9608,7.9461,7.889,7.8248,7.8248,7.8248,7.8248,7.8248,7.8248,7.8248,7.8248,7.8384,7.8455,7.8455,7.8897,7.9312,7.9312,7.959,7.9876,8.0032,8.5087,9.1145,9.642,10.8059,11.7047,11.7047,11.8479,11.963,11.963,11.963,11.5493,10.4018,10.0622,9.4995,8.3898,8.1254,8.0291,8.0291,8.0161,8.0083,8.0083,7.9442,7.9045,7.9045,7.8533,7.804,7.754,7.754,7.7333,7.6975,7.6975,7.7183,7.754,7.754,7.7832,7.1492,7.9401,8.7821,8.9979,9.4701,9.909,9.9878,10.0068,9.888,9.4725,9.8475,10.1014,9.6177,10.0582,10.5305,10.6228,10.643,10.6949,10.8455,10.872,10.8758,10.8758,10.9493,11.0076,11.0114,11.0076,11.0076,11.0114,11.0076,11.0076,11.0114,11.0062,11.0062,11.0062,11.086,11.1315,11.1353,11.2241,11.2712,11.2712,11.3388,11.3789,11.3606,10.8652,10.2887,9.6475,9.0662,8.4229,7.7826,7.7826,7.7826,7.7826,7.7826,7.7826,7.7981,7.8592,7.8403,7.7826,7.7339,7.7105,7.7053,7.7053,7.7053,7.7053,7.7053,7.7053,7.7053,7.7053,7.7411,7.7826,7.7826,7.8267,7.8741,7.8741,7.88,7.8956,7.9442,8.4543,8.9297,9.0145,10.0475,10.9055,10.9055,11.4466,11.8832,11.8832,11.8832,11.6488,10.9985,10.3811,9.7303,9.0085,8.3877,8.0291,8.0291,7.9824,7.9538,7.9538,7.8474,7.7826,7.7826,7.7333,7.7053,7.7053,7.7053,7.6975,7.6975,7.6975,7.6975,7.7053,7.7053,7.7053,6.8409,7.2484,7.7446,8.5811,8.9792,9.2876,9.737,9.6276,9.4006,9.3028,9.1938,9.1935,9.4456,9.6464,9.9416,10.458,10.5469,10.5886,10.7025,10.7595,10.8075,10.8606,10.8948,10.9379,11.0,11.0038,11.0038,11.0038,11.0038,11.0038,11.0038,10.9455,10.9138,10.9138,10.9403,10.9821,11.0404,11.1239,11.1976,11.2545,11.2849,11.2963,11.2879,11.101,10.4795,9.5332,9.3116,8.6531,7.7255,7.7618,7.754,7.7255,7.7618,7.754,7.7255,7.7546,7.7469,7.7261,7.7053,7.6975,7.6975,7.6975,7.6975,7.6975,7.6975,7.6975,7.6975,7.6975,7.7105,7.7261,7.7261,7.7391,7.7598,7.7598,7.7598,7.7754,7.8267,8.0169,8.328,8.836,9.6128,10.3228,10.771,11.3727,11.8093,11.8699,11.8756,11.4987,10.4363,10.0575,9.469,8.3847,8.0631,7.9312,7.9312,7.8741,7.8397,7.8397,7.7676,7.7261,7.7261,7.7047,7.6612,7.5853,7.5853,7.5495,7.4712,7.4712,7.4924,7.5343,7.5703,7.5983,6.3584,6.6298,6.9913,7.8377,8.3627,8.793,9.2427,9.1421,8.9253,8.8324,8.5988,8.4912,8.7679,9.121,9.525,9.9982,10.268,10.4443,10.5366,10.4569,10.4898,10.753,10.6726,10.6836,10.9286,10.7886,10.7574,10.9413,10.9835,11.0038,11.0038,10.9455,10.8986,10.8682,10.8682,10.8834,10.9151,10.9683,11.0252,11.0874,11.114,11.1406,11.1604,10.8135,10.2212,9.4484,9.0443,8.4138,7.6689,7.6989,7.7105,7.7053,7.7333,7.7391,7.7261,7.7261,7.6767,7.6123,7.5858,7.5776,7.5776,7.5776,7.591,7.6118,7.6118,7.6274,7.6404,7.6404,7.6476,7.6632,7.6632,7.6845,7.6975,7.6975,7.6975,7.7053,7.7411,7.7488,7.8982,8.3988,9.0036,9.6474,10.3154,10.9667,11.4942,11.7852,11.8585,11.5738,10.7368,10.1742,9.3541,8.042,7.8611,7.8403,7.8403,7.7826,7.7488,7.7488,7.6975,7.6554,7.6404,7.6196,7.5625,7.466,7.466,7.4219,7.344,7.344,7.3729,7.4148,7.4508,7.479,5.6322,6.0729,6.5806,6.7682,7.6122,8.4139,8.4857,8.5405,8.4507,8.0066,8.0584,8.0356,7.5453,8.4701,9.2939,9.2562,9.7911,10.2465,10.3386,9.9568,9.9005,10.5072,10.2431,10.2295,10.776,10.3513,10.2732,10.8195,10.9455,10.9948,10.9948,10.9948,10.9569,10.8682,10.8644,10.8265,10.7519,10.7519,10.7519,10.7519,10.8265,10.9062,10.9585,9.9615,9.4878,9.3905,8.2349,7.6878,7.5926,7.5926,7.6347,7.6897,7.6897,7.7261,7.7696,7.7696,7.6326,7.4356,7.3729,7.3495,7.344,7.344,7.3914,7.4408,7.4408,7.4794,7.5153,7.5153,7.5568,7.5926,7.5926,7.6424,7.6897,7.6897,7.6897,7.6897,7.6917,7.6917,7.6975,7.6975,8.2332,8.8818,9.494,10.2162,10.9397,11.6371,11.8187,11.8946,11.9499,10.7736,9.4212,8.0863,7.8397,7.7748,7.7748,7.7261,7.6917,7.6897,7.6347,7.5719,7.5205,7.4694,7.4148,7.344,7.344,7.3443,7.3388,7.3443,7.3443,7.3388,7.3443,7.344,5.556,5.6457,5.8604,6.4845,6.8306,7.1439,7.6087,7.4784,7.2427,7.1533,6.9879,6.9459,7.2285,7.6332,8.1892,9.0181,9.3646,9.5481,9.609,9.5648,9.4856,9.3765,9.273,9.4237,9.9808,9.9833,10.1837,10.7415,10.8568,10.9024,10.9024,10.9024,10.891,10.8682,10.8113,10.7696,10.7519,10.7519,10.7519,10.7519,10.7696,10.7974,10.81,10.5261,9.9486,9.152,8.8267,8.2033,7.4219,7.4694,7.498,7.5188,7.5573,7.5776,7.5983,7.6347,7.5853,7.4924,7.4352,7.3859,7.344,7.344,7.3596,7.3729,7.3729,7.3859,7.3933,7.3933,7.4066,7.4167,7.4167,7.4296,7.456,7.5058,7.5136,7.5339,7.6139,7.6269,7.6424,7.6897,8.2028,8.8134,9.4041,10.0912,10.8061,11.5446,11.7276,11.6321,11.2159,10.3941,9.3296,7.97,7.7624,7.7183,7.7183,7.6632,7.6139,7.5724,7.5209,7.4642,7.4015,7.3803,7.344,7.2926,7.2926,7.2508,7.1677,7.2039,7.2039,7.1677,7.2508,7.2926,5.2044,5.1862,5.3021,5.8334,6.1235,6.3936,6.8268,6.7513,6.5982,6.6467,6.4105,6.3011,6.665,7.0464,7.5269,8.2106,8.7868,9.0973,8.9539,8.9798,8.9488,8.7795,8.307,8.2405,8.8703,9.2115,9.6513,10.2733,10.596,10.7809,10.8151,10.8492,10.853,10.8189,10.8037,10.7671,10.7025,10.6987,10.6835,10.6405,10.6835,10.6987,10.7025,10.7367,10.258,9.3723,8.9009,8.1785,7.3521,7.3859,7.42,7.4486,7.4997,7.536,7.549,7.5071,7.4638,7.4144,7.4066,7.344,7.2817,7.308,7.3158,7.3158,7.3158,7.3287,7.344,7.344,7.344,7.344,7.344,7.344,7.3573,7.3937,7.407,7.4222,7.479,7.4941,7.5153,7.5781,7.8995,8.3597,8.996,9.7005,10.4025,11.088,11.4505,11.4493,10.9147,10.2331,9.3976,8.3605,7.9595,7.7339,7.6326,7.5703,7.5131,7.4504,7.4222,7.3784,7.3158,7.3158,7.2794,7.1963,7.1729,7.1184,7.0196,7.03,7.0223,6.9911,7.1107,7.1367,4.7058,4.7499,4.8886,5.0434,5.4709,5.8948,0.0,6.1393,6.2077,6.269,6.0885,5.9419,6.0127,6.5995,7.101,7.1835,8.1064,8.6829,8.3115,8.2699,8.2957,8.3531,7.3996,7.0148,7.7168,8.2463,8.8583,9.6153,10.1833,10.56,10.7126,10.7847,10.8037,10.7519,10.8151,10.7847,10.6456,10.6392,10.5924,10.5115,10.5924,10.6354,10.6354,10.7139,10.4617,9.9116,8.767,7.9919,7.5283,7.3938,7.3729,7.4278,7.4768,7.5283,7.5568,7.4144,7.3235,7.2848,7.3235,7.261,7.1753,7.2301,7.2511,7.2511,7.2511,7.2872,7.3287,7.3287,7.3287,7.3287,7.3287,7.3287,7.331,7.3365,7.3388,7.3388,7.344,7.344,7.3651,7.42,7.4716,7.7365,8.4614,9.2003,9.8657,10.4045,10.9492,11.1542,10.7686,10.1024,9.433,8.8335,8.213,7.7546,7.5339,7.4638,7.407,7.3443,7.3388,7.3158,7.2508,7.2433,7.1885,7.0767,7.0198,6.9548,6.8925,6.8483,6.8197,6.8171,6.9366,6.9314,0.0,0.0,0.0,0.0,0.0,0.0,0.0,5.0916,5.1985,5.2989,5.4179,5.5628,5.7601,6.0309,6.4183,7.0065,7.3949,7.6005,7.5415,7.5922,7.4544,6.9611,6.772,6.8965,7.4339,7.6723,8.2333,9.2961,9.5237,9.8887,10.5144,10.5608,10.6254,10.7481,10.7671,10.7595,10.7291,10.6607,10.619,10.6038,10.6278,10.6354,10.6354,10.7139,10.6871,10.5128,9.3249,8.7795,8.6483,7.6843,7.2926,7.3082,7.3158,7.3521,7.4015,7.42,7.3859,7.3287,7.295,7.2093,7.1105,7.1236,7.126,7.126,7.126,7.1677,7.2037,7.2037,7.2037,7.2037,7.2037,7.2037,7.2169,7.2742,7.2874,7.295,7.3388,7.344,7.3521,7.3651,7.3726,7.6083,8.3208,9.0188,9.5518,9.7643,9.8979,9.9579,9.912,9.3543,8.7003,8.0075,7.7672,7.5983,7.4694,7.4015,7.3443,7.2872,7.2874,7.2378,7.1314,7.0873,7.0301,6.9547,6.8638,6.7833,6.716,6.7056,6.6795,6.6455,6.7599,6.7755,0.0,0.0,0.0,0.0,0.0,0.0,0.0,0.0,0.0,0.0,0.0,5.2174,5.3668,0.0,5.9914,6.3805,6.8622,7.111,6.9,7.1725,7.1737,6.5662,6.5211,6.6443,6.9214,7.2221,7.6615,8.3018,8.877,9.3885,9.8061,10.2146,10.4747,10.5632,10.6835,10.7291,10.6911,10.6076,10.5431,10.5063,10.5063,10.529,10.5596,10.3503,10.278,10.2492,9.0773,8.591,8.549,7.6436,7.2508,7.2169,7.1883,7.1963,7.2301,7.3235,7.3158,7.2662,7.2947,7.2301,7.1338,7.1338,7.1184,7.0898,7.0612,7.0897,7.1338,7.1338,7.1546,7.1753,7.1753,7.1753,7.1831,7.2171,7.2223,7.2301,7.2532,7.261,7.2662,7.3028,7.308,7.4485,7.8868,8.4721,9.0229,9.4339,9.5273,9.5571,9.5724,9.0548,8.4448,7.8054,7.684,7.6139,7.5283,7.443,7.3573,7.2742,7.2147,7.1521,7.0976,6.9885,6.9054,6.8431,6.7053,6.599,6.5418,6.5182,6.5026,6.5052,6.5338,6.5467,0.0,0.0,0.0,0.0,0.0,0.0,0.0,0.0,0.0,0.0,0.0,0.0,0.0,0.0,0.0,5.761,6.3988,6.7681,6.4477,6.8128,6.9489,6.4836,6.399,6.3886,6.405,6.7835,7.1137,7.3345,8.1625,8.7929,9.0896,9.7386,10.1645,10.3001,10.5279,10.638,10.6038,10.5305,10.4671,10.4037,10.4037,0.0,10.4803,9.9868,9.807,9.8199,8.6734,8.183,8.1403,7.5081,7.2169,7.1675,7.1028,7.0845,7.1106,7.2303,7.2301,7.1829,7.2662,7.2171,7.1105,7.1105,7.0689,7.0223,6.9808,7.0093,0.0,7.0638,7.1028,7.1444,7.1444,7.1444,7.1444,7.1444,7.1444,7.1468,7.1546,7.1468,7.1677,7.2378,7.2433,7.2872,7.4582,7.8459,8.379,9.1113,9.1698,9.1833,9.3156,8.8042,8.2599,7.7933,7.6975,7.6326,7.5563,7.4638,7.3654,7.2586,7.1521,7.0845,7.0638,6.8898,6.7756,6.7469,6.547,6.4328,6.4142,6.3514,6.3488,6.396,6.1832,6.1802,0.0,0.0,0.0,0.0,0.0,0.0,0.0,0.0,0.0,0.0,0.0,0.0,0.0,0.0,0.0,0.0,5.9524,6.2168,6.3275,6.3548,6.3218,6.2156,6.2375,6.2224,6.1243,6.2574,6.5723,7.1076,7.2375,7.7806,8.8903,9.0339,0.0,0.0,0.0,10.3673,10.5115,10.5039,10.4925,10.4812,10.4812,10.4887,10.4803,10.0071,9.8328,9.8424,8.6634,8.175,8.1677,7.4706,7.1751,7.1624,7.0638,7.0509,7.1106,7.2303,7.2301,7.1675,7.1392,0.0,0.0,6.8795,6.8354,6.7887,6.7936,6.8613,6.9392,6.9392,6.9859,7.0354,7.0354,7.0354,7.0354,7.0354,7.0354,7.0509,7.0897,7.0664,7.0612,7.1677,7.1468,7.1677,7.3388,7.3784,7.6707,8.4918,8.1596,8.0672,8.7548,8.2353,7.7541,7.6326,7.5719,0.0,7.3881,7.3235,7.2586,7.1883,7.126,7.0509,6.9444,6.734,6.6353,6.6745,6.4094,6.3159,6.4142,6.3029,6.2843,6.3263,5.5567,5.5255,0.0,0.0,0.0,0.0,0.0,0.0,0.0,0.0,0.0,0.0,0.0,0.0,0.0,0.0,0.0,0.0,5.5913,5.8311,5.877,5.9802,6.0503,6.0607,6.0815,6.0614,5.9809,6.0192,6.177,6.482,6.7949,7.2146,7.7697,8.4629,8.98,9.2787,9.772,10.0647,10.132,10.132,10.132,10.132,10.132,10.19,10.2557,9.457,9.169,9.2291,8.0794,7.5943,7.5865,7.2618,7.1106,7.0612,0.0,0.0,0.0,0.0,6.947,6.9807,6.9574,6.8795,6.7936,6.7548,6.7029,6.6459,6.6172,6.6823,6.7731,6.7731,6.8431,6.9184,6.9184,6.9184,6.9184,6.9184,6.9184,6.9288,6.9859,6.9781,6.9859,7.0664,7.0638,0.0,7.0897,7.1106,7.3901,8.1807,7.8129,7.7189,8.4584,7.9954,7.5983,7.6004,7.5797,7.536,7.4582,7.3648,0.0,0.0,0.0,6.9703,6.9236,6.7704,0.0,0.0,0.0,6.0822,6.064,5.6888,0.0,0.0,5.1374,5.0042,0.0,0.0,0.0,0.0,0.0,0.0,0.0,0.0,0.0,0.0,0.0,0.0,0.0,0.0,0.0,0.0,5.2407,5.4859,5.4485,5.6293,5.7853,5.8424,5.8918,5.884,5.8,5.8364,5.8996,5.9894,6.386,6.7205,6.9297,7.7823,8.4074,8.7074,9.2776,9.6503,9.8019,9.8293,9.8293,9.8019,9.6774,9.6765,9.7635,8.7616,8.3825,8.4693,7.5158,7.1053,7.0975,7.0327,6.9704,6.895,6.6561,6.5626,6.5678,6.6275,6.721,6.8197,6.8197,6.7755,6.7053,6.6405,6.5834,6.5289,6.4717,6.5211,6.599,6.599,6.6691,6.7496,6.7678,6.7704,6.7756,6.7912,6.7938,6.8093,6.8665,6.8613,6.8717,6.9496,6.9314,6.8872,6.8561,6.9288,7.2012,7.8114,7.5892,7.5539,8.129,7.8069,7.536,7.5776,7.5797,7.549,7.479,7.3803,7.2872,7.2069,7.0119,6.8769,6.8302,6.7599,6.6247,6.4276,6.1497,5.9445,0.0,0.0,0.0,0.0,0.0,0.0,0.0,0.0,0.0,0.0,0.0,0.0,0.0,0.0,0.0,0.0,0.0,0.0,0.0,0.0,0.0,0.0,0.0,0.0,5.1459,5.2927,5.4266,5.4879,5.6439,5.6761,5.5087,5.6397,5.7601,5.8155,5.8946,6.1881,6.76,6.9016,7.447,8.5074,8.7231,9.0794,9.6228,9.7154,9.7154,9.6266,9.1682,8.9518,8.9299,7.9965,7.626,7.6832,7.1556,6.9288,6.921,6.8196,6.7391,6.6641,6.5395,6.4977,6.5055,6.5678,6.6663,6.7651,6.7651,6.6923,6.5808,6.5211,6.4613,6.4116,6.3592,6.3778,6.4246,6.4246,6.4613,6.5185,6.5831,6.5938,6.6094,6.6639,6.6719,6.6925,6.7547,6.7184,6.7132,6.8249,6.7132,6.6172,6.6641,6.812,7.0041,7.2623,7.3267,0.0,7.6872,7.605,7.5205,7.5287,7.5287,7.479,7.3651,7.3028,7.2017,7.0354,6.9106,6.7704,6.6042,6.5987,6.4847,6.2536,6.1243,5.979,5.8103,0.0,0.0,0.0,0.0,0.0,0.0,0.0,0.0,0.0,0.0,0.0,0.0,0.0,0.0,0.0,0.0,0.0,0.0,0.0,0.0,0.0,0.0,0.0,0.0,4.9707,5.1277,5.1888,5.3096,5.3368,5.2096,5.3148,5.4433,5.5799,5.677,5.8475,6.1277,6.4993,6.9125,7.36,8.0919,8.5877,8.8202,8.9456,8.9754,8.896,8.4621,8.2616,8.2557,7.6326,7.3952,7.4475,6.9625,6.7366,6.6977,6.6663,6.4977,6.2593,6.1887,6.1575,6.1653,6.2178,6.2925,6.3752,6.4554,6.4554,6.409,6.3445,6.2921,6.2427,6.2245,6.289,6.3644,6.3644,6.4012,6.4432,6.4639,6.448,6.4246,6.4428,6.448,6.4636,6.5208,6.5182,6.5341,6.6509,6.5029,6.3756,6.4376,6.5522,6.7134,6.9496,7.126,7.3155,7.549,7.5776,7.5776,7.5776,7.5131,7.4564,7.4148,7.2225,7.0951,7.069,6.7808,6.6042,6.5886,6.4818,6.3648,6.2432,6.2016,5.9861,5.5945,0.0,0.0,0.0,0.0,0.0,0.0,0.0,0.0,0.0,0.0,0.0,0.0,0.0,0.0,0.0,0.0,0.0,0.0,0.0,0.0,0.0,0.0,0.0,0.0,0.0,0.0,5.0082,5.0434,0.0,4.938,4.9888,5.0953,5.2538,5.3836,5.5171,5.6537,6.0108,6.3488,6.6513,7.3509,7.8254,8.0281,8.1662,8.2037,8.1286,7.708,7.5207,7.5193,7.112,6.9633,7.0133,6.7258,6.5756,6.5234,6.4354,6.2074,5.9115,5.8796,5.8381,5.8164,5.8856,5.9679,6.0555,6.1699,6.2395,6.2656,6.199,6.1004,6.0062,5.9809,5.9077,5.8769,6.0896,6.0661,6.0352,6.2858,6.3128,6.2864,6.3254,6.3358,6.3462,6.3778,6.37,6.37,6.4272,6.318,6.2271,6.2682,6.3648,6.5055,6.7184,6.9392,7.1753,7.4296,7.5283,7.5641,7.5495,7.485,7.4144,7.3521,7.1445,6.999,6.947,6.6613,6.4847,6.4639,6.3414,6.2245,6.1211,6.038,5.8086,0.0,0.0,0.0,0.0,0.0,0.0,0.0,0.0,0.0,0.0,0.0,0.0,0.0,0.0,0.0,0.0,0.0,0.0,0.0,0.0,0.0,0.0,0.0,0.0,0.0,0.0,0.0,4.9073,4.8242,0.0,0.0,0.0,0.0,4.8444,5.0082,5.1732,5.342,5.411,5.7345,6.3536,6.5326,6.8276,7.2681,7.4055,7.4354,7.355,6.9404,6.7437,6.7361,6.4518,6.3566,6.409,6.4587,6.4484,6.3804,6.1419,5.8752,5.6193,5.6131,5.5472,5.4723,5.5758,5.6858,5.7974,5.9264,6.0426,6.1231,6.064,5.8978,5.703,5.6365,5.2823,0.0,0.0,5.4642,5.3352,6.0129,6.169,6.1771,6.2942,6.3202,6.3176,6.3176,6.2713,6.2094,6.1517,6.1361,6.1263,6.1002,0.0,6.3523,6.5093,6.7422,7.0092,7.3025,7.4508,7.5053,7.4564,7.4434,7.3651,7.1907,7.069,6.9028,6.6797,6.5473,6.4068,6.2432,6.1777,6.0607,5.891,5.6631,0.0,0.0,0.0,0.0,0.0,0.0,0.0,0.0,0.0,0.0,0.0,0.0,0.0,0.0,0.0,0.0,0.0,0.0,0.0,0.0,0.0,0.0,0.0,0.0,0.0,0.0,4.1739,4.2779,4.4305,4.3896,4.3246,0.0,0.0,0.0,0.0,0.0,0.0,4.872,4.977,5.1853,5.5137,5.9901,6.3365,6.5304,6.7017,6.7491,6.6818,6.3489,6.1901,6.1883,6.1545,6.1887,6.2847,6.2977,6.2484,6.1341,5.8199,5.5706,5.3798,5.2525,5.1849,5.1706,5.2356,5.3057,5.3977,5.6442,5.7195,5.716,5.7403,5.6209,5.4537,5.351,0.0,0.0,0.0,0.0,5.1037,5.4323,5.706,5.9419,6.0978,6.1075,6.0763,6.0763,6.0614,6.0095,5.871,5.8043,5.6456,5.2471,5.535,0.0,5.7471,6.2714,6.8223,7.2378,7.4219,7.5339,7.5568,7.4144,7.295,7.2511,6.9444,6.734,6.6693,6.4406,6.2666,6.1855,5.9991,5.806,5.5919,0.0,0.0,0.0,0.0,0.0,0.0,0.0,0.0,0.0,0.0,0.0,0.0,0.0,0.0,0.0,0.0,0.0,0.0,0.0,0.0,0.0,0.0,0.0,0.0,0.0,0.0,0.0,3.888,4.0492,4.2239,4.1042,4.0128,0.0,0.0,0.0,0.0,0.0,0.0,0.0,0.0,0.0,4.9473,5.3555,5.6081,5.6878,5.8922,5.9775,5.9358,5.8209,5.7775,5.8017,5.8544,5.9601,6.0945,6.0666,5.916,5.6728,5.4355,5.2083,4.9963,0.0,0.0,0.0,0.0,4.9057,4.9638,5.0514,5.0859,5.0653,4.8973,0.0,0.0,0.0,0.0,0.0,0.0,0.0,4.3762,4.9831,5.2791,5.5034,5.8407,5.877,5.8433,5.8692,5.602,5.3347,5.2648,5.0824,4.8333,4.5044,4.8628,0.0,0.0,0.0,6.5912,7.0249,7.3212,7.4794,7.4582,7.3651,7.2508,7.1315,6.8898,6.6925,6.5652,6.3808,6.2011,6.0147,5.8355,5.5836,0.0,0.0,0.0,0.0,0.0,0.0,0.0,0.0,0.0,0.0,0.0,0.0,0.0,0.0,0.0,0.0,0.0,0.0,0.0,0.0,0.0,0.0,0.0,0.0,0.0,0.0,0.0,0.0,0.0,3.9189,4.0964,0.0,0.0,0.0,0.0,0.0,0.0,0.0,0.0,0.0,0.0,0.0,0.0,0.0,4.8236,4.8865,5.0991,5.2109,5.2304,5.337,5.4188,5.4849,5.5353,5.6589,5.8234,5.6978,0.0,5.1538,5.0186,0.0,0.0,0.0,0.0,0.0,0.0,0.0,0.0,0.0,0.0,0.0,0.0,0.0,0.0,0.0,0.0,0.0,0.0,0.0,0.0,0.0,0.0,4.9905,5.4689,5.5878,5.5688,5.4728,4.9089,4.4376,4.4816,4.2223,3.9529,0.0,0.0,0.0,0.0,0.0,0.0,6.7548,7.1601,7.3784,7.2872,7.308,7.2169,6.9547,6.8639,6.7029,6.4324,6.3332,6.1283,5.7922,5.6598,0.0,0.0,0.0,0.0,0.0,0.0,0.0,0.0,0.0,0.0,0.0,0.0,0.0,0.0,0.0,0.0,0.0,0.0,0.0,0.0,0.0,0.0,0.0,0.0,0.0,0.0,0.0,0.0,0.0,0.0,0.0,0.0,0.0,0.0,0.0,0.0,0.0,0.0,0.0,0.0,0.0,0.0,0.0,0.0,0.0,0.0,0.0,0.0,0.0,0.0,4.8709,4.9592,5.063,5.1277,5.2473,5.385,4.9473,4.8216,4.9109,4.6045,0.0,0.0,0.0,0.0,0.0,0.0,0.0,0.0,0.0,0.0,0.0,0.0,0.0,0.0,0.0,0.0,0.0,0.0,0.0,0.0,0.0,0.0,4.6435,4.7597,5.0852,5.1095,4.1709,0.0,0.0,0.0,0.0,0.0,0.0,0.0,0.0,0.0,0.0,0.0,6.5727,6.9781,7.2454,7.3232,7.2586,7.1468,7.0093,6.8145,6.6172,6.4272,6.1459,5.8684,0.0,0.0,0.0,0.0,0.0,0.0,0.0,0.0,0.0,0.0,0.0,0.0,0.0,0.0,0.0,0.0,0.0,0.0,0.0,0.0,0.0,0.0,0.0,0.0,0.0,0.0,0.0,0.0,0.0,0.0,0.0,0.0,0.0,0.0,0.0,0.0,0.0,0.0,0.0,0.0,0.0,0.0,0.0,0.0,0.0,0.0,0.0,0.0,0.0,0.0,0.0,0.0,0.0,0.0,0.0,0.0,0.0,0.0,4.498,4.3006,0.0,0.0,0.0,0.0,0.0,0.0,0.0,0.0,0.0,0.0,0.0,0.0,0.0,0.0,0.0,0.0,0.0,0.0,0.0,0.0,0.0,0.0,0.0,0.0,0.0,0.0,0.0,0.0,0.0,0.0,0.0,0.0,0.0,0.0,0.0,0.0,0.0,0.0,0.0,0.0,6.3128,6.8354,7.1753,7.1755,7.1753,7.1053,6.9392,6.7678,6.5421,6.251,5.9724,0.0,0.0,0.0,0.0,0.0,0.0,0.0,0.0,0.0,0.0,0.0,0.0,0.0,0.0,0.0,0.0,0.0,0.0,0.0,0.0,0.0,0.0,0.0,0.0,0.0,0.0,0.0,0.0,0.0,0.0,0.0,0.0,0.0,0.0,0.0,0.0,0.0,0.0,0.0,0.0,0.0,0.0,0.0,0.0,0.0,0.0,0.0,0.0,0.0,0.0,0.0,0.0,0.0,0.0,0.0,0.0,0.0,0.0,0.0,4.1059,3.8666,0.0,0.0,0.0,0.0,0.0,0.0,0.0,0.0,0.0,0.0,0.0,0.0,0.0,0.0,0.0,0.0,0.0,0.0,0.0,0.0,0.0,0.0,0.0,0.0,0.0,0.0,0.0,0.0,0.0,0.0,0.0,0.0,0.0,0.0,0.0,0.0,0.0,0.0,0.0,0.0,6.0724,6.7081,7.0897,7.025,7.0898,7.056,6.8587,6.7366,6.4902,6.0724,5.8043,0.0,0.0,0.0,0.0,0.0,0.0,0.0,0.0,0.0,0.0,0.0,0.0,0.0,0.0,0.0,0.0,0.0,0.0,0.0,0.0,0.0,0.0,0.0,0.0,0.0,0.0,0.0,0.0,0.0,0.0,0.0,0.0,0.0,0.0,0.0,0.0,0.0,0.0,0.0,0.0,0.0,0.0,0.0,0.0,0.0,0.0,0.0,0.0,0.0,0.0,0.0,0.0,0.0,0.0,0.0,0.0,0.0,0.0,0.0,0.0,0.0,0.0,0.0,0.0,0.0,0.0,0.0,0.0,0.0,0.0,0.0,0.0,0.0,0.0,0.0,0.0,0.0,0.0,0.0,0.0,0.0,0.0,0.0,0.0,0.0,0.0,0.0,0.0,0.0,0.0,0.0,0.0,0.0,0.0,0.0,0.0,0.0,0.0,0.0,0.0,0.0,5.927,6.5499,6.9599,7.012,7.0276,6.9834,6.8535,6.7366,6.4721,6.0224,0.0,0.0,0.0,0.0,0.0,0.0,0.0,0.0,0.0,0.0,0.0,0.0,0.0,0.0,0.0,0.0,0.0,0.0,0.0,0.0,0.0,0.0,0.0,0.0,0.0,0.0,0.0,0.0,0.0,0.0,0.0,0.0,0.0,0.0,0.0,0.0,0.0,0.0,0.0,0.0,0.0,0.0,0.0,0.0,0.0,0.0,0.0,0.0,0.0,0.0,0.0,0.0,0.0,0.0,0.0,0.0,0.0,0.0,0.0,0.0,0.0,0.0,0.0,0.0,0.0,0.0,0.0,0.0,0.0,0.0,0.0,0.0,0.0,0.0,0.0,0.0,0.0,0.0,0.0,0.0,0.0,0.0,0.0,0.0,0.0,0.0,0.0,0.0,0.0,0.0,0.0,0.0,0.0,0.0,0.0,0.0,0.0,0.0,0.0,0.0,0.0,0.0,5.7651,6.5029,6.96,6.9158,6.9756,6.9704,6.8509,6.6717,6.3549,5.8684,0.0,0.0,0.0,0.0,0.0,0.0,0.0,0.0,0.0,0.0,0.0,0.0,0.0,0.0,0.0,0.0,0.0,0.0,0.0,0.0,0.0,0.0,0.0,0.0,0.0,0.0,0.0,0.0,0.0,0.0,0.0,0.0,0.0,0.0,0.0,0.0,0.0,0.0,0.0,0.0,0.0,0.0,0.0,0.0,0.0,0.0,0.0,0.0,0.0,0.0,0.0,0.0,0.0,0.0,0.0,0.0,0.0,0.0,0.0,0.0,0.0,0.0,0.0,0.0,0.0,0.0,0.0,0.0,0.0,0.0,0.0,0.0,0.0,0.0,0.0,0.0,0.0,0.0,0.0,0.0,0.0,0.0,0.0,0.0,0.0,0.0,0.0,0.0,0.0,0.0,0.0,0.0,0.0,0.0,0.0,0.0,0.0,0.0,0.0,0.0,0.0,0.0,5.5279,6.3958,6.9496,6.8976,6.9496,6.947,6.8509,6.612,6.2432,5.7177,0.0,0.0,0.0,0.0,0.0,0.0,0.0,0.0,0.0,0.0,0.0,0.0,0.0,0.0,0.0,0.0,0.0,0.0,0.0,0.0,0.0,0.0,0.0,0.0,0.0,0.0,0.0,0.0,0.0,0.0,0.0,0.0,0.0,0.0,0.0,0.0,0.0,0.0,0.0,0.0,0.0,0.0,0.0,0.0,0.0,0.0,0.0,0.0,0.0,0.0,0.0,0.0,0.0,0.0,0.0,0.0,0.0,0.0,0.0,0.0,0.0,0.0,0.0,0.0,0.0,0.0,0.0,0.0,0.0,0.0,0.0,0.0,0.0,0.0,0.0,0.0,0.0,0.0,0.0,0.0,0.0,0.0,0.0,0.0,0.0,0.0,0.0,0.0,0.0,0.0,0.0,0.0,0.0,0.0,0.0,0.0,0.0,0.0,0.0,0.0,0.0,0.0,5.1956,6.1928,6.8872,7.0042,6.96,6.8977,6.8457,6.5831,6.1725,0.0,0.0,0.0,0.0,0.0,0.0,0.0,0.0,0.0,0.0,0.0,0.0,0.0,0.0,0.0,0.0,0.0,0.0,0.0,0.0,0.0,0.0,0.0,0.0,0.0,0.0,0.0,0.0,0.0,0.0,0.0,0.0,0.0,0.0,0.0,0.0,0.0,0.0,0.0,0.0,0.0,0.0,0.0,0.0,0.0,0.0,0.0,0.0,0.0,0.0,0.0,0.0,0.0,0.0,0.0,0.0,0.0,0.0,0.0,0.0,0.0,0.0,0.0,0.0,0.0,0.0,0.0,0.0,0.0,0.0,0.0,0.0,0.0,0.0,0.0,0.0,0.0,0.0,0.0,0.0,0.0,0.0,0.0,0.0,0.0,0.0,0.0,0.0,0.0,0.0,0.0,0.0,0.0,0.0,0.0,0.0,0.0,0.0,0.0,0.0,0.0,0.0,0.0,5.0476,6.0595,6.7704,6.8847,6.8795,6.8457,6.7936,6.5234,6.1173,5.5425,0.0,0.0,0.0,0.0,0.0,0.0,0.0,0.0,0.0,0.0,0.0,0.0,0.0,0.0,0.0,0.0,0.0,0.0,0.0,0.0,0.0,0.0,0.0,0.0,0.0,0.0,0.0,0.0,0.0,0.0,0.0,0.0,0.0,0.0,0.0,0.0,0.0,0.0,0.0,0.0,0.0,0.0,0.0,0.0,0.0,0.0,0.0,0.0,0.0,0.0,0.0,0.0,0.0,0.0,0.0,0.0,0.0,0.0,0.0,0.0,0.0,0.0,0.0,0.0,0.0,0.0,0.0,0.0,0.0,0.0,0.0,0.0,0.0,0.0,0.0,0.0,0.0,0.0,0.0,0.0,0.0,0.0,0.0,0.0,0.0,0.0,0.0,0.0,0.0,0.0,0.0,0.0,0.0,0.0,0.0,0.0,0.0,0.0,0.0,0.0,0.0,0.0,0.0,5.8554,6.6615,6.8249,6.8405,6.8093,6.7365,6.4454,6.0185,5.4162,0.0,0.0,0.0,0.0,0.0,0.0,0.0,0.0,0.0,0.0,0.0,0.0,0.0,0.0,0.0,0.0,0.0,0.0,0.0,0.0,0.0,0.0,0.0,0.0,0.0,0.0,0.0,0.0,0.0,0.0,0.0,0.0,0.0,0.0,0.0,0.0,0.0,0.0,0.0,0.0,0.0,0.0,0.0,0.0,0.0,0.0,0.0,0.0,0.0,0.0,0.0,0.0,0.0,0.0,0.0,0.0,0.0,0.0,0.0,0.0,0.0,0.0,0.0,0.0,0.0,0.0,0.0,0.0,0.0,0.0,0.0,0.0,0.0,0.0,0.0,0.0,0.0,0.0,0.0,0.0,0.0,0.0,0.0,0.0,0.0,0.0,0.0,0.0,0.0,0.0,0.0,0.0,0.0,0.0,0.0,0.0,0.0,0.0,0.0,0.0,0.0,0.0,0.0,5.5661,6.5155,6.799,6.8171,6.7704,6.6615,6.3419,5.8814,5.2498,4.5984,0.0,0.0,0.0,0.0,0.0,0.0,0.0,0.0,0.0,0.0,0.0,0.0,0.0,0.0,0.0,0.0,0.0,0.0,0.0,0.0,0.0,0.0,0.0,0.0,0.0,0.0,0.0,0.0,0.0,0.0,0.0,0.0,0.0,0.0,0.0,0.0,0.0,0.0,0.0,0.0,0.0,0.0,0.0,0.0,0.0,0.0,0.0,0.0,0.0,0.0,0.0,0.0,0.0,0.0,0.0,0.0,0.0,0.0,0.0,0.0,0.0,0.0,0.0,0.0,0.0,0.0,0.0,0.0,0.0,0.0,0.0,0.0,0.0,0.0,0.0,0.0,0.0,0.0,0.0,0.0,0.0,0.0,0.0,0.0,0.0,0.0,0.0,0.0,0.0,0.0,0.0,0.0,0.0,0.0,0.0,0.0,0.0,0.0,0.0,0.0,0.0,0.0,5.113,5.879,6.5771,6.5652,6.5185,6.5341,6.2224,5.7939,5.2446,4.5984,0.0,0.0,0.0,0.0,0.0,0.0,0.0,0.0,0.0,0.0,0.0,0.0,0.0,0.0,0.0,0.0,0.0,0.0,0.0,0.0,0.0,0.0,0.0,0.0,0.0,0.0,0.0,0.0,0.0,0.0,0.0,0.0,0.0,0.0,0.0,0.0,0.0,0.0,0.0,0.0,0.0,0.0,0.0,0.0,0.0,0.0,0.0,0.0,0.0,0.0,0.0,0.0,0.0,0.0,0.0,0.0,0.0,0.0,0.0,0.0,0.0,0.0,0.0,0.0,0.0,0.0,0.0,0.0,0.0,0.0,0.0,0.0,0.0,0.0,0.0,0.0,0.0,0.0,0.0,0.0,0.0,0.0,0.0,0.0,0.0,0.0,0.0,0.0,0.0,0.0,0.0,0.0,0.0,0.0,0.0,0.0,0.0,0.0,0.0,0.0,0.0,0.0,4.2861,5.1487,6.305,6.422,6.4064,6.3808,6.0874,5.6641,5.0953,4.3456,0.0,0.0,0.0,0.0,0.0,0.0,0.0,0.0,0.0,0.0,0.0,0.0,0.0,0.0,0.0,0.0,0.0,0.0,0.0,0.0,0.0,0.0,0.0,0.0,0.0,0.0,0.0,0.0,0.0,0.0,0.0,0.0,0.0,0.0,0.0,0.0,0.0,0.0,0.0,0.0,0.0,0.0,0.0,0.0,0.0,0.0,0.0,0.0,0.0,0.0,0.0,0.0,0.0,0.0,0.0,0.0,0.0,0.0,0.0,0.0,0.0,0.0,0.0,0.0,0.0,0.0,0.0,0.0,0.0,0.0,0.0,0.0,0.0,0.0,0.0,0.0,0.0,0.0,0.0,0.0,0.0,0.0,0.0,0.0,0.0,0.0,0.0,0.0,0.0,0.0,0.0,0.0,0.0,0.0,0.0,0.0,0.0,0.0,0.0,0.0,0.0,0.0,0.0,4.3802,5.7688,6.1772,6.3154,6.2224,5.9479,5.5057,4.8483,0.0,0.0,0.0,0.0,0.0,0.0,0.0,0.0,0.0,0.0,0.0,0.0,0.0,0.0,0.0,0.0,0.0,0.0,0.0,0.0,0.0,0.0,0.0,0.0,0.0,0.0,0.0,0.0,0.0,0.0,0.0,0.0,0.0,0.0,0.0,0.0,0.0,0.0,0.0,0.0,0.0,0.0,0.0,0.0,0.0,0.0,0.0,0.0,0.0,0.0,0.0,0.0,0.0,0.0,0.0,0.0,0.0,0.0,0.0,0.0,0.0,0.0,0.0,0.0,0.0,0.0,0.0,0.0,0.0,0.0,0.0,0.0,0.0,0.0,0.0,0.0,0.0,0.0,0.0,0.0,0.0,0.0,0.0,0.0,0.0,0.0,0.0,0.0,0.0,0.0,0.0,0.0,0.0,0.0,0.0,0.0,0.0,0.0,0.0,0.0,0.0,0.0,0.0,0.0,3.683,4.3764,5.4102,6.064,6.088,5.8311,5.3239,4.5366,0.0,0.0,0.0,0.0,0.0,0.0,0.0,0.0,0.0,0.0,0.0,0.0,0.0,0.0]}]]]